<?xml version='1.0' encoding='UTF-8'?><gpx version="1.1" creator="JPX - https://github.com/jenetics/jpx" xmlns="http://www.topografix.com/GPX/1/1"><trk><trkseg><trkpt lat="44.84260894937517" lon="11.490952508581355"><ele>11.0</ele><time>2026-04-23T09:51:47.998Z</time></trkpt><trkpt lat="44.84266180609295" lon="11.49084950978472"><ele>11.0</ele><time>2026-04-23T09:51:48.998Z</time></trkpt><trkpt lat="44.84272407967528" lon="11.490728557684662"><ele>11.0</ele><time>2026-04-23T09:51:49.998Z</time></trkpt><trkpt lat="44.84277490064952" lon="11.490630861382456"><ele>11.0</ele><time>2026-04-23T09:51:50.997Z</time></trkpt><trkpt lat="44.8428298021153" lon="11.490522651012512"><ele>11.0</ele><time>2026-04-23T09:51:52.001Z</time></trkpt><trkpt lat="44.84288382348124" lon="11.490411004062267"><ele>10.833333333333332</ele><time>2026-04-23T09:51:53.001Z</time></trkpt><trkpt lat="44.84293034304384" lon="11.490304218615861"><ele>10.666666666666666</ele><time>2026-04-23T09:51:54.001Z</time></trkpt><trkpt lat="44.84297594059709" lon="11.490205982710691"><ele>10.5</ele><time>2026-04-23T09:51:55.001Z</time></trkpt><trkpt lat="44.84301671855602" lon="11.490116212527724"><ele>10.333333333333334</ele><time>2026-04-23T09:51:56.001Z</time></trkpt><trkpt lat="44.84305556867722" lon="11.490030130382152"><ele>10.166666666666668</ele><time>2026-04-23T09:51:57.001Z</time></trkpt><trkpt lat="44.84312896921507" lon="11.489887311048772"><ele>10.0</ele><time>2026-04-23T09:51:59.001Z</time></trkpt><trkpt lat="44.84317863016943" lon="11.489798687061846"><ele>10.0</ele><time>2026-04-23T09:52:01Z</time></trkpt><trkpt lat="44.84323525072933" lon="11.48973087310143"><ele>10.0</ele><time>2026-04-23T09:52:03Z</time></trkpt><trkpt lat="44.84329884555362" lon="11.489759059513876"><ele>10.0</ele><time>2026-04-23T09:52:05Z</time></trkpt><trkpt lat="44.84335208976931" lon="11.489811248177245"><ele>10.0</ele><time>2026-04-23T09:52:06Z</time></trkpt><trkpt lat="44.84341597977838" lon="11.489862816615487"><ele>10.0</ele><time>2026-04-23T09:52:07Z</time></trkpt><trkpt lat="44.84347768519108" lon="11.489913472195814"><ele>10.0</ele><time>2026-04-23T09:52:08Z</time></trkpt><trkpt lat="44.84356720375504" lon="11.489984457252373"><ele>10.0</ele><time>2026-04-23T09:52:09Z</time></trkpt><trkpt lat="44.84367497106502" lon="11.490080123076893"><ele>10.0</ele><time>2026-04-23T09:52:10Z</time></trkpt><trkpt lat="44.843800811465535" lon="11.490188255651933"><ele>10.0</ele><time>2026-04-23T09:52:11Z</time></trkpt><trkpt lat="44.84392739798779" lon="11.490299790256108"><ele>10.0</ele><time>2026-04-23T09:52:12Z</time></trkpt><trkpt lat="44.844050159659766" lon="11.490411288837851"><ele>10.0</ele><time>2026-04-23T09:52:13Z</time></trkpt><trkpt lat="44.84417592508206" lon="11.490519179883218"><ele>10.0</ele><time>2026-04-23T09:52:14Z</time></trkpt><trkpt lat="44.84429444521266" lon="11.490622277529242"><ele>10.0</ele><time>2026-04-23T09:52:15Z</time></trkpt><trkpt lat="44.8444107673696" lon="11.490718448045516"><ele>10.0</ele><time>2026-04-23T09:52:16Z</time></trkpt><trkpt lat="44.8445252413163" lon="11.490826367430364"><ele>10.0</ele><time>2026-04-23T09:52:17Z</time></trkpt><trkpt lat="44.84463820643489" lon="11.490931083618117"><ele>10.0</ele><time>2026-04-23T09:52:18Z</time></trkpt><trkpt lat="44.844736921112066" lon="11.491036934173822"><ele>10.0</ele><time>2026-04-23T09:52:19Z</time></trkpt><trkpt lat="44.84484947791902" lon="11.491147085682808"><ele>10.0</ele><time>2026-04-23T09:52:20Z</time></trkpt><trkpt lat="44.84495836363102" lon="11.491263676525044"><ele>10.0</ele><time>2026-04-23T09:52:21Z</time></trkpt><trkpt lat="44.84505485871714" lon="11.49137721519821"><ele>10.0</ele><time>2026-04-23T09:52:22Z</time></trkpt><trkpt lat="44.84513143512367" lon="11.491467156005866"><ele>10.0</ele><time>2026-04-23T09:52:23Z</time></trkpt><trkpt lat="44.84520690737943" lon="11.491547213093236"><ele>10.0</ele><time>2026-04-23T09:52:24Z</time></trkpt><trkpt lat="44.84527616872835" lon="11.491624208883838"><ele>10.0</ele><time>2026-04-23T09:52:25Z</time></trkpt><trkpt lat="44.84534437118849" lon="11.491693729440524"><ele>10.0</ele><time>2026-04-23T09:52:26Z</time></trkpt><trkpt lat="44.84540420649016" lon="11.491762271642747"><ele>10.0</ele><time>2026-04-23T09:52:27Z</time></trkpt><trkpt lat="44.84547237966337" lon="11.491836914390447"><ele>10.0</ele><time>2026-04-23T09:52:28Z</time></trkpt><trkpt lat="44.84554777861086" lon="11.49191094083666"><ele>10.0</ele><time>2026-04-23T09:52:29Z</time></trkpt><trkpt lat="44.84562607587861" lon="11.491995027320973"><ele>10.0</ele><time>2026-04-23T09:52:30Z</time></trkpt><trkpt lat="44.84571274940947" lon="11.492083993508059"><ele>10.0</ele><time>2026-04-23T09:52:31Z</time></trkpt><trkpt lat="44.845792017849845" lon="11.492182528700768"><ele>10.0</ele><time>2026-04-23T09:52:32Z</time></trkpt><trkpt lat="44.84589012750133" lon="11.492294464045992"><ele>10.0</ele><time>2026-04-23T09:52:33Z</time></trkpt><trkpt lat="44.84601313745419" lon="11.49240559952606"><ele>10.0</ele><time>2026-04-23T09:52:34Z</time></trkpt><trkpt lat="44.846158568208224" lon="11.492527582760836"><ele>10.0</ele><time>2026-04-23T09:52:35Z</time></trkpt><trkpt lat="44.84629516230543" lon="11.492652106899254"><ele>10.0</ele><time>2026-04-23T09:52:36Z</time></trkpt><trkpt lat="44.84642686332801" lon="11.492772328321612"><ele>10.0</ele><time>2026-04-23T09:52:37Z</time></trkpt><trkpt lat="44.84655637516141" lon="11.492879000796526"><ele>10.0</ele><time>2026-04-23T09:52:38Z</time></trkpt><trkpt lat="44.846687092976275" lon="11.492989666596888"><ele>10.0</ele><time>2026-04-23T09:52:39Z</time></trkpt><trkpt lat="44.846816733898166" lon="11.493115395101329"><ele>10.0</ele><time>2026-04-23T09:52:40Z</time></trkpt><trkpt lat="44.846945521757405" lon="11.493227465555277"><ele>10.25</ele><time>2026-04-23T09:52:41Z</time></trkpt><trkpt lat="44.84706493406556" lon="11.493335656921104"><ele>10.5</ele><time>2026-04-23T09:52:42Z</time></trkpt><trkpt lat="44.847179058542565" lon="11.493444102733775"><ele>10.75</ele><time>2026-04-23T09:52:43Z</time></trkpt><trkpt lat="44.847291434260484" lon="11.49354196520956"><ele>11.0</ele><time>2026-04-23T09:52:44Z</time></trkpt><trkpt lat="44.84740378464629" lon="11.493637390604725"><ele>11.0</ele><time>2026-04-23T09:52:45Z</time></trkpt><trkpt lat="44.84750890392217" lon="11.493734739762099"><ele>11.0</ele><time>2026-04-23T09:52:46Z</time></trkpt><trkpt lat="44.847620093482625" lon="11.49383123282631"><ele>11.0</ele><time>2026-04-23T09:52:47Z</time></trkpt><trkpt lat="44.84772972906232" lon="11.493932810840167"><ele>11.0</ele><time>2026-04-23T09:52:48Z</time></trkpt><trkpt lat="44.84783180024373" lon="11.494036438352634"><ele>10.25</ele><time>2026-04-23T09:52:49Z</time></trkpt><trkpt lat="44.84794340140638" lon="11.494126996815599"><ele>9.5</ele><time>2026-04-23T09:52:50Z</time></trkpt><trkpt lat="44.848055392046525" lon="11.494220888795887"><ele>8.75</ele><time>2026-04-23T09:52:51Z</time></trkpt><trkpt lat="44.84816744638054" lon="11.49431850730342"><ele>8.0</ele><time>2026-04-23T09:52:52Z</time></trkpt><trkpt lat="44.84827223856489" lon="11.494420468748247"><ele>8.0</ele><time>2026-04-23T09:52:53Z</time></trkpt><trkpt lat="44.84838545428856" lon="11.49452020499572"><ele>8.0</ele><time>2026-04-23T09:52:54Z</time></trkpt><trkpt lat="44.84850406702504" lon="11.494620025087704"><ele>8.0</ele><time>2026-04-23T09:52:55Z</time></trkpt><trkpt lat="44.848613563995244" lon="11.494722008528889"><ele>8.0</ele><time>2026-04-23T09:52:56Z</time></trkpt><trkpt lat="44.848714790576395" lon="11.494810804906859"><ele>8.600000000000001</ele><time>2026-04-23T09:52:57Z</time></trkpt><trkpt lat="44.848809710592874" lon="11.494896830473863"><ele>9.200000000000001</ele><time>2026-04-23T09:52:57.999Z</time></trkpt><trkpt lat="44.84889923380617" lon="11.494977008259081"><ele>9.8</ele><time>2026-04-23T09:52:58.999Z</time></trkpt><trkpt lat="44.848993108731634" lon="11.49505818957856"><ele>10.4</ele><time>2026-04-23T09:52:59.999Z</time></trkpt><trkpt lat="44.84909550438797" lon="11.495146600004833"><ele>11.0</ele><time>2026-04-23T09:53:00.999Z</time></trkpt><trkpt lat="44.849202994841804" lon="11.49524408306127"><ele>10.5</ele><time>2026-04-23T09:53:01.999Z</time></trkpt><trkpt lat="44.84931331121211" lon="11.49534655456441"><ele>10.0</ele><time>2026-04-23T09:53:02.999Z</time></trkpt><trkpt lat="44.84942377670156" lon="11.495447643843013"><ele>9.5</ele><time>2026-04-23T09:53:03.999Z</time></trkpt><trkpt lat="44.84954373724839" lon="11.49555517834115"><ele>9.0</ele><time>2026-04-23T09:53:04.999Z</time></trkpt><trkpt lat="44.84966755746095" lon="11.49566319701489"><ele>8.666666666666666</ele><time>2026-04-23T09:53:05.999Z</time></trkpt><trkpt lat="44.849793071654375" lon="11.495776154198156"><ele>8.333333333333332</ele><time>2026-04-23T09:53:06.999Z</time></trkpt><trkpt lat="44.849931318492395" lon="11.495897780716817"><ele>8.0</ele><time>2026-04-23T09:53:07.999Z</time></trkpt><trkpt lat="44.85006962210746" lon="11.496020861100329"><ele>7.666666666666666</ele><time>2026-04-23T09:53:08.999Z</time></trkpt><trkpt lat="44.85021677918922" lon="11.496156542736948"><ele>7.333333333333334</ele><time>2026-04-23T09:53:09.999Z</time></trkpt><trkpt lat="44.850371768571996" lon="11.49629367942825"><ele>7.0</ele><time>2026-04-23T09:53:10.999Z</time></trkpt><trkpt lat="44.85053742229521" lon="11.496437472565212"><ele>7.0</ele><time>2026-04-23T09:53:11.999Z</time></trkpt><trkpt lat="44.850707566074846" lon="11.496575709246011"><ele>7.0</ele><time>2026-04-23T09:53:12.999Z</time></trkpt><trkpt lat="44.85087521337026" lon="11.496734869056393"><ele>7.0</ele><time>2026-04-23T09:53:13.999Z</time></trkpt><trkpt lat="44.85104765397358" lon="11.496897228339051"><ele>7.0</ele><time>2026-04-23T09:53:14.999Z</time></trkpt><trkpt lat="44.85121979011632" lon="11.497051377365139"><ele>7.0</ele><time>2026-04-23T09:53:15.999Z</time></trkpt><trkpt lat="44.851383019091166" lon="11.497192592775123"><ele>7.0</ele><time>2026-04-23T09:53:16.999Z</time></trkpt><trkpt lat="44.85154538213276" lon="11.497330218675271"><ele>7.0</ele><time>2026-04-23T09:53:17.999Z</time></trkpt><trkpt lat="44.85171140785146" lon="11.497484334838148"><ele>7.0</ele><time>2026-04-23T09:53:18.999Z</time></trkpt><trkpt lat="44.85187836245818" lon="11.497635897471428"><ele>7.0</ele><time>2026-04-23T09:53:19.999Z</time></trkpt><trkpt lat="44.852045379510436" lon="11.497781924401423"><ele>7.333333333333334</ele><time>2026-04-23T09:53:20.999Z</time></trkpt><trkpt lat="44.852217644805535" lon="11.497929568219991"><ele>7.666666666666666</ele><time>2026-04-23T09:53:21.999Z</time></trkpt><trkpt lat="44.852383888499446" lon="11.498080829390426"><ele>8.0</ele><time>2026-04-23T09:53:22.999Z</time></trkpt><trkpt lat="44.85255294474231" lon="11.498231543756015"><ele>8.333333333333332</ele><time>2026-04-23T09:53:23.999Z</time></trkpt><trkpt lat="44.85272631243289" lon="11.498383031999289"><ele>8.666666666666666</ele><time>2026-04-23T09:53:24.999Z</time></trkpt><trkpt lat="44.852901971252585" lon="11.498541635959016"><ele>9.0</ele><time>2026-04-23T09:53:25.999Z</time></trkpt><trkpt lat="44.853095281019215" lon="11.498709733249354"><ele>8.5</ele><time>2026-04-23T09:53:26.999Z</time></trkpt><trkpt lat="44.853300486435295" lon="11.498893971931725"><ele>8.0</ele><time>2026-04-23T09:53:27.999Z</time></trkpt><trkpt lat="44.85348650262574" lon="11.499064323293338"><ele>8.0</ele><time>2026-04-23T09:53:28.999Z</time></trkpt><trkpt lat="44.85365839708578" lon="11.499221990566431"><ele>8.0</ele><time>2026-04-23T09:53:29.999Z</time></trkpt><trkpt lat="44.85381950908191" lon="11.49936842244424"><ele>8.0</ele><time>2026-04-23T09:53:30.999Z</time></trkpt><trkpt lat="44.85397799992105" lon="11.499509057900244"><ele>8.0</ele><time>2026-04-23T09:53:31.999Z</time></trkpt><trkpt lat="44.85413694843122" lon="11.499648174655732"><ele>8.0</ele><time>2026-04-23T09:53:32.999Z</time></trkpt><trkpt lat="44.8542955542217" lon="11.49979373694189"><ele>8.0</ele><time>2026-04-23T09:53:33.999Z</time></trkpt><trkpt lat="44.854447099987034" lon="11.49993213477205"><ele>7.666666666666666</ele><time>2026-04-23T09:53:34.999Z</time></trkpt><trkpt lat="44.854586311409" lon="11.500061357923435"><ele>7.333333333333334</ele><time>2026-04-23T09:53:35.999Z</time></trkpt><trkpt lat="44.8547178535537" lon="11.500178970678151"><ele>7.0</ele><time>2026-04-23T09:53:36.999Z</time></trkpt><trkpt lat="44.85484454708702" lon="11.500291340881097"><ele>7.0</ele><time>2026-04-23T09:53:37.999Z</time></trkpt><trkpt lat="44.85496520978829" lon="11.500398994551349"><ele>7.0</ele><time>2026-04-23T09:53:38.999Z</time></trkpt><trkpt lat="44.85508381666143" lon="11.500503986422654"><ele>7.0</ele><time>2026-04-23T09:53:39.999Z</time></trkpt><trkpt lat="44.855198590197475" lon="11.500614684281961"><ele>7.0</ele><time>2026-04-23T09:53:40.999Z</time></trkpt><trkpt lat="44.85531206268775" lon="11.500714215012227"><ele>7.25</ele><time>2026-04-23T09:53:41.999Z</time></trkpt><trkpt lat="44.855426572525204" lon="11.50081364755042"><ele>7.5</ele><time>2026-04-23T09:53:42.999Z</time></trkpt><trkpt lat="44.85553803474889" lon="11.500914933555373"><ele>7.75</ele><time>2026-04-23T09:53:43.999Z</time></trkpt><trkpt lat="44.85564502710849" lon="11.501013097240799"><ele>8.0</ele><time>2026-04-23T09:53:44.999Z</time></trkpt><trkpt lat="44.85574526791042" lon="11.501101031055622"><ele>8.0</ele><time>2026-04-23T09:53:45.999Z</time></trkpt><trkpt lat="44.85583666436395" lon="11.501183184672389"><ele>8.0</ele><time>2026-04-23T09:53:46.999Z</time></trkpt><trkpt lat="44.85592967719321" lon="11.501267634835108"><ele>8.0</ele><time>2026-04-23T09:53:47.999Z</time></trkpt><trkpt lat="44.856030928597455" lon="11.50134726095375"><ele>8.0</ele><time>2026-04-23T09:53:48.999Z</time></trkpt><trkpt lat="44.85613171142302" lon="11.501441592032883"><ele>8.25</ele><time>2026-04-23T09:53:49.999Z</time></trkpt><trkpt lat="44.85623928045009" lon="11.501538824011906"><ele>8.5</ele><time>2026-04-23T09:53:50.999Z</time></trkpt><trkpt lat="44.856339238898634" lon="11.501649375296914"><ele>8.75</ele><time>2026-04-23T09:53:51.999Z</time></trkpt><trkpt lat="44.85643500118455" lon="11.50178141750564"><ele>9.0</ele><time>2026-04-23T09:53:52.999Z</time></trkpt><trkpt lat="44.85653506806495" lon="11.501934549615518"><ele>9.0</ele><time>2026-04-23T09:53:53.999Z</time></trkpt><trkpt lat="44.85663752351756" lon="11.502086296359218"><ele>9.0</ele><time>2026-04-23T09:53:54.999Z</time></trkpt><trkpt lat="44.856743695024264" lon="11.50224824929234"><ele>9.0</ele><time>2026-04-23T09:53:55.999Z</time></trkpt><trkpt lat="44.856850908542555" lon="11.50241822678332"><ele>9.0</ele><time>2026-04-23T09:53:56.999Z</time></trkpt><trkpt lat="44.85696349858546" lon="11.502588873579063"><ele>9.0</ele><time>2026-04-23T09:53:58Z</time></trkpt><trkpt lat="44.857072795757844" lon="11.502757841991732"><ele>9.0</ele><time>2026-04-23T09:53:59Z</time></trkpt><trkpt lat="44.85718405680367" lon="11.502928523709151"><ele>8.666666666666666</ele><time>2026-04-23T09:54:00Z</time></trkpt><trkpt lat="44.85729671953374" lon="11.503092288807132"><ele>8.333333333333332</ele><time>2026-04-23T09:54:01Z</time></trkpt><trkpt lat="44.857405881548914" lon="11.503259419714162"><ele>8.0</ele><time>2026-04-23T09:54:02Z</time></trkpt><trkpt lat="44.85751562063084" lon="11.503418513303659"><ele>8.25</ele><time>2026-04-23T09:54:03Z</time></trkpt><trkpt lat="44.857621835246846" lon="11.50357716156834"><ele>8.5</ele><time>2026-04-23T09:54:04Z</time></trkpt><trkpt lat="44.85771745420207" lon="11.503723644207147"><ele>8.75</ele><time>2026-04-23T09:54:05Z</time></trkpt><trkpt lat="44.85781171521275" lon="11.503872299458708"><ele>9.0</ele><time>2026-04-23T09:54:06Z</time></trkpt><trkpt lat="44.85790569598687" lon="11.504016933486053"><ele>9.0</ele><time>2026-04-23T09:54:07Z</time></trkpt><trkpt lat="44.857994296759806" lon="11.504153452123683"><ele>9.0</ele><time>2026-04-23T09:54:08Z</time></trkpt><trkpt lat="44.8580767334699" lon="11.504276748855865"><ele>9.0</ele><time>2026-04-23T09:54:09Z</time></trkpt><trkpt lat="44.8581550684089" lon="11.5043965519626"><ele>9.0</ele><time>2026-04-23T09:54:10Z</time></trkpt><trkpt lat="44.85823474586401" lon="11.504515362829483"><ele>9.0</ele><time>2026-04-23T09:54:11Z</time></trkpt><trkpt lat="44.85830650903315" lon="11.5046322160786"><ele>9.0</ele><time>2026-04-23T09:54:12Z</time></trkpt><trkpt lat="44.85838155196653" lon="11.504746844672262"><ele>9.0</ele><time>2026-04-23T09:54:13Z</time></trkpt><trkpt lat="44.85845361574907" lon="11.50485783421859"><ele>9.0</ele><time>2026-04-23T09:54:14Z</time></trkpt><trkpt lat="44.85852537919002" lon="11.50496235608597"><ele>9.0</ele><time>2026-04-23T09:54:15Z</time></trkpt><trkpt lat="44.85858818468277" lon="11.505065370872613"><ele>9.0</ele><time>2026-04-23T09:54:16Z</time></trkpt><trkpt lat="44.85864170412538" lon="11.505156015696658"><ele>9.0</ele><time>2026-04-23T09:54:17Z</time></trkpt><trkpt lat="44.858702099343276" lon="11.505253148895132"><ele>9.0</ele><time>2026-04-23T09:54:18Z</time></trkpt><trkpt lat="44.858761852391105" lon="11.50534534497981"><ele>9.0</ele><time>2026-04-23T09:54:19Z</time></trkpt><trkpt lat="44.8588251991642" lon="11.505437719322018"><ele>9.0</ele><time>2026-04-23T09:54:20Z</time></trkpt><trkpt lat="44.858900302053385" lon="11.505532100232559"><ele>9.0</ele><time>2026-04-23T09:54:21Z</time></trkpt><trkpt lat="44.85897297445159" lon="11.505648343716464"><ele>9.0</ele><time>2026-04-23T09:54:22Z</time></trkpt><trkpt lat="44.85905567533326" lon="11.505768512270713"><ele>9.0</ele><time>2026-04-23T09:54:23Z</time></trkpt><trkpt lat="44.859137583651695" lon="11.505903811462563"><ele>9.0</ele><time>2026-04-23T09:54:24Z</time></trkpt><trkpt lat="44.8592017509531" lon="11.506059630486089"><ele>9.0</ele><time>2026-04-23T09:54:25Z</time></trkpt><trkpt lat="44.85924608406129" lon="11.506233649458707"><ele>9.0</ele><time>2026-04-23T09:54:26Z</time></trkpt><trkpt lat="44.8592684721949" lon="11.50642931067446"><ele>9.0</ele><time>2026-04-23T09:54:27Z</time></trkpt><trkpt lat="44.859265446609065" lon="11.506624355295301"><ele>9.0</ele><time>2026-04-23T09:54:28Z</time></trkpt><trkpt lat="44.85924531131102" lon="11.506806619683939"><ele>8.8</ele><time>2026-04-23T09:54:29Z</time></trkpt><trkpt lat="44.85921484223609" lon="11.506968142943814"><ele>8.600000000000001</ele><time>2026-04-23T09:54:30Z</time></trkpt><trkpt lat="44.85919877177936" lon="11.507119103273366"><ele>8.4</ele><time>2026-04-23T09:54:31Z</time></trkpt><trkpt lat="44.859157175451905" lon="11.507247547679926"><ele>8.200000000000001</ele><time>2026-04-23T09:54:32Z</time></trkpt><trkpt lat="44.85916328386336" lon="11.507373664804085"><ele>8.0</ele><time>2026-04-23T09:54:33Z</time></trkpt><trkpt lat="44.85919867035151" lon="11.507501476933673"><ele>8.200000000000001</ele><time>2026-04-23T09:54:34Z</time></trkpt><trkpt lat="44.859255072464585" lon="11.507612346034598"><ele>8.4</ele><time>2026-04-23T09:54:35Z</time></trkpt><trkpt lat="44.859339068277116" lon="11.50767014899192"><ele>8.600000000000001</ele><time>2026-04-23T09:54:36Z</time></trkpt><trkpt lat="44.85943169328837" lon="11.50769101227898"><ele>8.8</ele><time>2026-04-23T09:54:37Z</time></trkpt><trkpt lat="44.85951759552996" lon="11.50766287766328"><ele>9.0</ele><time>2026-04-23T09:54:38Z</time></trkpt><trkpt lat="44.85959425820273" lon="11.507590929816217"><ele>9.0</ele><time>2026-04-23T09:54:39Z</time></trkpt><trkpt lat="44.85965181744505" lon="11.507477070838963"><ele>9.0</ele><time>2026-04-23T09:54:40Z</time></trkpt><trkpt lat="44.85968104888009" lon="11.50733881509035"><ele>9.0</ele><time>2026-04-23T09:54:41Z</time></trkpt><trkpt lat="44.85970862587312" lon="11.507228627587514"><ele>9.0</ele><time>2026-04-23T09:54:42Z</time></trkpt><trkpt lat="44.85969739514843" lon="11.507061301984507"><ele>9.0</ele><time>2026-04-23T09:54:43Z</time></trkpt><trkpt lat="44.859713409757234" lon="11.506904218735652"><ele>8.666666666666666</ele><time>2026-04-23T09:54:44Z</time></trkpt><trkpt lat="44.85979355799659" lon="11.506767151715657"><ele>8.333333333333332</ele><time>2026-04-23T09:54:45Z</time></trkpt><trkpt lat="44.8598886165957" lon="11.506588972581971"><ele>8.0</ele><time>2026-04-23T09:54:46Z</time></trkpt><trkpt lat="44.859983299765894" lon="11.506378112706656"><ele>8.0</ele><time>2026-04-23T09:54:47Z</time></trkpt><trkpt lat="44.86011003504846" lon="11.50614211238447"><ele>8.0</ele><time>2026-04-23T09:54:48Z</time></trkpt><trkpt lat="44.86026274020163" lon="11.505853905498288"><ele>8.0</ele><time>2026-04-23T09:54:49Z</time></trkpt><trkpt lat="44.86044431401408" lon="11.505520412969398"><ele>8.0</ele><time>2026-04-23T09:54:50Z</time></trkpt><trkpt lat="44.860651157188705" lon="11.505146934362559"><ele>8.0</ele><time>2026-04-23T09:54:51Z</time></trkpt><trkpt lat="44.86085458287952" lon="11.504754738124378"><ele>8.0</ele><time>2026-04-23T09:54:52Z</time></trkpt><trkpt lat="44.861078116056916" lon="11.504335174608862"><ele>8.0</ele><time>2026-04-23T09:54:53Z</time></trkpt><trkpt lat="44.86130401750522" lon="11.503918453137343"><ele>8.0</ele><time>2026-04-23T09:54:54Z</time></trkpt><trkpt lat="44.8614860261293" lon="11.50357123169085"><ele>8.0</ele><time>2026-04-23T09:54:55Z</time></trkpt><trkpt lat="44.861646716273235" lon="11.503257984472528"><ele>8.0</ele><time>2026-04-23T09:54:55.999Z</time></trkpt><trkpt lat="44.86179355010292" lon="11.502976392811942"><ele>7.666666666666666</ele><time>2026-04-23T09:54:56.999Z</time></trkpt><trkpt lat="44.86193352463749" lon="11.5027195861461"><ele>7.333333333333334</ele><time>2026-04-23T09:54:57.999Z</time></trkpt><trkpt lat="44.862062414686015" lon="11.502481901427828"><ele>7.0</ele><time>2026-04-23T09:54:58.999Z</time></trkpt><trkpt lat="44.86218242597522" lon="11.502258520990829"><ele>6.666666666666667</ele><time>2026-04-23T09:54:59.999Z</time></trkpt><trkpt lat="44.86229697257114" lon="11.502036143334005"><ele>6.333333333333334</ele><time>2026-04-23T09:55:00.999Z</time></trkpt><trkpt lat="44.86241513079378" lon="11.501821248831135"><ele>6.0</ele><time>2026-04-23T09:55:01.999Z</time></trkpt><trkpt lat="44.86255991224018" lon="11.501646521029542"><ele>6.666666666666666</ele><time>2026-04-23T09:55:02.999Z</time></trkpt><trkpt lat="44.86270751692846" lon="11.501473842122405"><ele>7.333333333333333</ele><time>2026-04-23T09:55:03.999Z</time></trkpt><trkpt lat="44.862871595527864" lon="11.50132717953984"><ele>8.0</ele><time>2026-04-23T09:55:04.999Z</time></trkpt><trkpt lat="44.86305618195175" lon="11.501200792783143"><ele>8.0</ele><time>2026-04-23T09:55:05.999Z</time></trkpt><trkpt lat="44.86324374727778" lon="11.501095214200536"><ele>8.0</ele><time>2026-04-23T09:55:06.999Z</time></trkpt><trkpt lat="44.863416322739816" lon="11.501025015652786"><ele>8.0</ele><time>2026-04-23T09:55:07.999Z</time></trkpt><trkpt lat="44.86358942356423" lon="11.50097693142338"><ele>8.5</ele><time>2026-04-23T09:55:08.999Z</time></trkpt><trkpt lat="44.86375193821688" lon="11.500961820060272"><ele>9.0</ele><time>2026-04-23T09:55:09.999Z</time></trkpt><trkpt lat="44.86389541825068" lon="11.500970752906133"><ele>9.5</ele><time>2026-04-23T09:55:10.999Z</time></trkpt><trkpt lat="44.86400926537089" lon="11.500982258827234"><ele>10.0</ele><time>2026-04-23T09:55:11.999Z</time></trkpt><trkpt lat="44.86410047650622" lon="11.500996263119147"><ele>10.0</ele><time>2026-04-23T09:55:12.999Z</time></trkpt><trkpt lat="44.864174679469144" lon="11.501007278460994"><ele>10.0</ele><time>2026-04-23T09:55:13.999Z</time></trkpt><trkpt lat="44.86427296430628" lon="11.501021947100691"><ele>10.0</ele><time>2026-04-23T09:55:15.999Z</time></trkpt><trkpt lat="44.864367847390554" lon="11.50101965277078"><ele>10.0</ele><time>2026-04-23T09:55:42.999Z</time></trkpt><trkpt lat="44.86444242106007" lon="11.501029314217226"><ele>10.0</ele><time>2026-04-23T09:55:43.999Z</time></trkpt><trkpt lat="44.86453349622984" lon="11.501037811987436"><ele>10.0</ele><time>2026-04-23T09:55:44.999Z</time></trkpt><trkpt lat="44.864645786138496" lon="11.501057278967663"><ele>9.5</ele><time>2026-04-23T09:55:45.999Z</time></trkpt><trkpt lat="44.86476965366057" lon="11.501068484243126"><ele>9.0</ele><time>2026-04-23T09:55:46.999Z</time></trkpt><trkpt lat="44.86491664652313" lon="11.50108714158149"><ele>8.5</ele><time>2026-04-23T09:55:47.999Z</time></trkpt><trkpt lat="44.86507566836227" lon="11.501119301201456"><ele>8.0</ele><time>2026-04-23T09:55:48.999Z</time></trkpt><trkpt lat="44.865241099419244" lon="11.501173984398715"><ele>8.0</ele><time>2026-04-23T09:55:49.999Z</time></trkpt><trkpt lat="44.86541607509088" lon="11.501258374163761"><ele>8.0</ele><time>2026-04-23T09:55:50.999Z</time></trkpt><trkpt lat="44.86562411189556" lon="11.501369115114747"><ele>8.0</ele><time>2026-04-23T09:55:51.999Z</time></trkpt><trkpt lat="44.86583309788533" lon="11.501486048929245"><ele>7.0</ele><time>2026-04-23T09:55:52.999Z</time></trkpt><trkpt lat="44.86609169869285" lon="11.50161656235825"><ele>6.0</ele><time>2026-04-23T09:55:53.999Z</time></trkpt><trkpt lat="44.86637898355377" lon="11.50176551791401"><ele>6.0</ele><time>2026-04-23T09:55:54.999Z</time></trkpt><trkpt lat="44.86669522781746" lon="11.50193363276374"><ele>6.0</ele><time>2026-04-23T09:55:55.999Z</time></trkpt><trkpt lat="44.86704234295163" lon="11.502114251119664"><ele>6.5</ele><time>2026-04-23T09:55:56.999Z</time></trkpt><trkpt lat="44.86740113272368" lon="11.502301080766554"><ele>7.0</ele><time>2026-04-23T09:55:57.999Z</time></trkpt><trkpt lat="44.867716343796516" lon="11.502468264369641"><ele>7.0</ele><time>2026-04-23T09:55:58.999Z</time></trkpt><trkpt lat="44.8679810204274" lon="11.50260712743131"><ele>7.0</ele><time>2026-04-23T09:55:59.999Z</time></trkpt><trkpt lat="44.86821760635843" lon="11.502735111562227"><ele>7.0</ele><time>2026-04-23T09:56:00.999Z</time></trkpt><trkpt lat="44.868437403079646" lon="11.502851867611971"><ele>7.0</ele><time>2026-04-23T09:56:01.999Z</time></trkpt><trkpt lat="44.86863869817604" lon="11.502957354792716"><ele>6.666666666666667</ele><time>2026-04-23T09:56:02.999Z</time></trkpt><trkpt lat="44.86882662416397" lon="11.503052655402252"><ele>6.333333333333334</ele><time>2026-04-23T09:56:04Z</time></trkpt><trkpt lat="44.868998511841035" lon="11.503146869889967"><ele>6.0</ele><time>2026-04-23T09:56:05Z</time></trkpt><trkpt lat="44.86916217575462" lon="11.503232146753163"><ele>6.666666666666666</ele><time>2026-04-23T09:56:06Z</time></trkpt><trkpt lat="44.86933141897633" lon="11.503309893991267"><ele>7.333333333333333</ele><time>2026-04-23T09:56:07Z</time></trkpt><trkpt lat="44.86950748826922" lon="11.503374777301639"><ele>8.0</ele><time>2026-04-23T09:56:08Z</time></trkpt><trkpt lat="44.86968957362485" lon="11.503424813480311"><ele>8.0</ele><time>2026-04-23T09:56:09Z</time></trkpt><trkpt lat="44.8698751757555" lon="11.50345618043482"><ele>8.0</ele><time>2026-04-23T09:56:10Z</time></trkpt><trkpt lat="44.87005289780411" lon="11.503470949211478"><ele>8.0</ele><time>2026-04-23T09:56:11Z</time></trkpt><trkpt lat="44.87023091391678" lon="11.503470107407423"><ele>8.333333333333332</ele><time>2026-04-23T09:56:12Z</time></trkpt><trkpt lat="44.870414232342384" lon="11.503460854756742"><ele>8.666666666666666</ele><time>2026-04-23T09:56:13Z</time></trkpt><trkpt lat="44.87059814071231" lon="11.503439771992934"><ele>9.0</ele><time>2026-04-23T09:56:14Z</time></trkpt><trkpt lat="44.870780605239425" lon="11.503413810861906"><ele>8.666666666666666</ele><time>2026-04-23T09:56:15Z</time></trkpt><trkpt lat="44.870950865317305" lon="11.503387320285883"><ele>8.333333333333332</ele><time>2026-04-23T09:56:16Z</time></trkpt><trkpt lat="44.87110014065299" lon="11.503356703825018"><ele>8.0</ele><time>2026-04-23T09:56:17Z</time></trkpt><trkpt lat="44.87124060218916" lon="11.50332253523767"><ele>8.0</ele><time>2026-04-23T09:56:18Z</time></trkpt><trkpt lat="44.87136546989722" lon="11.503270784371058"><ele>8.0</ele><time>2026-04-23T09:56:19Z</time></trkpt><trkpt lat="44.87147397079703" lon="11.503206900474842"><ele>8.0</ele><time>2026-04-23T09:56:20Z</time></trkpt><trkpt lat="44.87156806115797" lon="11.503140853788116"><ele>8.0</ele><time>2026-04-23T09:56:21Z</time></trkpt><trkpt lat="44.871656007724425" lon="11.503076690628449"><ele>7.999999999999999</ele><time>2026-04-23T09:56:22Z</time></trkpt><trkpt lat="44.87173543563702" lon="11.503009645361045"><ele>8.0</ele><time>2026-04-23T09:56:23Z</time></trkpt><trkpt lat="44.871814358087455" lon="11.502951516056847"><ele>8.0</ele><time>2026-04-23T09:56:24Z</time></trkpt><trkpt lat="44.871866758499415" lon="11.502866826378764"><ele>8.0</ele><time>2026-04-23T09:56:25Z</time></trkpt><trkpt lat="44.87192395770839" lon="11.502826591128986"><ele>7.999999999999999</ele><time>2026-04-23T09:56:26Z</time></trkpt><trkpt lat="44.871993213060584" lon="11.502810637839618"><ele>8.0</ele><time>2026-04-23T09:56:27Z</time></trkpt><trkpt lat="44.8720635577669" lon="11.503010107840996"><ele>7.6000000000000005</ele><time>2026-04-23T09:56:29Z</time></trkpt><trkpt lat="44.87205948756407" lon="11.503105937684778"><ele>7.200000000000001</ele><time>2026-04-23T09:56:30Z</time></trkpt><trkpt lat="44.87204573672923" lon="11.503226534399797"><ele>6.8</ele><time>2026-04-23T09:56:31Z</time></trkpt><trkpt lat="44.872022028208086" lon="11.503373168032914"><ele>6.4</ele><time>2026-04-23T09:56:32Z</time></trkpt><trkpt lat="44.8719831985606" lon="11.503516150178"><ele>6.0</ele><time>2026-04-23T09:56:33Z</time></trkpt><trkpt lat="44.871933300441306" lon="11.503650123652552"><ele>5.75</ele><time>2026-04-23T09:56:34Z</time></trkpt><trkpt lat="44.871873815532425" lon="11.503793598871455"><ele>5.5</ele><time>2026-04-23T09:56:35Z</time></trkpt><trkpt lat="44.871814844825465" lon="11.503952846303704"><ele>5.25</ele><time>2026-04-23T09:56:36Z</time></trkpt><trkpt lat="44.87175187622651" lon="11.504120465937271"><ele>5.0</ele><time>2026-04-23T09:56:37Z</time></trkpt><trkpt lat="44.87168884467559" lon="11.504283255233293"><ele>5.8</ele><time>2026-04-23T09:56:38Z</time></trkpt><trkpt lat="44.87162711278884" lon="11.504436098020616"><ele>6.6</ele><time>2026-04-23T09:56:39Z</time></trkpt><trkpt lat="44.871573302561195" lon="11.504575103919898"><ele>7.4</ele><time>2026-04-23T09:56:40Z</time></trkpt><trkpt lat="44.871514027114394" lon="11.504694878839885"><ele>8.2</ele><time>2026-04-23T09:56:41Z</time></trkpt><trkpt lat="44.87146658922211" lon="11.504778682993377"><ele>9.0</ele><time>2026-04-23T09:56:42Z</time></trkpt><trkpt lat="44.87140309880889" lon="11.504886940469111"><ele>9.0</ele><time>2026-04-23T09:56:44Z</time></trkpt><trkpt lat="44.87136385406072" lon="11.504975268093489"><ele>9.0</ele><time>2026-04-23T09:56:47Z</time></trkpt><trkpt lat="44.87144859976093" lon="11.50503573408897"><ele>9.0</ele><time>2026-04-23T09:56:48Z</time></trkpt><trkpt lat="44.871595976445725" lon="11.505060774996682"><ele>9.0</ele><time>2026-04-23T09:56:50Z</time></trkpt><trkpt lat="44.87170059535289" lon="11.505079966125484"><ele>9.0</ele><time>2026-04-23T09:56:51Z</time></trkpt><trkpt lat="44.871810174304485" lon="11.505101526831286"><ele>8.5</ele><time>2026-04-23T09:56:52Z</time></trkpt><trkpt lat="44.871918364434826" lon="11.505128043733258"><ele>8.0</ele><time>2026-04-23T09:56:53Z</time></trkpt><trkpt lat="44.872032037307264" lon="11.505155192968711"><ele>7.5</ele><time>2026-04-23T09:56:54Z</time></trkpt><trkpt lat="44.87215731791896" lon="11.505192320245735"><ele>7.0</ele><time>2026-04-23T09:56:55Z</time></trkpt><trkpt lat="44.87229163489373" lon="11.505221862920818"><ele>7.0</ele><time>2026-04-23T09:56:56Z</time></trkpt><trkpt lat="44.87243102319213" lon="11.505260765161328"><ele>7.0</ele><time>2026-04-23T09:56:57Z</time></trkpt><trkpt lat="44.87256942954878" lon="11.505293882305187"><ele>7.0</ele><time>2026-04-23T09:56:58Z</time></trkpt><trkpt lat="44.87271449548359" lon="11.50531255049693"><ele>7.0</ele><time>2026-04-23T09:56:59Z</time></trkpt><trkpt lat="44.87287186200861" lon="11.505353692468686"><ele>7.0</ele><time>2026-04-23T09:57:00Z</time></trkpt><trkpt lat="44.873023049441315" lon="11.505392798999589"><ele>7.0</ele><time>2026-04-23T09:57:01Z</time></trkpt><trkpt lat="44.87318363651296" lon="11.50543569817"><ele>7.0</ele><time>2026-04-23T09:57:02Z</time></trkpt><trkpt lat="44.87334500500581" lon="11.505465617365266"><ele>6.5</ele><time>2026-04-23T09:57:02.999Z</time></trkpt><trkpt lat="44.873487936840974" lon="11.50550133932425"><ele>6.0</ele><time>2026-04-23T09:57:03.999Z</time></trkpt><trkpt lat="44.87361678074989" lon="11.50553500850487"><ele>5.5</ele><time>2026-04-23T09:57:04.999Z</time></trkpt><trkpt lat="44.8737277702701" lon="11.505561822486403"><ele>5.0</ele><time>2026-04-23T09:57:05.999Z</time></trkpt><trkpt lat="44.873829131314835" lon="11.50558269649952"><ele>5.0</ele><time>2026-04-23T09:57:06.999Z</time></trkpt><trkpt lat="44.873928602456076" lon="11.505615772408612"><ele>5.0</ele><time>2026-04-23T09:57:07.999Z</time></trkpt><trkpt lat="44.87403039649231" lon="11.505641148056759"><ele>5.0</ele><time>2026-04-23T09:57:08.999Z</time></trkpt><trkpt lat="44.874146860287965" lon="11.505667872497753"><ele>5.0</ele><time>2026-04-23T09:57:09.999Z</time></trkpt><trkpt lat="44.87427332457834" lon="11.5056979069609"><ele>5.333333333333334</ele><time>2026-04-23T09:57:10.999Z</time></trkpt><trkpt lat="44.87440958214815" lon="11.505729793719162"><ele>5.666666666666667</ele><time>2026-04-23T09:57:11.999Z</time></trkpt><trkpt lat="44.87456367002139" lon="11.505768391967372"><ele>6.0</ele><time>2026-04-23T09:57:12.999Z</time></trkpt><trkpt lat="44.87472230687786" lon="11.505806877823346"><ele>6.0</ele><time>2026-04-23T09:57:13.999Z</time></trkpt><trkpt lat="44.874889942928064" lon="11.505848093277072"><ele>6.0</ele><time>2026-04-23T09:57:14.999Z</time></trkpt><trkpt lat="44.87506502060484" lon="11.5058915209169"><ele>6.0</ele><time>2026-04-23T09:57:15.999Z</time></trkpt><trkpt lat="44.87524390678554" lon="11.50593597118865"><ele>5.666666666666667</ele><time>2026-04-23T09:57:16.999Z</time></trkpt><trkpt lat="44.87543054985141" lon="11.505982320513791"><ele>5.333333333333334</ele><time>2026-04-23T09:57:17.999Z</time></trkpt><trkpt lat="44.87562309130601" lon="11.5060301938043"><ele>5.0</ele><time>2026-04-23T09:57:18.999Z</time></trkpt><trkpt lat="44.87582290317031" lon="11.506082230717466"><ele>5.333333333333334</ele><time>2026-04-23T09:57:19.999Z</time></trkpt><trkpt lat="44.8760229027979" lon="11.506133406282453"><ele>5.666666666666667</ele><time>2026-04-23T09:57:20.999Z</time></trkpt><trkpt lat="44.87622915308078" lon="11.506186239125523"><ele>6.0</ele><time>2026-04-23T09:57:21.999Z</time></trkpt><trkpt lat="44.87645073231753" lon="11.506233179297867"><ele>6.0</ele><time>2026-04-23T09:57:22.999Z</time></trkpt><trkpt lat="44.87667398806456" lon="11.506286649218106"><ele>6.0</ele><time>2026-04-23T09:57:23.999Z</time></trkpt><trkpt lat="44.87689621038836" lon="11.50633985677695"><ele>6.0</ele><time>2026-04-23T09:57:24.999Z</time></trkpt><trkpt lat="44.87712572972873" lon="11.506393184652943"><ele>6.0</ele><time>2026-04-23T09:57:25.999Z</time></trkpt><trkpt lat="44.87735709054772" lon="11.506455414058635"><ele>6.0</ele><time>2026-04-23T09:57:26.999Z</time></trkpt><trkpt lat="44.877594024579196" lon="11.506511718477707"><ele>6.0</ele><time>2026-04-23T09:57:27.999Z</time></trkpt><trkpt lat="44.87783218214985" lon="11.50656702498059"><ele>6.5</ele><time>2026-04-23T09:57:28.999Z</time></trkpt><trkpt lat="44.878073532532575" lon="11.50662162458269"><ele>7.0</ele><time>2026-04-23T09:57:29.999Z</time></trkpt><trkpt lat="44.878313096526114" lon="11.506684701735223"><ele>7.0</ele><time>2026-04-23T09:57:30.999Z</time></trkpt><trkpt lat="44.87855764543276" lon="11.50674020644483"><ele>7.0</ele><time>2026-04-23T09:57:31.999Z</time></trkpt><trkpt lat="44.87880291185061" lon="11.506799566142226"><ele>7.0</ele><time>2026-04-23T09:57:32.999Z</time></trkpt><trkpt lat="44.87904629383683" lon="11.506859032062252"><ele>7.0</ele><time>2026-04-23T09:57:33.999Z</time></trkpt><trkpt lat="44.879290538287165" lon="11.506920110391334"><ele>7.5</ele><time>2026-04-23T09:57:34.999Z</time></trkpt><trkpt lat="44.87953496240421" lon="11.506979079381281"><ele>8.0</ele><time>2026-04-23T09:57:35.999Z</time></trkpt><trkpt lat="44.87977944409826" lon="11.507040541672128"><ele>7.5</ele><time>2026-04-23T09:57:36.999Z</time></trkpt><trkpt lat="44.88002245623557" lon="11.507099761294084"><ele>7.0</ele><time>2026-04-23T09:57:37.999Z</time></trkpt><trkpt lat="44.88025028884849" lon="11.50715106003227"><ele>6.333333333333334</ele><time>2026-04-23T09:57:38.999Z</time></trkpt><trkpt lat="44.88046014582095" lon="11.507200089902945"><ele>5.666666666666667</ele><time>2026-04-23T09:57:39.999Z</time></trkpt><trkpt lat="44.880659878156735" lon="11.507248841138418"><ele>5.0</ele><time>2026-04-23T09:57:40.999Z</time></trkpt><trkpt lat="44.880854299012746" lon="11.507293474275084"><ele>4.666666666666667</ele><time>2026-04-23T09:57:41.999Z</time></trkpt><trkpt lat="44.88103900410451" lon="11.507336108469554"><ele>4.333333333333333</ele><time>2026-04-23T09:57:42.999Z</time></trkpt><trkpt lat="44.88121594887152" lon="11.507375932022349"><ele>4.0</ele><time>2026-04-23T09:57:43.999Z</time></trkpt><trkpt lat="44.88138100494301" lon="11.507419921422066"><ele>4.0</ele><time>2026-04-23T09:57:44.999Z</time></trkpt><trkpt lat="44.88153948963388" lon="11.50745907148216"><ele>4.0</ele><time>2026-04-23T09:57:45.999Z</time></trkpt><trkpt lat="44.88168747849182" lon="11.507497196822928"><ele>4.0</ele><time>2026-04-23T09:57:46.999Z</time></trkpt><trkpt lat="44.881828630082296" lon="11.507538197800585"><ele>4.2</ele><time>2026-04-23T09:57:47.999Z</time></trkpt><trkpt lat="44.88195718057581" lon="11.50757424501472"><ele>4.4</ele><time>2026-04-23T09:57:48.999Z</time></trkpt><trkpt lat="44.88207210946628" lon="11.507603462422347"><ele>4.6</ele><time>2026-04-23T09:57:49.999Z</time></trkpt><trkpt lat="44.88217914360496" lon="11.507625279728726"><ele>4.8</ele><time>2026-04-23T09:57:50.999Z</time></trkpt><trkpt lat="44.88226915314621" lon="11.507647224193365"><ele>5.0</ele><time>2026-04-23T09:57:51.999Z</time></trkpt><trkpt lat="44.88235820040738" lon="11.507668704994595"><ele>5.0</ele><time>2026-04-23T09:57:52.999Z</time></trkpt><trkpt lat="44.88246357335642" lon="11.507696946845542"><ele>5.0</ele><time>2026-04-23T09:57:53.999Z</time></trkpt><trkpt lat="44.882581651504516" lon="11.50772213185803"><ele>5.0</ele><time>2026-04-23T09:57:54.999Z</time></trkpt><trkpt lat="44.88270921310435" lon="11.507750811375383"><ele>5.0</ele><time>2026-04-23T09:57:55.999Z</time></trkpt><trkpt lat="44.88285108674454" lon="11.507785745816067"><ele>5.0</ele><time>2026-04-23T09:57:56.999Z</time></trkpt><trkpt lat="44.882988225295094" lon="11.507819728558372"><ele>5.0</ele><time>2026-04-23T09:57:57.999Z</time></trkpt><trkpt lat="44.88313481254746" lon="11.50785296976621"><ele>5.0</ele><time>2026-04-23T09:57:58.999Z</time></trkpt><trkpt lat="44.88328300081834" lon="11.507890314852844"><ele>5.0</ele><time>2026-04-23T09:57:59.999Z</time></trkpt><trkpt lat="44.88343376317178" lon="11.507925962520464"><ele>6.0</ele><time>2026-04-23T09:58:00.999Z</time></trkpt><trkpt lat="44.883582709406966" lon="11.507977728127635"><ele>7.0</ele><time>2026-04-23T09:58:01.999Z</time></trkpt><trkpt lat="44.883721997461635" lon="11.5080281696815"><ele>8.0</ele><time>2026-04-23T09:58:02.999Z</time></trkpt><trkpt lat="44.883856049817496" lon="11.50807607178094"><ele>9.0</ele><time>2026-04-23T09:58:03.999Z</time></trkpt><trkpt lat="44.88398955615364" lon="11.50810658627387"><ele>9.0</ele><time>2026-04-23T09:58:04.999Z</time></trkpt><trkpt lat="44.884125219693566" lon="11.508113409607489"><ele>9.0</ele><time>2026-04-23T09:58:05.999Z</time></trkpt><trkpt lat="44.88425575734643" lon="11.508119529034808"><ele>9.0</ele><time>2026-04-23T09:58:06.999Z</time></trkpt><trkpt lat="44.88437896208826" lon="11.508123066340298"><ele>9.0</ele><time>2026-04-23T09:58:07.999Z</time></trkpt><trkpt lat="44.88449268374432" lon="11.508124439345476"><ele>9.2</ele><time>2026-04-23T09:58:08.999Z</time></trkpt><trkpt lat="44.88459649885917" lon="11.508131916098757"><ele>9.4</ele><time>2026-04-23T09:58:10Z</time></trkpt><trkpt lat="44.88469352486797" lon="11.50815605214543"><ele>9.6</ele><time>2026-04-23T09:58:11Z</time></trkpt><trkpt lat="44.88479240806314" lon="11.50818299709906"><ele>9.8</ele><time>2026-04-23T09:58:12Z</time></trkpt><trkpt lat="44.88489918580097" lon="11.508211628753477"><ele>10.0</ele><time>2026-04-23T09:58:13Z</time></trkpt><trkpt lat="44.88499302109223" lon="11.508236917617085"><ele>10.0</ele><time>2026-04-23T09:58:14Z</time></trkpt><trkpt lat="44.88507897951704" lon="11.50826457521291"><ele>10.0</ele><time>2026-04-23T09:58:16Z</time></trkpt><trkpt lat="44.885161350445266" lon="11.508284353152149"><ele>10.0</ele><time>2026-04-23T09:58:25Z</time></trkpt><trkpt lat="44.885257559041825" lon="11.508314547782165"><ele>10.0</ele><time>2026-04-23T09:58:27Z</time></trkpt><trkpt lat="44.88538605563739" lon="11.508359227189704"><ele>10.0</ele><time>2026-04-23T09:58:29Z</time></trkpt><trkpt lat="44.88546985306823" lon="11.508387254156059"><ele>9.2</ele><time>2026-04-23T09:58:30Z</time></trkpt><trkpt lat="44.88554686218234" lon="11.508414878317884"><ele>8.4</ele><time>2026-04-23T09:58:31Z</time></trkpt><trkpt lat="44.88563578094749" lon="11.50844108084075"><ele>7.6</ele><time>2026-04-23T09:58:32Z</time></trkpt><trkpt lat="44.8857307185736" lon="11.50846852892629"><ele>6.8</ele><time>2026-04-23T09:58:33Z</time></trkpt><trkpt lat="44.88582758136704" lon="11.508496792663308"><ele>6.0</ele><time>2026-04-23T09:58:34Z</time></trkpt><trkpt lat="44.885913320685425" lon="11.508522622413262"><ele>6.0</ele><time>2026-04-23T09:58:35Z</time></trkpt><trkpt lat="44.885984329623675" lon="11.508547693276695"><ele>6.0</ele><time>2026-04-23T09:58:36Z</time></trkpt><trkpt lat="44.88608978897686" lon="11.508593822932468"><ele>6.0</ele><time>2026-04-23T09:58:38Z</time></trkpt><trkpt lat="44.88619454062594" lon="11.50867520565592"><ele>6.0</ele><time>2026-04-23T09:58:40Z</time></trkpt><trkpt lat="44.886259428264104" lon="11.508687142482867"><ele>6.0</ele><time>2026-04-23T09:58:41Z</time></trkpt><trkpt lat="44.88634399963704" lon="11.508660980381597"><ele>6.0</ele><time>2026-04-23T09:58:42Z</time></trkpt><trkpt lat="44.88644470248218" lon="11.508647162188021"><ele>6.0</ele><time>2026-04-23T09:58:43Z</time></trkpt><trkpt lat="44.88655934506015" lon="11.508677479358159"><ele>6.0</ele><time>2026-04-23T09:58:44Z</time></trkpt><trkpt lat="44.88668187820501" lon="11.508719257197788"><ele>6.0</ele><time>2026-04-23T09:58:45Z</time></trkpt><trkpt lat="44.88680277048499" lon="11.50875016938422"><ele>5.5</ele><time>2026-04-23T09:58:46Z</time></trkpt><trkpt lat="44.88692822971991" lon="11.508780305458322"><ele>5.0</ele><time>2026-04-23T09:58:47Z</time></trkpt><trkpt lat="44.88704361105299" lon="11.508814974863869"><ele>4.5</ele><time>2026-04-23T09:58:48Z</time></trkpt><trkpt lat="44.887150992230616" lon="11.508849799033207"><ele>4.0</ele><time>2026-04-23T09:58:49Z</time></trkpt><trkpt lat="44.88724914650314" lon="11.50887608731868"><ele>4.0</ele><time>2026-04-23T09:58:50Z</time></trkpt><trkpt lat="44.88733922644281" lon="11.508898150952987"><ele>4.0</ele><time>2026-04-23T09:58:51Z</time></trkpt><trkpt lat="44.88742404198059" lon="11.508919754287707"><ele>4.0</ele><time>2026-04-23T09:58:52Z</time></trkpt><trkpt lat="44.88752826981606" lon="11.508942114164869"><ele>4.0</ele><time>2026-04-23T09:58:53Z</time></trkpt><trkpt lat="44.887646503303344" lon="11.508972738531282"><ele>4.0</ele><time>2026-04-23T09:58:54Z</time></trkpt><trkpt lat="44.88777949179307" lon="11.5089975862986"><ele>4.0</ele><time>2026-04-23T09:58:55Z</time></trkpt><trkpt lat="44.88792162402842" lon="11.509032576576391"><ele>4.0</ele><time>2026-04-23T09:58:56Z</time></trkpt><trkpt lat="44.8880847043353" lon="11.509063652667672"><ele>4.0</ele><time>2026-04-23T09:58:57Z</time></trkpt><trkpt lat="44.888250183841414" lon="11.50910337319197"><ele>4.0</ele><time>2026-04-23T09:58:58Z</time></trkpt><trkpt lat="44.88841988743428" lon="11.509144045414025"><ele>4.0</ele><time>2026-04-23T09:58:59Z</time></trkpt><trkpt lat="44.88859677604421" lon="11.509187395675363"><ele>4.0</ele><time>2026-04-23T09:59:00Z</time></trkpt><trkpt lat="44.88878004050429" lon="11.509231432751953"><ele>4.666666666666666</ele><time>2026-04-23T09:59:01Z</time></trkpt><trkpt lat="44.88896541450901" lon="11.509279106810995"><ele>5.333333333333333</ele><time>2026-04-23T09:59:02Z</time></trkpt><trkpt lat="44.88915433902345" lon="11.5093283761772"><ele>6.0</ele><time>2026-04-23T09:59:03Z</time></trkpt><trkpt lat="44.889339470643016" lon="11.509374659734332"><ele>6.0</ele><time>2026-04-23T09:59:04Z</time></trkpt><trkpt lat="44.889523271869436" lon="11.509419989946487"><ele>6.0</ele><time>2026-04-23T09:59:05Z</time></trkpt><trkpt lat="44.889706823853686" lon="11.509465544643051"><ele>6.0</ele><time>2026-04-23T09:59:06Z</time></trkpt><trkpt lat="44.889892339610896" lon="11.509512390872374"><ele>6.0</ele><time>2026-04-23T09:59:07Z</time></trkpt><trkpt lat="44.89007973910045" lon="11.509558383559076"><ele>6.0</ele><time>2026-04-23T09:59:08Z</time></trkpt><trkpt lat="44.890271762390086" lon="11.509603895551741"><ele>6.0</ele><time>2026-04-23T09:59:09Z</time></trkpt><trkpt lat="44.89046684798338" lon="11.509652112208455"><ele>5.666666666666667</ele><time>2026-04-23T09:59:10Z</time></trkpt><trkpt lat="44.89066180730432" lon="11.509697834583637"><ele>5.333333333333334</ele><time>2026-04-23T09:59:11Z</time></trkpt><trkpt lat="44.890862592466455" lon="11.5097452647136"><ele>5.0</ele><time>2026-04-23T09:59:12Z</time></trkpt><trkpt lat="44.89106581393246" lon="11.509793365568333"><ele>4.666666666666667</ele><time>2026-04-23T09:59:12.999Z</time></trkpt><trkpt lat="44.89127178026452" lon="11.509845179635926"><ele>4.333333333333333</ele><time>2026-04-23T09:59:13.999Z</time></trkpt><trkpt lat="44.891480483578526" lon="11.509905190078914"><ele>4.0</ele><time>2026-04-23T09:59:14.999Z</time></trkpt><trkpt lat="44.89169843225952" lon="11.509958573871126"><ele>4.5</ele><time>2026-04-23T09:59:15.999Z</time></trkpt><trkpt lat="44.89192680366918" lon="11.5100155898245"><ele>5.0</ele><time>2026-04-23T09:59:16.999Z</time></trkpt><trkpt lat="44.89216334939188" lon="11.510074204248205"><ele>5.0</ele><time>2026-04-23T09:59:17.999Z</time></trkpt><trkpt lat="44.89241199857302" lon="11.510134776983657"><ele>5.0</ele><time>2026-04-23T09:59:18.999Z</time></trkpt><trkpt lat="44.89266934564437" lon="11.510198450564891"><ele>4.5</ele><time>2026-04-23T09:59:19.999Z</time></trkpt><trkpt lat="44.89293727429422" lon="11.510263482537539"><ele>4.0</ele><time>2026-04-23T09:59:20.999Z</time></trkpt><trkpt lat="44.89321209241474" lon="11.510329994843161"><ele>4.0</ele><time>2026-04-23T09:59:21.999Z</time></trkpt><trkpt lat="44.893487141047494" lon="11.510401749270663"><ele>4.0</ele><time>2026-04-23T09:59:22.999Z</time></trkpt><trkpt lat="44.893762900538746" lon="11.510471638379553"><ele>4.0</ele><time>2026-04-23T09:59:23.999Z</time></trkpt><trkpt lat="44.894030128877105" lon="11.510531738960283"><ele>4.0</ele><time>2026-04-23T09:59:24.999Z</time></trkpt><trkpt lat="44.89427174268539" lon="11.510590887478612"><ele>4.333333333333333</ele><time>2026-04-23T09:59:25.999Z</time></trkpt><trkpt lat="44.89449918826969" lon="11.510647831624812"><ele>4.666666666666667</ele><time>2026-04-23T09:59:26.999Z</time></trkpt><trkpt lat="44.894711327534786" lon="11.510701545443956"><ele>5.0</ele><time>2026-04-23T09:59:27.999Z</time></trkpt><trkpt lat="44.89490821980148" lon="11.510751076658567"><ele>5.0</ele><time>2026-04-23T09:59:28.999Z</time></trkpt><trkpt lat="44.89509287613109" lon="11.510798105128965"><ele>5.0</ele><time>2026-04-23T09:59:29.999Z</time></trkpt><trkpt lat="44.89526472320187" lon="11.510840471722132"><ele>5.0</ele><time>2026-04-23T09:59:30.999Z</time></trkpt><trkpt lat="44.89542636978561" lon="11.510880996683579"><ele>5.0</ele><time>2026-04-23T09:59:31.999Z</time></trkpt><trkpt lat="44.895577060189154" lon="11.510922488156794"><ele>5.0</ele><time>2026-04-23T09:59:32.999Z</time></trkpt><trkpt lat="44.89571699293477" lon="11.510958069807394"><ele>5.0</ele><time>2026-04-23T09:59:33.999Z</time></trkpt><trkpt lat="44.895847994112415" lon="11.510990610091808"><ele>5.0</ele><time>2026-04-23T09:59:34.999Z</time></trkpt><trkpt lat="44.89596799166649" lon="11.511019333051768"><ele>5.0</ele><time>2026-04-23T09:59:35.999Z</time></trkpt><trkpt lat="44.89607899540595" lon="11.511051595437676"><ele>5.0</ele><time>2026-04-23T09:59:36.999Z</time></trkpt><trkpt lat="44.896181068927646" lon="11.5110776910207"><ele>5.0</ele><time>2026-04-23T09:59:37.999Z</time></trkpt><trkpt lat="44.896274784260235" lon="11.511111231954526"><ele>5.0</ele><time>2026-04-23T09:59:38.999Z</time></trkpt><trkpt lat="44.896360767748405" lon="11.511125182263555"><ele>5.0</ele><time>2026-04-23T09:59:39.999Z</time></trkpt><trkpt lat="44.89642447975195" lon="11.51114063356948"><ele>5.2</ele><time>2026-04-23T09:59:40.999Z</time></trkpt><trkpt lat="44.896430468728745" lon="11.511362727730216"><ele>5.4</ele><time>2026-04-23T09:59:41.999Z</time></trkpt><trkpt lat="44.89643052125814" lon="11.511459278866381"><ele>5.6</ele><time>2026-04-23T09:59:42.999Z</time></trkpt><trkpt lat="44.89641897151393" lon="11.51154783050313"><ele>5.8</ele><time>2026-04-23T09:59:43.999Z</time></trkpt><trkpt lat="44.89641827573045" lon="11.511649085153191"><ele>6.0</ele><time>2026-04-23T09:59:44.999Z</time></trkpt><trkpt lat="44.89632980035212" lon="11.511749924180505"><ele>6.0</ele><time>2026-04-23T09:59:45.999Z</time></trkpt><trkpt lat="44.89625840307154" lon="11.511846118951222"><ele>6.0</ele><time>2026-04-23T09:59:46.999Z</time></trkpt><trkpt lat="44.89618953565747" lon="11.511950537435618"><ele>6.0</ele><time>2026-04-23T09:59:47.999Z</time></trkpt><trkpt lat="44.89611622216008" lon="11.512064150718663"><ele>6.0</ele><time>2026-04-23T09:59:48.999Z</time></trkpt><trkpt lat="44.89605347864496" lon="11.51216612349949"><ele>6.0</ele><time>2026-04-23T09:59:49.999Z</time></trkpt><trkpt lat="44.89600600378649" lon="11.512280324056306"><ele>6.0</ele><time>2026-04-23T09:59:50.999Z</time></trkpt><trkpt lat="44.89597764004621" lon="11.512410105402045"><ele>6.0</ele><time>2026-04-23T09:59:51.999Z</time></trkpt><trkpt lat="44.8959668446325" lon="11.512546534017503"><ele>6.0</ele><time>2026-04-23T09:59:52.999Z</time></trkpt><trkpt lat="44.89597216599319" lon="11.512688062714487"><ele>6.0</ele><time>2026-04-23T09:59:53.999Z</time></trkpt><trkpt lat="44.89600649907557" lon="11.512822538476922"><ele>6.0</ele><time>2026-04-23T09:59:54.999Z</time></trkpt><trkpt lat="44.896063383296756" lon="11.512946737654895"><ele>6.0</ele><time>2026-04-23T09:59:55.999Z</time></trkpt><trkpt lat="44.89613754458704" lon="11.513053007294644"><ele>6.0</ele><time>2026-04-23T09:59:56.999Z</time></trkpt><trkpt lat="44.89623908684867" lon="11.513140704088025"><ele>6.0</ele><time>2026-04-23T09:59:57.999Z</time></trkpt><trkpt lat="44.896358989652505" lon="11.513200928423627"><ele>6.0</ele><time>2026-04-23T09:59:58.999Z</time></trkpt><trkpt lat="44.89649177431163" lon="11.513234097615147"><ele>6.0</ele><time>2026-04-23T09:59:59.999Z</time></trkpt><trkpt lat="44.8966337205609" lon="11.513261123052782"><ele>6.0</ele><time>2026-04-23T10:00:00.999Z</time></trkpt><trkpt lat="44.89678609881692" lon="11.513295712489649"><ele>6.0</ele><time>2026-04-23T10:00:01.999Z</time></trkpt><trkpt lat="44.89695184725006" lon="11.513332679638783"><ele>5.666666666666667</ele><time>2026-04-23T10:00:02.999Z</time></trkpt><trkpt lat="44.897129773805176" lon="11.513374283612226"><ele>5.333333333333334</ele><time>2026-04-23T10:00:03.999Z</time></trkpt><trkpt lat="44.8973190913723" lon="11.51341662141326"><ele>5.0</ele><time>2026-04-23T10:00:04.999Z</time></trkpt><trkpt lat="44.89753077892856" lon="11.513464475473256"><ele>4.5</ele><time>2026-04-23T10:00:05.999Z</time></trkpt><trkpt lat="44.89776470937678" lon="11.51351603282973"><ele>4.0</ele><time>2026-04-23T10:00:06.999Z</time></trkpt><trkpt lat="44.89803779082901" lon="11.513581081771557"><ele>4.0</ele><time>2026-04-23T10:00:07.999Z</time></trkpt><trkpt lat="44.8983461100587" lon="11.513656262217815"><ele>4.0</ele><time>2026-04-23T10:00:08.999Z</time></trkpt><trkpt lat="44.89861278861615" lon="11.513721101072004"><ele>4.0</ele><time>2026-04-23T10:00:09.999Z</time></trkpt><trkpt lat="44.898854148598645" lon="11.513771293908407"><ele>4.0</ele><time>2026-04-23T10:00:10.999Z</time></trkpt><trkpt lat="44.899061767419084" lon="11.513822235675898"><ele>4.0</ele><time>2026-04-23T10:00:11.999Z</time></trkpt><trkpt lat="44.899247196007316" lon="11.513864769492416"><ele>4.0</ele><time>2026-04-23T10:00:12.999Z</time></trkpt><trkpt lat="44.89940522165037" lon="11.513900395204914"><ele>4.0</ele><time>2026-04-23T10:00:13.999Z</time></trkpt><trkpt lat="44.89955143124244" lon="11.513937007899164"><ele>4.5</ele><time>2026-04-23T10:00:14.999Z</time></trkpt><trkpt lat="44.89968486482836" lon="11.513967404971918"><ele>5.0</ele><time>2026-04-23T10:00:16Z</time></trkpt><trkpt lat="44.89980007488571" lon="11.514011397335821"><ele>5.5</ele><time>2026-04-23T10:00:17Z</time></trkpt><trkpt lat="44.899894078780896" lon="11.514093285375818"><ele>6.0</ele><time>2026-04-23T10:00:18Z</time></trkpt><trkpt lat="44.8999604487254" lon="11.514203879876328"><ele>6.0</ele><time>2026-04-23T10:00:19Z</time></trkpt><trkpt lat="44.9000019838579" lon="11.514349849095378"><ele>6.0</ele><time>2026-04-23T10:00:20Z</time></trkpt><trkpt lat="44.90002866116172" lon="11.514535676798557"><ele>6.0</ele><time>2026-04-23T10:00:21Z</time></trkpt><trkpt lat="44.900055718502436" lon="11.514753337630715"><ele>6.0</ele><time>2026-04-23T10:00:22Z</time></trkpt><trkpt lat="44.90010214368906" lon="11.514984363429578"><ele>5.666666666666667</ele><time>2026-04-23T10:00:23Z</time></trkpt><trkpt lat="44.900154119775635" lon="11.515221050630405"><ele>5.333333333333334</ele><time>2026-04-23T10:00:24Z</time></trkpt><trkpt lat="44.90020137406945" lon="11.515474898723136"><ele>5.0</ele><time>2026-04-23T10:00:25Z</time></trkpt><trkpt lat="44.90025035901162" lon="11.515737300594633"><ele>5.0</ele><time>2026-04-23T10:00:26Z</time></trkpt><trkpt lat="44.900299131370424" lon="11.515983684452792"><ele>5.0</ele><time>2026-04-23T10:00:27Z</time></trkpt><trkpt lat="44.90034337748688" lon="11.5162095103625"><ele>5.0</ele><time>2026-04-23T10:00:28Z</time></trkpt><trkpt lat="44.90038100083776" lon="11.516415936981522"><ele>5.0</ele><time>2026-04-23T10:00:29Z</time></trkpt><trkpt lat="44.900413134050865" lon="11.516601139415283"><ele>5.0</ele><time>2026-04-23T10:00:30Z</time></trkpt><trkpt lat="44.90044452007305" lon="11.516769077606368"><ele>5.0</ele><time>2026-04-23T10:00:31Z</time></trkpt><trkpt lat="44.90047320422053" lon="11.516920281893421"><ele>5.0</ele><time>2026-04-23T10:00:32Z</time></trkpt><trkpt lat="44.90050735871899" lon="11.517049741905467"><ele>4.75</ele><time>2026-04-23T10:00:33Z</time></trkpt><trkpt lat="44.900563283838416" lon="11.517153465025054"><ele>4.5</ele><time>2026-04-23T10:00:34Z</time></trkpt><trkpt lat="44.900654484420926" lon="11.517220306757899"><ele>4.25</ele><time>2026-04-23T10:00:35Z</time></trkpt><trkpt lat="44.90076883985339" lon="11.517277542142562"><ele>4.0</ele><time>2026-04-23T10:00:36Z</time></trkpt><trkpt lat="44.90090450670256" lon="11.517338455681447"><ele>4.333333333333333</ele><time>2026-04-23T10:00:37Z</time></trkpt><trkpt lat="44.90104478509297" lon="11.517407236676812"><ele>4.666666666666667</ele><time>2026-04-23T10:00:38Z</time></trkpt><trkpt lat="44.90119278290127" lon="11.51748613309911"><ele>5.0</ele><time>2026-04-23T10:00:39Z</time></trkpt><trkpt lat="44.90135322207931" lon="11.517572340703389"><ele>5.0</ele><time>2026-04-23T10:00:40Z</time></trkpt><trkpt lat="44.90151660148389" lon="11.517659983744476"><ele>5.0</ele><time>2026-04-23T10:00:41Z</time></trkpt><trkpt lat="44.9016881309649" lon="11.517745180130417"><ele>5.0</ele><time>2026-04-23T10:00:42Z</time></trkpt><trkpt lat="44.90185818726039" lon="11.51783872337968"><ele>5.0</ele><time>2026-04-23T10:00:43Z</time></trkpt><trkpt lat="44.90203947935301" lon="11.51793881446701"><ele>5.0</ele><time>2026-04-23T10:00:44Z</time></trkpt><trkpt lat="44.90222138456695" lon="11.518035993953449"><ele>5.0</ele><time>2026-04-23T10:00:45Z</time></trkpt><trkpt lat="44.902404332025625" lon="11.51813199070444"><ele>4.0</ele><time>2026-04-23T10:00:46Z</time></trkpt><trkpt lat="44.9025876755618" lon="11.518230214143983"><ele>3.0</ele><time>2026-04-23T10:00:47Z</time></trkpt><trkpt lat="44.9027670936348" lon="11.51832131773763"><ele>2.0</ele><time>2026-04-23T10:00:48Z</time></trkpt><trkpt lat="44.90294388741209" lon="11.518417473163288"><ele>2.0</ele><time>2026-04-23T10:00:49Z</time></trkpt><trkpt lat="44.90310494063167" lon="11.51851483692306"><ele>2.0</ele><time>2026-04-23T10:00:50Z</time></trkpt><trkpt lat="44.90325538800653" lon="11.51863415631729"><ele>2.0</ele><time>2026-04-23T10:00:51Z</time></trkpt><trkpt lat="44.903397066711776" lon="11.518784277329523"><ele>2.6666666666666665</ele><time>2026-04-23T10:00:52Z</time></trkpt><trkpt lat="44.90354371575465" lon="11.518976884073851"><ele>3.333333333333333</ele><time>2026-04-23T10:00:53Z</time></trkpt><trkpt lat="44.903699795268615" lon="11.519172305234212"><ele>4.0</ele><time>2026-04-23T10:00:54Z</time></trkpt><trkpt lat="44.90387063694328" lon="11.5193760400258"><ele>4.0</ele><time>2026-04-23T10:00:55Z</time></trkpt><trkpt lat="44.90403860507978" lon="11.519579615366812"><ele>4.0</ele><time>2026-04-23T10:00:56Z</time></trkpt><trkpt lat="44.90421218168215" lon="11.519785222510425"><ele>4.0</ele><time>2026-04-23T10:00:57Z</time></trkpt><trkpt lat="44.90439059998659" lon="11.51999083864159"><ele>4.0</ele><time>2026-04-23T10:00:58Z</time></trkpt><trkpt lat="44.90457226945712" lon="11.520200347154164"><ele>4.0</ele><time>2026-04-23T10:00:59Z</time></trkpt><trkpt lat="44.90475090625731" lon="11.520410017031738"><ele>4.5</ele><time>2026-04-23T10:01:00Z</time></trkpt><trkpt lat="44.90492374088681" lon="11.520619985895234"><ele>5.0</ele><time>2026-04-23T10:01:01Z</time></trkpt><trkpt lat="44.90509771916243" lon="11.520830780750709"><ele>5.0</ele><time>2026-04-23T10:01:02Z</time></trkpt><trkpt lat="44.90527127373909" lon="11.521034265314897"><ele>5.0</ele><time>2026-04-23T10:01:03Z</time></trkpt><trkpt lat="44.90544450192306" lon="11.521234836411388"><ele>4.5</ele><time>2026-04-23T10:01:04Z</time></trkpt><trkpt lat="44.90561924096029" lon="11.521438938563012"><ele>4.0</ele><time>2026-04-23T10:01:05Z</time></trkpt><trkpt lat="44.905792882261004" lon="11.521643900288641"><ele>4.0</ele><time>2026-04-23T10:01:06Z</time></trkpt><trkpt lat="44.905962997171635" lon="11.521845149459706"><ele>4.0</ele><time>2026-04-23T10:01:07Z</time></trkpt><trkpt lat="44.906130400094504" lon="11.522041678743133"><ele>4.0</ele><time>2026-04-23T10:01:08Z</time></trkpt><trkpt lat="44.9062930479203" lon="11.522238293875402"><ele>4.0</ele><time>2026-04-23T10:01:09Z</time></trkpt><trkpt lat="44.906457685702044" lon="11.522432031419434"><ele>4.0</ele><time>2026-04-23T10:01:10Z</time></trkpt><trkpt lat="44.90662361222322" lon="11.522626850034344"><ele>4.0</ele><time>2026-04-23T10:01:11Z</time></trkpt><trkpt lat="44.90678603126273" lon="11.522818254381725"><ele>5.0</ele><time>2026-04-23T10:01:12Z</time></trkpt><trkpt lat="44.90694507307784" lon="11.523004494490944"><ele>6.0</ele><time>2026-04-23T10:01:13Z</time></trkpt><trkpt lat="44.90708822860538" lon="11.523173721904616"><ele>7.0</ele><time>2026-04-23T10:01:14Z</time></trkpt><trkpt lat="44.90721861395864" lon="11.523341165257825"><ele>7.0</ele><time>2026-04-23T10:01:15Z</time></trkpt><trkpt lat="44.90734439473754" lon="11.52348090978805"><ele>7.0</ele><time>2026-04-23T10:01:16Z</time></trkpt><trkpt lat="44.907461936560956" lon="11.523623389225557"><ele>7.0</ele><time>2026-04-23T10:01:17Z</time></trkpt><trkpt lat="44.90756849027818" lon="11.523756237498125"><ele>6.75</ele><time>2026-04-23T10:01:18Z</time></trkpt><trkpt lat="44.90766721583849" lon="11.523872045953972"><ele>6.5</ele><time>2026-04-23T10:01:18.999Z</time></trkpt><trkpt lat="44.90775775865395" lon="11.523978599654315"><ele>6.25</ele><time>2026-04-23T10:01:19.999Z</time></trkpt><trkpt lat="44.90784059242979" lon="11.524071910822073"><ele>6.0</ele><time>2026-04-23T10:01:20.999Z</time></trkpt><trkpt lat="44.90791885830269" lon="11.52416683386544"><ele>6.0</ele><time>2026-04-23T10:01:21.999Z</time></trkpt><trkpt lat="44.90798087261439" lon="11.524240965710078"><ele>6.0</ele><time>2026-04-23T10:01:22.999Z</time></trkpt><trkpt lat="44.90802930585398" lon="11.524297787517183"><ele>6.0</ele><time>2026-04-23T10:01:23.999Z</time></trkpt><trkpt lat="44.90809642174166" lon="11.524400186512418"><ele>6.0</ele><time>2026-04-23T10:01:25.999Z</time></trkpt><trkpt lat="44.90813143193396" lon="11.524477346627167"><ele>6.0</ele><time>2026-04-23T10:01:32.999Z</time></trkpt><trkpt lat="44.90820360226101" lon="11.524511871620883"><ele>6.0</ele><time>2026-04-23T10:01:34.999Z</time></trkpt><trkpt lat="44.908263388924546" lon="11.524436203412286"><ele>6.0</ele><time>2026-04-23T10:01:35.999Z</time></trkpt><trkpt lat="44.90831499949083" lon="11.524353223808559"><ele>6.0</ele><time>2026-04-23T10:01:36.999Z</time></trkpt><trkpt lat="44.90838954410826" lon="11.524255246412562"><ele>6.0</ele><time>2026-04-23T10:01:37.999Z</time></trkpt><trkpt lat="44.908487959029245" lon="11.524159538127483"><ele>6.0</ele><time>2026-04-23T10:01:38.999Z</time></trkpt><trkpt lat="44.90859346455495" lon="11.524052708383218"><ele>6.0</ele><time>2026-04-23T10:01:39.999Z</time></trkpt><trkpt lat="44.90871162350906" lon="11.523922835321295"><ele>6.0</ele><time>2026-04-23T10:01:40.999Z</time></trkpt><trkpt lat="44.908830700676006" lon="11.523790869172593"><ele>6.0</ele><time>2026-04-23T10:01:41.999Z</time></trkpt><trkpt lat="44.90895475227597" lon="11.523642218135699"><ele>6.0</ele><time>2026-04-23T10:01:42.999Z</time></trkpt><trkpt lat="44.909072834662055" lon="11.523469507418188"><ele>6.0</ele><time>2026-04-23T10:01:43.999Z</time></trkpt><trkpt lat="44.90919113257427" lon="11.523285602197042"><ele>6.0</ele><time>2026-04-23T10:01:44.999Z</time></trkpt><trkpt lat="44.90930855635468" lon="11.52310555395667"><ele>6.0</ele><time>2026-04-23T10:01:45.999Z</time></trkpt><trkpt lat="44.9094215642942" lon="11.522932554827305"><ele>6.0</ele><time>2026-04-23T10:01:46.999Z</time></trkpt><trkpt lat="44.90953423855448" lon="11.52275709257607"><ele>6.0</ele><time>2026-04-23T10:01:47.999Z</time></trkpt><trkpt lat="44.909644116905476" lon="11.52258032709534"><ele>6.0</ele><time>2026-04-23T10:01:48.999Z</time></trkpt><trkpt lat="44.90975350376404" lon="11.522404525471142"><ele>6.0</ele><time>2026-04-23T10:01:49.999Z</time></trkpt><trkpt lat="44.90986408105095" lon="11.522234733557001"><ele>6.0</ele><time>2026-04-23T10:01:50.999Z</time></trkpt><trkpt lat="44.909975649894356" lon="11.52206023941112"><ele>6.0</ele><time>2026-04-23T10:01:51.999Z</time></trkpt><trkpt lat="44.910083553267874" lon="11.521886148120606"><ele>6.333333333333334</ele><time>2026-04-23T10:01:52.999Z</time></trkpt><trkpt lat="44.91018901393335" lon="11.521714432793097"><ele>6.666666666666667</ele><time>2026-04-23T10:01:53.999Z</time></trkpt><trkpt lat="44.91028838820946" lon="11.521561565357782"><ele>7.0</ele><time>2026-04-23T10:01:54.999Z</time></trkpt><trkpt lat="44.91038340138309" lon="11.521408538905757"><ele>7.0</ele><time>2026-04-23T10:01:55.999Z</time></trkpt><trkpt lat="44.91047648675331" lon="11.52125654675911"><ele>7.0</ele><time>2026-04-23T10:01:56.999Z</time></trkpt><trkpt lat="44.91056843614659" lon="11.521105742148519"><ele>7.0</ele><time>2026-04-23T10:01:57.999Z</time></trkpt><trkpt lat="44.91066652701223" lon="11.520964267154332"><ele>7.0</ele><time>2026-04-23T10:01:58.999Z</time></trkpt><trkpt lat="44.91075818474819" lon="11.520819273018873"><ele>6.75</ele><time>2026-04-23T10:01:59.999Z</time></trkpt><trkpt lat="44.910854779738855" lon="11.520666112944472"><ele>6.5</ele><time>2026-04-23T10:02:00.999Z</time></trkpt><trkpt lat="44.91095872172947" lon="11.520518182833165"><ele>6.25</ele><time>2026-04-23T10:02:01.999Z</time></trkpt><trkpt lat="44.91106700147593" lon="11.520373398863663"><ele>6.0</ele><time>2026-04-23T10:02:02.999Z</time></trkpt><trkpt lat="44.91117773402651" lon="11.520236169193328"><ele>6.5</ele><time>2026-04-23T10:02:03.999Z</time></trkpt><trkpt lat="44.91128646151887" lon="11.520118827505701"><ele>7.0</ele><time>2026-04-23T10:02:04.999Z</time></trkpt><trkpt lat="44.911396078007066" lon="11.520015697864206"><ele>7.5</ele><time>2026-04-23T10:02:05.999Z</time></trkpt><trkpt lat="44.91151543287148" lon="11.51992957801203"><ele>8.0</ele><time>2026-04-23T10:02:06.999Z</time></trkpt><trkpt lat="44.91164964335976" lon="11.519859824554493"><ele>7.666666666666666</ele><time>2026-04-23T10:02:07.999Z</time></trkpt><trkpt lat="44.9117954160765" lon="11.519812619694175"><ele>7.333333333333334</ele><time>2026-04-23T10:02:08.999Z</time></trkpt><trkpt lat="44.91194740332727" lon="11.519796287484565"><ele>7.0</ele><time>2026-04-23T10:02:09.999Z</time></trkpt><trkpt lat="44.91210265439634" lon="11.519788363410356"><ele>7.0</ele><time>2026-04-23T10:02:10.999Z</time></trkpt><trkpt lat="44.912268926178925" lon="11.519786517504444"><ele>7.0</ele><time>2026-04-23T10:02:11.999Z</time></trkpt><trkpt lat="44.91243927466097" lon="11.519784901262934"><ele>7.0</ele><time>2026-04-23T10:02:12.999Z</time></trkpt><trkpt lat="44.91261701561608" lon="11.519782059757734"><ele>6.666666666666667</ele><time>2026-04-23T10:02:13.999Z</time></trkpt><trkpt lat="44.912793045872036" lon="11.519788749853621"><ele>6.333333333333334</ele><time>2026-04-23T10:02:14.999Z</time></trkpt><trkpt lat="44.912973476041934" lon="11.519807559509072"><ele>6.0</ele><time>2026-04-23T10:02:15.999Z</time></trkpt><trkpt lat="44.9131536916647" lon="11.519841898901925"><ele>6.0</ele><time>2026-04-23T10:02:16.999Z</time></trkpt><trkpt lat="44.91333004675297" lon="11.519873722242489"><ele>6.0</ele><time>2026-04-23T10:02:17.999Z</time></trkpt><trkpt lat="44.913508986120625" lon="11.519899933944137"><ele>6.0</ele><time>2026-04-23T10:02:18.999Z</time></trkpt><trkpt lat="44.913689584824766" lon="11.519926575862062"><ele>5.666666666666667</ele><time>2026-04-23T10:02:19.999Z</time></trkpt><trkpt lat="44.91387814486064" lon="11.519938542559787"><ele>5.333333333333334</ele><time>2026-04-23T10:02:20.999Z</time></trkpt><trkpt lat="44.91407001289085" lon="11.519935069163909"><ele>5.0</ele><time>2026-04-23T10:02:22Z</time></trkpt><trkpt lat="44.91426562877062" lon="11.519920239865622"><ele>5.0</ele><time>2026-04-23T10:02:23Z</time></trkpt><trkpt lat="44.914465133758036" lon="11.519900627865606"><ele>5.0</ele><time>2026-04-23T10:02:24Z</time></trkpt><trkpt lat="44.91466577396337" lon="11.519883491703359"><ele>5.0</ele><time>2026-04-23T10:02:25Z</time></trkpt><trkpt lat="44.91486690996532" lon="11.519865209635537"><ele>5.0</ele><time>2026-04-23T10:02:26Z</time></trkpt><trkpt lat="44.915068936075386" lon="11.519844583937488"><ele>5.0</ele><time>2026-04-23T10:02:27Z</time></trkpt><trkpt lat="44.91526094456746" lon="11.519825970071132"><ele>5.0</ele><time>2026-04-23T10:02:28Z</time></trkpt><trkpt lat="44.91544540898063" lon="11.519809013325153"><ele>5.0</ele><time>2026-04-23T10:02:29Z</time></trkpt><trkpt lat="44.915616089298176" lon="11.51979137995122"><ele>5.0</ele><time>2026-04-23T10:02:30Z</time></trkpt><trkpt lat="44.91577729637651" lon="11.519771238300843"><ele>5.0</ele><time>2026-04-23T10:02:31Z</time></trkpt><trkpt lat="44.915933891109106" lon="11.519742953982707"><ele>5.0</ele><time>2026-04-23T10:02:32Z</time></trkpt><trkpt lat="44.91608353088662" lon="11.519706803941803"><ele>5.0</ele><time>2026-04-23T10:02:33Z</time></trkpt><trkpt lat="44.916222280737145" lon="11.5196294981655"><ele>5.0</ele><time>2026-04-23T10:02:34Z</time></trkpt><trkpt lat="44.91636435431181" lon="11.519509110326027"><ele>5.0</ele><time>2026-04-23T10:02:35Z</time></trkpt><trkpt lat="44.91651007715937" lon="11.51937189602201"><ele>5.0</ele><time>2026-04-23T10:02:36Z</time></trkpt><trkpt lat="44.91666845357364" lon="11.519228176285752"><ele>5.0</ele><time>2026-04-23T10:02:37Z</time></trkpt><trkpt lat="44.91683089139082" lon="11.51908183952461"><ele>5.0</ele><time>2026-04-23T10:02:38Z</time></trkpt><trkpt lat="44.91699817461884" lon="11.518931502786018"><ele>5.0</ele><time>2026-04-23T10:02:39Z</time></trkpt><trkpt lat="44.91716162976922" lon="11.518779983572712"><ele>5.0</ele><time>2026-04-23T10:02:40Z</time></trkpt><trkpt lat="44.917310443248496" lon="11.518642842491172"><ele>5.0</ele><time>2026-04-23T10:02:41Z</time></trkpt><trkpt lat="44.917448369267014" lon="11.51851866427461"><ele>5.0</ele><time>2026-04-23T10:02:42Z</time></trkpt><trkpt lat="44.91758035565246" lon="11.518398395087665"><ele>5.0</ele><time>2026-04-23T10:02:43Z</time></trkpt><trkpt lat="44.917712799401464" lon="11.518282485469635"><ele>5.0</ele><time>2026-04-23T10:02:44Z</time></trkpt><trkpt lat="44.91785811672758" lon="11.51818038261889"><ele>5.0</ele><time>2026-04-23T10:02:45Z</time></trkpt><trkpt lat="44.918025578853346" lon="11.518108655001795"><ele>5.0</ele><time>2026-04-23T10:02:46Z</time></trkpt><trkpt lat="44.918209914167974" lon="11.51805530378434"><ele>5.0</ele><time>2026-04-23T10:02:47Z</time></trkpt><trkpt lat="44.918406172914885" lon="11.518009405571444"><ele>5.0</ele><time>2026-04-23T10:02:48Z</time></trkpt><trkpt lat="44.918607899975385" lon="11.517950921013172"><ele>5.0</ele><time>2026-04-23T10:02:49Z</time></trkpt><trkpt lat="44.918803593981565" lon="11.517892958831661"><ele>5.0</ele><time>2026-04-23T10:02:50Z</time></trkpt><trkpt lat="44.91898992507238" lon="11.51783937214032"><ele>5.0</ele><time>2026-04-23T10:02:51Z</time></trkpt><trkpt lat="44.91916592304664" lon="11.517783677495931"><ele>5.0</ele><time>2026-04-23T10:02:52Z</time></trkpt><trkpt lat="44.91932731263782" lon="11.517720045421969"><ele>5.0</ele><time>2026-04-23T10:02:53Z</time></trkpt><trkpt lat="44.919479043412025" lon="11.517629800464977"><ele>5.0</ele><time>2026-04-23T10:02:54Z</time></trkpt><trkpt lat="44.91962363097502" lon="11.517506088720658"><ele>5.0</ele><time>2026-04-23T10:02:55Z</time></trkpt><trkpt lat="44.91976951306668" lon="11.51735324054012"><ele>5.0</ele><time>2026-04-23T10:02:56Z</time></trkpt><trkpt lat="44.91991218074188" lon="11.517185864278611"><ele>5.0</ele><time>2026-04-23T10:02:57Z</time></trkpt><trkpt lat="44.92005582973174" lon="11.517006746673973"><ele>5.0</ele><time>2026-04-23T10:02:58Z</time></trkpt><trkpt lat="44.920187096978864" lon="11.51680676095036"><ele>5.0</ele><time>2026-04-23T10:02:59Z</time></trkpt><trkpt lat="44.92031073321926" lon="11.516589569272318"><ele>5.0</ele><time>2026-04-23T10:03:00Z</time></trkpt><trkpt lat="44.920430500573616" lon="11.51637840528897"><ele>5.0</ele><time>2026-04-23T10:03:01Z</time></trkpt><trkpt lat="44.92054733021174" lon="11.516160061274675"><ele>5.333333333333334</ele><time>2026-04-23T10:03:02Z</time></trkpt><trkpt lat="44.92065928009603" lon="11.515953701796569"><ele>5.666666666666667</ele><time>2026-04-23T10:03:03Z</time></trkpt><trkpt lat="44.920770211944316" lon="11.515761169591507"><ele>6.0</ele><time>2026-04-23T10:03:04Z</time></trkpt><trkpt lat="44.92090270875983" lon="11.515603460727034"><ele>6.333333333333334</ele><time>2026-04-23T10:03:05Z</time></trkpt><trkpt lat="44.921032593153065" lon="11.515470468844335"><ele>6.666666666666667</ele><time>2026-04-23T10:03:06Z</time></trkpt><trkpt lat="44.921182174447885" lon="11.515349637753356"><ele>7.0</ele><time>2026-04-23T10:03:07Z</time></trkpt><trkpt lat="44.92135158361021" lon="11.515221676739014"><ele>7.0</ele><time>2026-04-23T10:03:08Z</time></trkpt><trkpt lat="44.921541272342644" lon="11.51511687534736"><ele>7.0</ele><time>2026-04-23T10:03:09Z</time></trkpt><trkpt lat="44.92173618852038" lon="11.515009009354856"><ele>7.0</ele><time>2026-04-23T10:03:10Z</time></trkpt><trkpt lat="44.92193484834798" lon="11.514890511823918"><ele>7.0</ele><time>2026-04-23T10:03:11Z</time></trkpt><trkpt lat="44.92213240422764" lon="11.514769536688515"><ele>7.0</ele><time>2026-04-23T10:03:12Z</time></trkpt><trkpt lat="44.92233896745284" lon="11.514645002405786"><ele>7.0</ele><time>2026-04-23T10:03:13Z</time></trkpt><trkpt lat="44.922543623688" lon="11.51451716860312"><ele>6.5</ele><time>2026-04-23T10:03:14Z</time></trkpt><trkpt lat="44.92275417110417" lon="11.514388009987256"><ele>6.0</ele><time>2026-04-23T10:03:15Z</time></trkpt><trkpt lat="44.92296470693169" lon="11.514264718205371"><ele>6.0</ele><time>2026-04-23T10:03:16Z</time></trkpt><trkpt lat="44.92316711503896" lon="11.514143587371366"><ele>6.0</ele><time>2026-04-23T10:03:17Z</time></trkpt><trkpt lat="44.92335578210538" lon="11.51402507945199"><ele>6.0</ele><time>2026-04-23T10:03:18Z</time></trkpt><trkpt lat="44.92352720522116" lon="11.513922923956306"><ele>6.333333333333334</ele><time>2026-04-23T10:03:19Z</time></trkpt><trkpt lat="44.92369523297204" lon="11.513824056200699"><ele>6.666666666666667</ele><time>2026-04-23T10:03:20Z</time></trkpt><trkpt lat="44.923870422288424" lon="11.513730589336156"><ele>7.0</ele><time>2026-04-23T10:03:21Z</time></trkpt><trkpt lat="44.924058172487314" lon="11.513655317681543"><ele>7.0</ele><time>2026-04-23T10:03:22Z</time></trkpt><trkpt lat="44.924250154983284" lon="11.513592027310894"><ele>7.0</ele><time>2026-04-23T10:03:23Z</time></trkpt><trkpt lat="44.924446189971704" lon="11.513536656126117"><ele>7.0</ele><time>2026-04-23T10:03:23.999Z</time></trkpt><trkpt lat="44.924640582535474" lon="11.513489338355814"><ele>7.0</ele><time>2026-04-23T10:03:24.999Z</time></trkpt><trkpt lat="44.92484114681973" lon="11.513428345113033"><ele>7.0</ele><time>2026-04-23T10:03:25.999Z</time></trkpt><trkpt lat="44.92504782991542" lon="11.513370174992597"><ele>7.0</ele><time>2026-04-23T10:03:26.999Z</time></trkpt><trkpt lat="44.92525573042392" lon="11.513312079869776"><ele>7.333333333333334</ele><time>2026-04-23T10:03:27.999Z</time></trkpt><trkpt lat="44.9254559332176" lon="11.51325466940569"><ele>7.666666666666666</ele><time>2026-04-23T10:03:28.999Z</time></trkpt><trkpt lat="44.925640811503044" lon="11.51320504065459"><ele>8.0</ele><time>2026-04-23T10:03:29.999Z</time></trkpt><trkpt lat="44.92580991329605" lon="11.513159671909106"><ele>8.666666666666666</ele><time>2026-04-23T10:03:30.999Z</time></trkpt><trkpt lat="44.9259707337402" lon="11.513117812730467"><ele>9.333333333333334</ele><time>2026-04-23T10:03:31.999Z</time></trkpt><trkpt lat="44.92611894298974" lon="11.513078674056487"><ele>10.0</ele><time>2026-04-23T10:03:32.999Z</time></trkpt><trkpt lat="44.926254604343946" lon="11.51304309357272"><ele>10.0</ele><time>2026-04-23T10:03:33.999Z</time></trkpt><trkpt lat="44.92639352762506" lon="11.513005895446524"><ele>10.0</ele><time>2026-04-23T10:03:34.999Z</time></trkpt><trkpt lat="44.92653412071251" lon="11.512961666567238"><ele>10.0</ele><time>2026-04-23T10:03:35.999Z</time></trkpt><trkpt lat="44.926665136618325" lon="11.512922930134454"><ele>10.0</ele><time>2026-04-23T10:03:36.999Z</time></trkpt><trkpt lat="44.92678708289879" lon="11.51288479686349"><ele>9.6</ele><time>2026-04-23T10:03:37.999Z</time></trkpt><trkpt lat="44.92689676328609" lon="11.512856015682937"><ele>9.2</ele><time>2026-04-23T10:03:38.999Z</time></trkpt><trkpt lat="44.92698973243973" lon="11.512826993126948"><ele>8.8</ele><time>2026-04-23T10:03:39.999Z</time></trkpt><trkpt lat="44.92707480553843" lon="11.512781158369503"><ele>8.4</ele><time>2026-04-23T10:03:40.999Z</time></trkpt><trkpt lat="44.92716094301848" lon="11.51271222842295"><ele>8.0</ele><time>2026-04-23T10:03:41.999Z</time></trkpt><trkpt lat="44.92724144497526" lon="11.512613567038002"><ele>8.0</ele><time>2026-04-23T10:03:42.999Z</time></trkpt><trkpt lat="44.927308146976976" lon="11.512487854382027"><ele>8.0</ele><time>2026-04-23T10:03:43.999Z</time></trkpt><trkpt lat="44.927356695037936" lon="11.512319723168432"><ele>8.0</ele><time>2026-04-23T10:03:44.999Z</time></trkpt><trkpt lat="44.92741541872513" lon="11.512146394561741"><ele>8.0</ele><time>2026-04-23T10:03:45.999Z</time></trkpt><trkpt lat="44.92745257837196" lon="11.511947482027727"><ele>8.5</ele><time>2026-04-23T10:03:46.999Z</time></trkpt><trkpt lat="44.9274946287407" lon="11.511746635051411"><ele>9.0</ele><time>2026-04-23T10:03:47.999Z</time></trkpt><trkpt lat="44.927536709000364" lon="11.511545645479496"><ele>9.5</ele><time>2026-04-23T10:03:48.999Z</time></trkpt><trkpt lat="44.92757667833783" lon="11.51135473840234"><ele>10.0</ele><time>2026-04-23T10:03:49.999Z</time></trkpt><trkpt lat="44.927601930019144" lon="11.51117202230048"><ele>9.0</ele><time>2026-04-23T10:03:50.999Z</time></trkpt><trkpt lat="44.92763839008378" lon="11.511012943808174"><ele>8.0</ele><time>2026-04-23T10:03:51.999Z</time></trkpt><trkpt lat="44.927674405548274" lon="11.510864015589075"><ele>7.0</ele><time>2026-04-23T10:03:52.999Z</time></trkpt><trkpt lat="44.927708809291595" lon="11.510706787604972"><ele>6.0</ele><time>2026-04-23T10:03:53.999Z</time></trkpt><trkpt lat="44.92774906548485" lon="11.510551866344379"><ele>6.0</ele><time>2026-04-23T10:03:54.999Z</time></trkpt><trkpt lat="44.927803737083146" lon="11.510411656565156"><ele>6.0</ele><time>2026-04-23T10:03:55.999Z</time></trkpt><trkpt lat="44.92788577992539" lon="11.510272031996717"><ele>6.0</ele><time>2026-04-23T10:03:56.999Z</time></trkpt><trkpt lat="44.927975388490246" lon="11.510128069904445"><ele>6.0</ele><time>2026-04-23T10:03:57.999Z</time></trkpt><trkpt lat="44.92808373010771" lon="11.510004089759303"><ele>6.5</ele><time>2026-04-23T10:03:58.999Z</time></trkpt><trkpt lat="44.92818516553674" lon="11.509851848593664"><ele>7.0</ele><time>2026-04-23T10:03:59.999Z</time></trkpt><trkpt lat="44.928286494551244" lon="11.509720787992359"><ele>7.5</ele><time>2026-04-23T10:04:00.999Z</time></trkpt><trkpt lat="44.92837852861999" lon="11.50960197401432"><ele>8.0</ele><time>2026-04-23T10:04:01.999Z</time></trkpt><trkpt lat="44.92848499790836" lon="11.5094910780886"><ele>8.25</ele><time>2026-04-23T10:04:02.999Z</time></trkpt><trkpt lat="44.92860209979817" lon="11.509385293467592"><ele>8.5</ele><time>2026-04-23T10:04:03.999Z</time></trkpt><trkpt lat="44.92871988668506" lon="11.509277926992215"><ele>8.75</ele><time>2026-04-23T10:04:04.999Z</time></trkpt><trkpt lat="44.92883700782048" lon="11.509166428278109"><ele>9.0</ele><time>2026-04-23T10:04:05.999Z</time></trkpt><trkpt lat="44.92895247622703" lon="11.509062335461195"><ele>9.0</ele><time>2026-04-23T10:04:06.999Z</time></trkpt><trkpt lat="44.92906627341547" lon="11.508956973044128"><ele>9.0</ele><time>2026-04-23T10:04:07.999Z</time></trkpt><trkpt lat="44.929170407769554" lon="11.508857310504501"><ele>9.0</ele><time>2026-04-23T10:04:08.999Z</time></trkpt><trkpt lat="44.92928463028019" lon="11.508784682492577"><ele>9.0</ele><time>2026-04-23T10:04:09.999Z</time></trkpt><trkpt lat="44.92938950087117" lon="11.508690546677771"><ele>8.75</ele><time>2026-04-23T10:04:10.999Z</time></trkpt><trkpt lat="44.92949531187094" lon="11.508595744975558"><ele>8.5</ele><time>2026-04-23T10:04:11.999Z</time></trkpt><trkpt lat="44.92960330438429" lon="11.508498988758785"><ele>8.25</ele><time>2026-04-23T10:04:12.999Z</time></trkpt><trkpt lat="44.9297115012804" lon="11.508402051051565"><ele>8.0</ele><time>2026-04-23T10:04:13.999Z</time></trkpt><trkpt lat="44.92981236723065" lon="11.508284291428014"><ele>8.0</ele><time>2026-04-23T10:04:14.999Z</time></trkpt><trkpt lat="44.92992626482512" lon="11.508200485530514"><ele>8.0</ele><time>2026-04-23T10:04:15.999Z</time></trkpt><trkpt lat="44.93003951805964" lon="11.508097845554506"><ele>8.0</ele><time>2026-04-23T10:04:16.999Z</time></trkpt><trkpt lat="44.93015230204682" lon="11.507985770829155"><ele>8.0</ele><time>2026-04-23T10:04:17.999Z</time></trkpt><trkpt lat="44.93025542372098" lon="11.507860699430939"><ele>7.75</ele><time>2026-04-23T10:04:18.999Z</time></trkpt><trkpt lat="44.93034420392186" lon="11.507703078717267"><ele>7.5</ele><time>2026-04-23T10:04:19.999Z</time></trkpt><trkpt lat="44.93040841962416" lon="11.507526315936989"><ele>7.25</ele><time>2026-04-23T10:04:20.999Z</time></trkpt><trkpt lat="44.93046222678411" lon="11.507331778768773"><ele>7.0</ele><time>2026-04-23T10:04:21.999Z</time></trkpt><trkpt lat="44.93052102587896" lon="11.507131953508196"><ele>7.5</ele><time>2026-04-23T10:04:22.999Z</time></trkpt><trkpt lat="44.93058780589385" lon="11.506939348059513"><ele>8.0</ele><time>2026-04-23T10:04:23.999Z</time></trkpt><trkpt lat="44.93064988554111" lon="11.506755610755453"><ele>8.5</ele><time>2026-04-23T10:04:24.999Z</time></trkpt><trkpt lat="44.93070942816845" lon="11.506571853788147"><ele>9.0</ele><time>2026-04-23T10:04:25.999Z</time></trkpt><trkpt lat="44.93076497894032" lon="11.506409745094587"><ele>9.0</ele><time>2026-04-23T10:04:26.999Z</time></trkpt><trkpt lat="44.9308191712927" lon="11.506256306932444"><ele>9.0</ele><time>2026-04-23T10:04:28Z</time></trkpt><trkpt lat="44.930885540654046" lon="11.506105916101625"><ele>9.0</ele><time>2026-04-23T10:04:29Z</time></trkpt><trkpt lat="44.930968664239415" lon="11.505956072282684"><ele>9.0</ele><time>2026-04-23T10:04:30Z</time></trkpt><trkpt lat="44.931041718060456" lon="11.505782587461455"><ele>9.333333333333334</ele><time>2026-04-23T10:04:31Z</time></trkpt><trkpt lat="44.93113267646159" lon="11.505613267151148"><ele>9.666666666666668</ele><time>2026-04-23T10:04:32Z</time></trkpt><trkpt lat="44.93122362560103" lon="11.505436820016202"><ele>10.0</ele><time>2026-04-23T10:04:33Z</time></trkpt><trkpt lat="44.931321036854534" lon="11.50526074199826"><ele>9.333333333333334</ele><time>2026-04-23T10:04:34Z</time></trkpt><trkpt lat="44.93141745354515" lon="11.505084335722477"><ele>8.666666666666666</ele><time>2026-04-23T10:04:35Z</time></trkpt><trkpt lat="44.93150925524032" lon="11.504921502147127"><ele>8.0</ele><time>2026-04-23T10:04:36Z</time></trkpt><trkpt lat="44.931596018614634" lon="11.5047546061171"><ele>8.0</ele><time>2026-04-23T10:04:37Z</time></trkpt><trkpt lat="44.93168104576629" lon="11.504595286519868"><ele>8.0</ele><time>2026-04-23T10:04:38Z</time></trkpt><trkpt lat="44.931766924053655" lon="11.504435232106658"><ele>8.0</ele><time>2026-04-23T10:04:39Z</time></trkpt><trkpt lat="44.9318504033793" lon="11.50426908922648"><ele>8.0</ele><time>2026-04-23T10:04:40Z</time></trkpt><trkpt lat="44.93192743520245" lon="11.504096958945743"><ele>8.0</ele><time>2026-04-23T10:04:41Z</time></trkpt><trkpt lat="44.931994891449506" lon="11.503919749045952"><ele>8.0</ele><time>2026-04-23T10:04:42Z</time></trkpt><trkpt lat="44.932047897442494" lon="11.503746530514045"><ele>8.0</ele><time>2026-04-23T10:04:43Z</time></trkpt><trkpt lat="44.93209023820984" lon="11.503585365257146"><ele>8.0</ele><time>2026-04-23T10:04:44Z</time></trkpt><trkpt lat="44.93212965023459" lon="11.503433423237608"><ele>8.5</ele><time>2026-04-23T10:04:45Z</time></trkpt><trkpt lat="44.93216851828445" lon="11.503277749231025"><ele>9.0</ele><time>2026-04-23T10:04:46Z</time></trkpt><trkpt lat="44.93221072795857" lon="11.503122651445706"><ele>9.5</ele><time>2026-04-23T10:04:47Z</time></trkpt><trkpt lat="44.932245693412455" lon="11.5029603429858"><ele>10.0</ele><time>2026-04-23T10:04:48Z</time></trkpt><trkpt lat="44.932275419712965" lon="11.502790473543339"><ele>10.0</ele><time>2026-04-23T10:04:49Z</time></trkpt><trkpt lat="44.93231478749699" lon="11.502608205574806"><ele>10.0</ele><time>2026-04-23T10:04:50Z</time></trkpt><trkpt lat="44.932348992530194" lon="11.502422145085093"><ele>10.0</ele><time>2026-04-23T10:04:51Z</time></trkpt><trkpt lat="44.93238623244378" lon="11.502231619365253"><ele>10.0</ele><time>2026-04-23T10:04:52Z</time></trkpt><trkpt lat="44.93242839387013" lon="11.50203729934137"><ele>10.25</ele><time>2026-04-23T10:04:53Z</time></trkpt><trkpt lat="44.93247031198822" lon="11.501837815541531"><ele>10.5</ele><time>2026-04-23T10:04:54Z</time></trkpt><trkpt lat="44.932515732471224" lon="11.501642166149677"><ele>10.75</ele><time>2026-04-23T10:04:55Z</time></trkpt><trkpt lat="44.93256449322672" lon="11.501442601777365"><ele>11.0</ele><time>2026-04-23T10:04:56Z</time></trkpt><trkpt lat="44.932610124533646" lon="11.50124245731446"><ele>11.0</ele><time>2026-04-23T10:04:57Z</time></trkpt><trkpt lat="44.93265196051985" lon="11.501056023156766"><ele>11.0</ele><time>2026-04-23T10:04:58Z</time></trkpt><trkpt lat="44.93269112870624" lon="11.500888124530533"><ele>11.0</ele><time>2026-04-23T10:04:59Z</time></trkpt><trkpt lat="44.9327222310783" lon="11.500733490761986"><ele>11.0</ele><time>2026-04-23T10:05:00Z</time></trkpt><trkpt lat="44.932745082942304" lon="11.500576304674997"><ele>10.75</ele><time>2026-04-23T10:05:01Z</time></trkpt><trkpt lat="44.93276191604234" lon="11.500396340270864"><ele>10.5</ele><time>2026-04-23T10:05:02Z</time></trkpt><trkpt lat="44.9327728492512" lon="11.500190686139863"><ele>10.25</ele><time>2026-04-23T10:05:03Z</time></trkpt><trkpt lat="44.93277091938039" lon="11.499978272106668"><ele>10.0</ele><time>2026-04-23T10:05:04Z</time></trkpt><trkpt lat="44.93275794623681" lon="11.499750986592053"><ele>10.0</ele><time>2026-04-23T10:05:05Z</time></trkpt><trkpt lat="44.93272941758306" lon="11.499525722588576"><ele>10.0</ele><time>2026-04-23T10:05:06Z</time></trkpt><trkpt lat="44.93268723459909" lon="11.499293799838819"><ele>10.0</ele><time>2026-04-23T10:05:07Z</time></trkpt><trkpt lat="44.93262742032955" lon="11.49905811913193"><ele>10.0</ele><time>2026-04-23T10:05:08Z</time></trkpt><trkpt lat="44.93255940768499" lon="11.498807022700221"><ele>10.0</ele><time>2026-04-23T10:05:09Z</time></trkpt><trkpt lat="44.93244396307211" lon="11.498582295334996"><ele>10.0</ele><time>2026-04-23T10:05:10Z</time></trkpt><trkpt lat="44.93232891256037" lon="11.498363953300856"><ele>9.333333333333334</ele><time>2026-04-23T10:05:11Z</time></trkpt><trkpt lat="44.93220121636579" lon="11.498167452775446"><ele>8.666666666666666</ele><time>2026-04-23T10:05:12Z</time></trkpt><trkpt lat="44.932056535442655" lon="11.497983075818787"><ele>8.0</ele><time>2026-04-23T10:05:13Z</time></trkpt><trkpt lat="44.931892991458895" lon="11.497812083521712"><ele>8.0</ele><time>2026-04-23T10:05:14Z</time></trkpt><trkpt lat="44.93172423767767" lon="11.4976351544499"><ele>8.0</ele><time>2026-04-23T10:05:15Z</time></trkpt><trkpt lat="44.93153346880469" lon="11.497524223672148"><ele>8.0</ele><time>2026-04-23T10:05:16Z</time></trkpt><trkpt lat="44.93134844102954" lon="11.49739232683157"><ele>7.666666666666666</ele><time>2026-04-23T10:05:17Z</time></trkpt><trkpt lat="44.93116266003014" lon="11.49723949287505"><ele>7.333333333333334</ele><time>2026-04-23T10:05:18Z</time></trkpt><trkpt lat="44.930974655493635" lon="11.497105152190581"><ele>7.0</ele><time>2026-04-23T10:05:19Z</time></trkpt><trkpt lat="44.93078661569443" lon="11.496970786269696"><ele>6.666666666666667</ele><time>2026-04-23T10:05:20Z</time></trkpt><trkpt lat="44.9306074483787" lon="11.49684275901092"><ele>6.333333333333334</ele><time>2026-04-23T10:05:21Z</time></trkpt><trkpt lat="44.930429558676906" lon="11.496716314715544"><ele>6.0</ele><time>2026-04-23T10:05:22Z</time></trkpt><trkpt lat="44.93024823544216" lon="11.496587204445836"><ele>6.0</ele><time>2026-04-23T10:05:23Z</time></trkpt><trkpt lat="44.930062811132544" lon="11.496455174050872"><ele>6.0</ele><time>2026-04-23T10:05:24Z</time></trkpt><trkpt lat="44.9298760700256" lon="11.496322206012753"><ele>6.0</ele><time>2026-04-23T10:05:25Z</time></trkpt><trkpt lat="44.929684542183104" lon="11.496187608643035"><ele>6.333333333333334</ele><time>2026-04-23T10:05:26Z</time></trkpt><trkpt lat="44.92949311969713" lon="11.496054761222094"><ele>6.666666666666667</ele><time>2026-04-23T10:05:27Z</time></trkpt><trkpt lat="44.9292901988652" lon="11.495940026829048"><ele>7.0</ele><time>2026-04-23T10:05:28Z</time></trkpt><trkpt lat="44.929107033853256" lon="11.49578561458694"><ele>7.0</ele><time>2026-04-23T10:05:29Z</time></trkpt><trkpt lat="44.928921367861655" lon="11.49565400929617"><ele>7.0</ele><time>2026-04-23T10:05:30Z</time></trkpt><trkpt lat="44.928725326813066" lon="11.495537250994538"><ele>7.0</ele><time>2026-04-23T10:05:31Z</time></trkpt><trkpt lat="44.928533169274694" lon="11.495402819388383"><ele>6.333333333333334</ele><time>2026-04-23T10:05:32Z</time></trkpt><trkpt lat="44.928347394316944" lon="11.49524716065899"><ele>5.666666666666667</ele><time>2026-04-23T10:05:33Z</time></trkpt><trkpt lat="44.92814557677129" lon="11.49512971581937"><ele>5.0</ele><time>2026-04-23T10:05:34Z</time></trkpt><trkpt lat="44.92794794026515" lon="11.4949858815265"><ele>5.0</ele><time>2026-04-23T10:05:34.999Z</time></trkpt><trkpt lat="44.927749087644834" lon="11.494846197215342"><ele>5.0</ele><time>2026-04-23T10:05:35.999Z</time></trkpt><trkpt lat="44.92755601846194" lon="11.49468655278565"><ele>5.0</ele><time>2026-04-23T10:05:36.999Z</time></trkpt><trkpt lat="44.92735719904846" lon="11.494545729750042"><ele>6.0</ele><time>2026-04-23T10:05:37.999Z</time></trkpt><trkpt lat="44.927161392212064" lon="11.494406884409141"><ele>7.0</ele><time>2026-04-23T10:05:38.999Z</time></trkpt><trkpt lat="44.926982077076794" lon="11.494278783363203"><ele>8.0</ele><time>2026-04-23T10:05:39.999Z</time></trkpt><trkpt lat="44.926821156073636" lon="11.494163822951736"><ele>7.666666666666666</ele><time>2026-04-23T10:05:40.999Z</time></trkpt><trkpt lat="44.92667174194968" lon="11.494059424790754"><ele>7.333333333333334</ele><time>2026-04-23T10:05:41.999Z</time></trkpt><trkpt lat="44.92652834056681" lon="11.493960151320195"><ele>7.0</ele><time>2026-04-23T10:05:42.999Z</time></trkpt><trkpt lat="44.92638058323669" lon="11.493851144368335"><ele>7.0</ele><time>2026-04-23T10:05:43.999Z</time></trkpt><trkpt lat="44.92623874662048" lon="11.493740991537818"><ele>7.0</ele><time>2026-04-23T10:05:44.999Z</time></trkpt><trkpt lat="44.92611771592664" lon="11.49362309242519"><ele>7.0</ele><time>2026-04-23T10:05:45.999Z</time></trkpt><trkpt lat="44.926011808686" lon="11.49348311808291"><ele>7.0</ele><time>2026-04-23T10:05:46.999Z</time></trkpt><trkpt lat="44.925929764736374" lon="11.49331298515071"><ele>7.0</ele><time>2026-04-23T10:05:47.999Z</time></trkpt><trkpt lat="44.925848927589534" lon="11.493134241600925"><ele>7.0</ele><time>2026-04-23T10:05:48.999Z</time></trkpt><trkpt lat="44.92582848299189" lon="11.492938880025616"><ele>7.0</ele><time>2026-04-23T10:05:49.999Z</time></trkpt><trkpt lat="44.92581936233259" lon="11.492754753428523"><ele>7.333333333333334</ele><time>2026-04-23T10:05:50.999Z</time></trkpt><trkpt lat="44.925817630319116" lon="11.492551200549165"><ele>7.666666666666666</ele><time>2026-04-23T10:05:51.999Z</time></trkpt><trkpt lat="44.92584998416435" lon="11.492332112856834"><ele>8.0</ele><time>2026-04-23T10:05:52.999Z</time></trkpt><trkpt lat="44.92589748965018" lon="11.492103936879621"><ele>7.666666666666666</ele><time>2026-04-23T10:05:53.999Z</time></trkpt><trkpt lat="44.925946622828" lon="11.491860055817382"><ele>7.333333333333334</ele><time>2026-04-23T10:05:54.999Z</time></trkpt><trkpt lat="44.92599425793722" lon="11.491602507822062"><ele>7.0</ele><time>2026-04-23T10:05:55.999Z</time></trkpt><trkpt lat="44.926042540561724" lon="11.491341764482238"><ele>7.0</ele><time>2026-04-23T10:05:56.999Z</time></trkpt><trkpt lat="44.92608983788078" lon="11.491075554737787"><ele>7.0</ele><time>2026-04-23T10:05:57.999Z</time></trkpt><trkpt lat="44.92613632324453" lon="11.49082051709855"><ele>7.0</ele><time>2026-04-23T10:05:58.999Z</time></trkpt><trkpt lat="44.92617648106996" lon="11.490592299944934"><ele>7.0</ele><time>2026-04-23T10:05:59.999Z</time></trkpt><trkpt lat="44.92623331672343" lon="11.490375833493859"><ele>7.0</ele><time>2026-04-23T10:06:00.999Z</time></trkpt><trkpt lat="44.9262552233627" lon="11.490148789903548"><ele>7.0</ele><time>2026-04-23T10:06:01.999Z</time></trkpt><trkpt lat="44.926288698133554" lon="11.489937646153134"><ele>7.0</ele><time>2026-04-23T10:06:02.999Z</time></trkpt><trkpt lat="44.9263063678993" lon="11.489725668978275"><ele>7.0</ele><time>2026-04-23T10:06:03.999Z</time></trkpt><trkpt lat="44.92629794340979" lon="11.489503837531966"><ele>7.0</ele><time>2026-04-23T10:06:04.999Z</time></trkpt><trkpt lat="44.926268168702876" lon="11.489282425891373"><ele>7.0</ele><time>2026-04-23T10:06:05.999Z</time></trkpt><trkpt lat="44.926217664724696" lon="11.489055263686598"><ele>7.0</ele><time>2026-04-23T10:06:06.999Z</time></trkpt><trkpt lat="44.92615097921531" lon="11.488840447913917"><ele>7.0</ele><time>2026-04-23T10:06:07.999Z</time></trkpt><trkpt lat="44.9260585343976" lon="11.488628958318834"><ele>7.0</ele><time>2026-04-23T10:06:08.999Z</time></trkpt><trkpt lat="44.925946752190065" lon="11.488429173085668"><ele>7.0</ele><time>2026-04-23T10:06:09.999Z</time></trkpt><trkpt lat="44.92583174004388" lon="11.488249918846265"><ele>7.0</ele><time>2026-04-23T10:06:10.999Z</time></trkpt><trkpt lat="44.925718549316294" lon="11.488073719432188"><ele>7.0</ele><time>2026-04-23T10:06:11.999Z</time></trkpt><trkpt lat="44.92564008429201" lon="11.487904175682866"><ele>7.0</ele><time>2026-04-23T10:06:12.999Z</time></trkpt><trkpt lat="44.925598465711026" lon="11.487742631380922"><ele>7.0</ele><time>2026-04-23T10:06:13.999Z</time></trkpt><trkpt lat="44.92555997330303" lon="11.487569317864542"><ele>7.0</ele><time>2026-04-23T10:06:14.999Z</time></trkpt><trkpt lat="44.9255246241645" lon="11.487371090872532"><ele>7.0</ele><time>2026-04-23T10:06:15.999Z</time></trkpt><trkpt lat="44.925517147101324" lon="11.487171844899082"><ele>7.0</ele><time>2026-04-23T10:06:16.999Z</time></trkpt><trkpt lat="44.925531788804676" lon="11.486977111617286"><ele>7.0</ele><time>2026-04-23T10:06:17.999Z</time></trkpt><trkpt lat="44.92556019841512" lon="11.486756377312158"><ele>7.0</ele><time>2026-04-23T10:06:18.999Z</time></trkpt><trkpt lat="44.925600720453055" lon="11.486509595819252"><ele>6.666666666666667</ele><time>2026-04-23T10:06:19.999Z</time></trkpt><trkpt lat="44.92563719817953" lon="11.486254642950891"><ele>6.333333333333334</ele><time>2026-04-23T10:06:20.999Z</time></trkpt><trkpt lat="44.925690528821825" lon="11.486002077463894"><ele>6.0</ele><time>2026-04-23T10:06:21.999Z</time></trkpt><trkpt lat="44.92574305837757" lon="11.485744590250967"><ele>6.0</ele><time>2026-04-23T10:06:22.999Z</time></trkpt><trkpt lat="44.92579097105892" lon="11.485505928434383"><ele>6.0</ele><time>2026-04-23T10:06:23.999Z</time></trkpt><trkpt lat="44.925830519744196" lon="11.485284984211797"><ele>6.0</ele><time>2026-04-23T10:06:24.999Z</time></trkpt><trkpt lat="44.92585751141974" lon="11.485074211316281"><ele>6.666666666666666</ele><time>2026-04-23T10:06:25.999Z</time></trkpt><trkpt lat="44.92586316782255" lon="11.484842318707129"><ele>7.333333333333333</ele><time>2026-04-23T10:06:26.999Z</time></trkpt><trkpt lat="44.92585327957081" lon="11.484589416464578"><ele>8.0</ele><time>2026-04-23T10:06:27.999Z</time></trkpt><trkpt lat="44.92581941580776" lon="11.484328667536046"><ele>8.0</ele><time>2026-04-23T10:06:28.999Z</time></trkpt><trkpt lat="44.92576978371256" lon="11.484079853570279"><ele>8.0</ele><time>2026-04-23T10:06:29.999Z</time></trkpt><trkpt lat="44.925713171084546" lon="11.483850006897173"><ele>8.0</ele><time>2026-04-23T10:06:30.999Z</time></trkpt><trkpt lat="44.92561742990462" lon="11.483613741574004"><ele>8.0</ele><time>2026-04-23T10:06:31.999Z</time></trkpt><trkpt lat="44.92549396683074" lon="11.483394281310288"><ele>8.0</ele><time>2026-04-23T10:06:32.999Z</time></trkpt><trkpt lat="44.92535907714109" lon="11.483181941897728"><ele>8.0</ele><time>2026-04-23T10:06:34Z</time></trkpt><trkpt lat="44.925215046235415" lon="11.482967299743759"><ele>8.0</ele><time>2026-04-23T10:06:35Z</time></trkpt><trkpt lat="44.92508273011953" lon="11.48273286508344"><ele>8.0</ele><time>2026-04-23T10:06:36Z</time></trkpt><trkpt lat="44.92495095181274" lon="11.482470373482235"><ele>8.0</ele><time>2026-04-23T10:06:37Z</time></trkpt><trkpt lat="44.92481127366325" lon="11.482186613891372"><ele>7.0</ele><time>2026-04-23T10:06:38Z</time></trkpt><trkpt lat="44.92465408440107" lon="11.481867334018592"><ele>6.0</ele><time>2026-04-23T10:06:39Z</time></trkpt><trkpt lat="44.92447766516028" lon="11.481510002378386"><ele>6.0</ele><time>2026-04-23T10:06:40Z</time></trkpt><trkpt lat="44.92430595205777" lon="11.481163553890982"><ele>6.0</ele><time>2026-04-23T10:06:41Z</time></trkpt><trkpt lat="44.92416129002527" lon="11.48087356580562"><ele>6.333333333333334</ele><time>2026-04-23T10:06:42Z</time></trkpt><trkpt lat="44.92402945273294" lon="11.480608608952103"><ele>6.666666666666667</ele><time>2026-04-23T10:06:43Z</time></trkpt><trkpt lat="44.923912057656395" lon="11.480371515113935"><ele>7.0</ele><time>2026-04-23T10:06:44Z</time></trkpt><trkpt lat="44.92380947144175" lon="11.480164327882383"><ele>7.0</ele><time>2026-04-23T10:06:45Z</time></trkpt><trkpt lat="44.92371232811586" lon="11.479970655481047"><ele>7.0</ele><time>2026-04-23T10:06:46Z</time></trkpt><trkpt lat="44.923621300573046" lon="11.479788853488568"><ele>7.0</ele><time>2026-04-23T10:06:47Z</time></trkpt><trkpt lat="44.923532057687005" lon="11.479598988114644"><ele>7.0</ele><time>2026-04-23T10:06:48Z</time></trkpt><trkpt lat="44.923456105500534" lon="11.4794200486695"><ele>7.0</ele><time>2026-04-23T10:06:49Z</time></trkpt><trkpt lat="44.92339946018069" lon="11.479249950138877"><ele>7.0</ele><time>2026-04-23T10:06:50Z</time></trkpt><trkpt lat="44.92336675841067" lon="11.479072812131053"><ele>7.0</ele><time>2026-04-23T10:06:51Z</time></trkpt><trkpt lat="44.923344311044424" lon="11.47887888603918"><ele>7.25</ele><time>2026-04-23T10:06:52Z</time></trkpt><trkpt lat="44.92334144709736" lon="11.47867099048646"><ele>7.5</ele><time>2026-04-23T10:06:53Z</time></trkpt><trkpt lat="44.92335444605723" lon="11.478460543300969"><ele>7.75</ele><time>2026-04-23T10:06:54Z</time></trkpt><trkpt lat="44.9233882115585" lon="11.478263888657569"><ele>8.0</ele><time>2026-04-23T10:06:55Z</time></trkpt><trkpt lat="44.92344709982782" lon="11.47806832785865"><ele>8.0</ele><time>2026-04-23T10:06:56Z</time></trkpt><trkpt lat="44.9235248887337" lon="11.477887640675496"><ele>8.0</ele><time>2026-04-23T10:06:57Z</time></trkpt><trkpt lat="44.92359986356656" lon="11.477707316711674"><ele>8.0</ele><time>2026-04-23T10:06:58Z</time></trkpt><trkpt lat="44.923680546774555" lon="11.477560669856388"><ele>8.0</ele><time>2026-04-23T10:06:59Z</time></trkpt><trkpt lat="44.9237442425518" lon="11.477409794545016"><ele>8.0</ele><time>2026-04-23T10:07:00Z</time></trkpt><trkpt lat="44.923799381648344" lon="11.477251169181502"><ele>8.0</ele><time>2026-04-23T10:07:01Z</time></trkpt><trkpt lat="44.92384153920244" lon="11.477058415596606"><ele>8.0</ele><time>2026-04-23T10:07:02Z</time></trkpt><trkpt lat="44.923891393028406" lon="11.476849384953194"><ele>8.0</ele><time>2026-04-23T10:07:03Z</time></trkpt><trkpt lat="44.92395292010967" lon="11.476642197440576"><ele>8.25</ele><time>2026-04-23T10:07:04Z</time></trkpt><trkpt lat="44.92400540728463" lon="11.476439464404343"><ele>8.5</ele><time>2026-04-23T10:07:05Z</time></trkpt><trkpt lat="44.92405071106434" lon="11.476253283814966"><ele>8.75</ele><time>2026-04-23T10:07:06Z</time></trkpt><trkpt lat="44.92407514751019" lon="11.47608501026967"><ele>9.0</ele><time>2026-04-23T10:07:07Z</time></trkpt><trkpt lat="44.924083877139104" lon="11.475929856327387"><ele>9.0</ele><time>2026-04-23T10:07:08Z</time></trkpt><trkpt lat="44.92409121541187" lon="11.475782274323533"><ele>9.0</ele><time>2026-04-23T10:07:09Z</time></trkpt><trkpt lat="44.924102149737706" lon="11.47561641030895"><ele>9.0</ele><time>2026-04-23T10:07:10Z</time></trkpt><trkpt lat="44.924105454924145" lon="11.475437549214469"><ele>9.0</ele><time>2026-04-23T10:07:11Z</time></trkpt><trkpt lat="44.9240891406545" lon="11.47523617372229"><ele>9.0</ele><time>2026-04-23T10:07:12Z</time></trkpt><trkpt lat="44.92406220320504" lon="11.475017758885652"><ele>9.0</ele><time>2026-04-23T10:07:13Z</time></trkpt><trkpt lat="44.92403256948055" lon="11.474785286645394"><ele>9.0</ele><time>2026-04-23T10:07:14Z</time></trkpt><trkpt lat="44.924007110587034" lon="11.474544733598272"><ele>9.0</ele><time>2026-04-23T10:07:15Z</time></trkpt><trkpt lat="44.92398393171161" lon="11.474301400446954"><ele>9.0</ele><time>2026-04-23T10:07:16Z</time></trkpt><trkpt lat="44.92395283585788" lon="11.47405687314912"><ele>9.0</ele><time>2026-04-23T10:07:17Z</time></trkpt><trkpt lat="44.923925928001296" lon="11.473795122176272"><ele>9.0</ele><time>2026-04-23T10:07:18Z</time></trkpt><trkpt lat="44.92390073694401" lon="11.473521454404807"><ele>9.0</ele><time>2026-04-23T10:07:19Z</time></trkpt><trkpt lat="44.923871412100006" lon="11.473246489142143"><ele>9.0</ele><time>2026-04-23T10:07:20Z</time></trkpt><trkpt lat="44.92384235719301" lon="11.47296827269967"><ele>9.0</ele><time>2026-04-23T10:07:21Z</time></trkpt><trkpt lat="44.92381541207984" lon="11.472686631792872"><ele>9.0</ele><time>2026-04-23T10:07:22Z</time></trkpt><trkpt lat="44.92378914704792" lon="11.47241535679111"><ele>9.0</ele><time>2026-04-23T10:07:23Z</time></trkpt><trkpt lat="44.92376783876807" lon="11.472163224584154"><ele>8.666666666666666</ele><time>2026-04-23T10:07:24Z</time></trkpt><trkpt lat="44.923740359678796" lon="11.471920864103904"><ele>8.333333333333332</ele><time>2026-04-23T10:07:25Z</time></trkpt><trkpt lat="44.92370124084226" lon="11.471678375298554"><ele>8.0</ele><time>2026-04-23T10:07:26Z</time></trkpt><trkpt lat="44.92364145218232" lon="11.471425996523822"><ele>7.666666666666666</ele><time>2026-04-23T10:07:27Z</time></trkpt><trkpt lat="44.923577116697246" lon="11.471164936867401"><ele>7.333333333333334</ele><time>2026-04-23T10:07:28Z</time></trkpt><trkpt lat="44.92344438003648" lon="11.470931236839876"><ele>7.0</ele><time>2026-04-23T10:07:29Z</time></trkpt><trkpt lat="44.923316262369966" lon="11.470685025914628"><ele>6.666666666666667</ele><time>2026-04-23T10:07:30Z</time></trkpt><trkpt lat="44.923193969028176" lon="11.4704299860302"><ele>6.333333333333334</ele><time>2026-04-23T10:07:31Z</time></trkpt><trkpt lat="44.923065450261625" lon="11.470192416158328"><ele>6.0</ele><time>2026-04-23T10:07:32Z</time></trkpt><trkpt lat="44.92295112922547" lon="11.469979995743373"><ele>6.0</ele><time>2026-04-23T10:07:33Z</time></trkpt><trkpt lat="44.922851699375" lon="11.46978570582871"><ele>6.0</ele><time>2026-04-23T10:07:34Z</time></trkpt><trkpt lat="44.92276739092643" lon="11.469598180238798"><ele>6.0</ele><time>2026-04-23T10:07:35Z</time></trkpt><trkpt lat="44.922704549913774" lon="11.469402116982405"><ele>6.333333333333334</ele><time>2026-04-23T10:07:36Z</time></trkpt><trkpt lat="44.92267172227638" lon="11.469198196683221"><ele>6.666666666666667</ele><time>2026-04-23T10:07:37Z</time></trkpt><trkpt lat="44.9226582070834" lon="11.468980892796672"><ele>7.0</ele><time>2026-04-23T10:07:38Z</time></trkpt><trkpt lat="44.92267201122008" lon="11.468732780203085"><ele>7.0</ele><time>2026-04-23T10:07:39Z</time></trkpt><trkpt lat="44.92269903714964" lon="11.468467464360286"><ele>7.0</ele><time>2026-04-23T10:07:40Z</time></trkpt><trkpt lat="44.92272030652112" lon="11.468185127950488"><ele>7.0</ele><time>2026-04-23T10:07:41Z</time></trkpt><trkpt lat="44.92275542128614" lon="11.467899173226966"><ele>7.333333333333334</ele><time>2026-04-23T10:07:41.999Z</time></trkpt><trkpt lat="44.922786744308844" lon="11.467640659598574"><ele>7.666666666666666</ele><time>2026-04-23T10:07:42.999Z</time></trkpt><trkpt lat="44.92282566480926" lon="11.467408694823883"><ele>8.0</ele><time>2026-04-23T10:07:43.999Z</time></trkpt><trkpt lat="44.92287377574543" lon="11.467168411176639"><ele>8.0</ele><time>2026-04-23T10:07:44.999Z</time></trkpt><trkpt lat="44.92293706723513" lon="11.466928280283138"><ele>8.0</ele><time>2026-04-23T10:07:45.999Z</time></trkpt><trkpt lat="44.923015954212005" lon="11.466697379743135"><ele>8.0</ele><time>2026-04-23T10:07:46.999Z</time></trkpt><trkpt lat="44.92311002697073" lon="11.466478149839496"><ele>8.0</ele><time>2026-04-23T10:07:47.999Z</time></trkpt><trkpt lat="44.92321505114129" lon="11.466284714466175"><ele>8.0</ele><time>2026-04-23T10:07:48.999Z</time></trkpt><trkpt lat="44.923306776220535" lon="11.466119045298665"><ele>8.0</ele><time>2026-04-23T10:07:49.999Z</time></trkpt><trkpt lat="44.923380301385215" lon="11.465951760462561"><ele>7.333333333333333</ele><time>2026-04-23T10:07:50.999Z</time></trkpt><trkpt lat="44.92342894509333" lon="11.465749247658247"><ele>6.666666666666666</ele><time>2026-04-23T10:07:51.999Z</time></trkpt><trkpt lat="44.92345074037025" lon="11.465525764364306"><ele>6.0</ele><time>2026-04-23T10:07:52.999Z</time></trkpt><trkpt lat="44.92345808411169" lon="11.465287611776917"><ele>6.0</ele><time>2026-04-23T10:07:53.999Z</time></trkpt><trkpt lat="44.923452230569154" lon="11.46503951198537"><ele>6.0</ele><time>2026-04-23T10:07:54.999Z</time></trkpt><trkpt lat="44.92343256818634" lon="11.46477643389365"><ele>6.0</ele><time>2026-04-23T10:07:55.999Z</time></trkpt><trkpt lat="44.92339978170489" lon="11.464511219583324"><ele>6.0</ele><time>2026-04-23T10:07:56.999Z</time></trkpt><trkpt lat="44.923350943221244" lon="11.464232574791804"><ele>6.0</ele><time>2026-04-23T10:07:57.999Z</time></trkpt><trkpt lat="44.92331062375847" lon="11.46393503678979"><ele>6.0</ele><time>2026-04-23T10:07:58.999Z</time></trkpt><trkpt lat="44.923260118390424" lon="11.463636097321524"><ele>6.0</ele><time>2026-04-23T10:07:59.999Z</time></trkpt><trkpt lat="44.9232224992671" lon="11.463319221897708"><ele>6.0</ele><time>2026-04-23T10:08:00.999Z</time></trkpt><trkpt lat="44.92319625782494" lon="11.46297544394211"><ele>6.0</ele><time>2026-04-23T10:08:01.999Z</time></trkpt><trkpt lat="44.92317118386306" lon="11.462643769204151"><ele>6.0</ele><time>2026-04-23T10:08:02.999Z</time></trkpt><trkpt lat="44.92314742149453" lon="11.46235801906664"><ele>6.0</ele><time>2026-04-23T10:08:03.999Z</time></trkpt><trkpt lat="44.92311886946546" lon="11.462098095301863"><ele>6.666666666666666</ele><time>2026-04-23T10:08:04.999Z</time></trkpt><trkpt lat="44.92308845160495" lon="11.46185717497208"><ele>7.333333333333333</ele><time>2026-04-23T10:08:05.999Z</time></trkpt><trkpt lat="44.92306030183813" lon="11.461611899777129"><ele>8.0</ele><time>2026-04-23T10:08:06.999Z</time></trkpt><trkpt lat="44.92307809204354" lon="11.461354686221096"><ele>8.0</ele><time>2026-04-23T10:08:07.999Z</time></trkpt><trkpt lat="44.923101224224304" lon="11.46111594779501"><ele>8.0</ele><time>2026-04-23T10:08:08.999Z</time></trkpt><trkpt lat="44.923117079384674" lon="11.460879621389353"><ele>8.0</ele><time>2026-04-23T10:08:09.999Z</time></trkpt><trkpt lat="44.92310970306975" lon="11.460661190345649"><ele>8.0</ele><time>2026-04-23T10:08:10.999Z</time></trkpt><trkpt lat="44.923087696913655" lon="11.460452237788818"><ele>8.0</ele><time>2026-04-23T10:08:11.999Z</time></trkpt><trkpt lat="44.92305261057278" lon="11.460233108471712"><ele>8.0</ele><time>2026-04-23T10:08:12.999Z</time></trkpt><trkpt lat="44.92300029417192" lon="11.460022783479046"><ele>8.0</ele><time>2026-04-23T10:08:13.999Z</time></trkpt><trkpt lat="44.922928548901616" lon="11.459824233387454"><ele>8.0</ele><time>2026-04-23T10:08:14.999Z</time></trkpt><trkpt lat="44.922836159577834" lon="11.459636955119239"><ele>8.0</ele><time>2026-04-23T10:08:15.999Z</time></trkpt><trkpt lat="44.92272580785194" lon="11.45946222017876"><ele>7.333333333333333</ele><time>2026-04-23T10:08:16.999Z</time></trkpt><trkpt lat="44.92259584697674" lon="11.459305631708952"><ele>6.666666666666666</ele><time>2026-04-23T10:08:17.999Z</time></trkpt><trkpt lat="44.92244715840022" lon="11.459163169452975"><ele>6.0</ele><time>2026-04-23T10:08:18.999Z</time></trkpt><trkpt lat="44.922280942318466" lon="11.459037211528907"><ele>6.0</ele><time>2026-04-23T10:08:19.999Z</time></trkpt><trkpt lat="44.9220943754013" lon="11.45893036640524"><ele>6.0</ele><time>2026-04-23T10:08:20.999Z</time></trkpt><trkpt lat="44.921901861447694" lon="11.458816734036661"><ele>6.0</ele><time>2026-04-23T10:08:21.999Z</time></trkpt><trkpt lat="44.92169932893508" lon="11.458716509443143"><ele>6.0</ele><time>2026-04-23T10:08:22.999Z</time></trkpt><trkpt lat="44.92149584230515" lon="11.458614401910655"><ele>6.0</ele><time>2026-04-23T10:08:23.999Z</time></trkpt><trkpt lat="44.921311109110334" lon="11.458506259429965"><ele>6.0</ele><time>2026-04-23T10:08:24.999Z</time></trkpt><trkpt lat="44.92113625417295" lon="11.458377970538535"><ele>6.0</ele><time>2026-04-23T10:08:25.999Z</time></trkpt><trkpt lat="44.920967059691655" lon="11.458242461558156"><ele>6.0</ele><time>2026-04-23T10:08:26.999Z</time></trkpt><trkpt lat="44.92080198939925" lon="11.458102940714321"><ele>6.0</ele><time>2026-04-23T10:08:27.999Z</time></trkpt><trkpt lat="44.92064720505668" lon="11.457969092921635"><ele>6.0</ele><time>2026-04-23T10:08:28.999Z</time></trkpt><trkpt lat="44.920515636510224" lon="11.457832574489368"><ele>6.0</ele><time>2026-04-23T10:08:29.999Z</time></trkpt><trkpt lat="44.92039685144744" lon="11.457686680740359"><ele>6.0</ele><time>2026-04-23T10:08:30.999Z</time></trkpt><trkpt lat="44.9202899662772" lon="11.457523460166742"><ele>6.0</ele><time>2026-04-23T10:08:31.999Z</time></trkpt><trkpt lat="44.92020626812715" lon="11.45733494247273"><ele>6.0</ele><time>2026-04-23T10:08:32.999Z</time></trkpt><trkpt lat="44.920141703052444" lon="11.457132759384148"><ele>6.0</ele><time>2026-04-23T10:08:33.999Z</time></trkpt><trkpt lat="44.9200986888889" lon="11.456928780663606"><ele>6.0</ele><time>2026-04-23T10:08:34.999Z</time></trkpt><trkpt lat="44.92007958541446" lon="11.456737894268043"><ele>6.0</ele><time>2026-04-23T10:08:35.999Z</time></trkpt><trkpt lat="44.92007229873357" lon="11.456550737290597"><ele>6.0</ele><time>2026-04-23T10:08:36.999Z</time></trkpt><trkpt lat="44.92009984049554" lon="11.456362895333754"><ele>6.0</ele><time>2026-04-23T10:08:37.999Z</time></trkpt><trkpt lat="44.920146859250934" lon="11.456181585642868"><ele>6.0</ele><time>2026-04-23T10:08:38.999Z</time></trkpt><trkpt lat="44.92019488763549" lon="11.456000635567218"><ele>6.0</ele><time>2026-04-23T10:08:40Z</time></trkpt><trkpt lat="44.920243140093845" lon="11.455811797804683"><ele>6.0</ele><time>2026-04-23T10:08:41Z</time></trkpt><trkpt lat="44.9202911839121" lon="11.455618600171945"><ele>6.0</ele><time>2026-04-23T10:08:42Z</time></trkpt><trkpt lat="44.920354091987875" lon="11.455422449366347"><ele>6.0</ele><time>2026-04-23T10:08:43Z</time></trkpt><trkpt lat="44.920438008937204" lon="11.455230288752816"><ele>6.0</ele><time>2026-04-23T10:08:44Z</time></trkpt><trkpt lat="44.920539882467295" lon="11.455049885603584"><ele>6.0</ele><time>2026-04-23T10:08:45Z</time></trkpt><trkpt lat="44.92066223899555" lon="11.454879449145762"><ele>6.0</ele><time>2026-04-23T10:08:46Z</time></trkpt><trkpt lat="44.92078071220891" lon="11.454721091820081"><ele>6.0</ele><time>2026-04-23T10:08:47Z</time></trkpt><trkpt lat="44.92087884174833" lon="11.454578463036121"><ele>6.0</ele><time>2026-04-23T10:08:48Z</time></trkpt><trkpt lat="44.92096687635689" lon="11.454428709989402"><ele>6.0</ele><time>2026-04-23T10:08:49Z</time></trkpt><trkpt lat="44.92105071049571" lon="11.454263234773503"><ele>6.0</ele><time>2026-04-23T10:08:50Z</time></trkpt><trkpt lat="44.921123786420615" lon="11.45406992526761"><ele>6.0</ele><time>2026-04-23T10:08:51Z</time></trkpt><trkpt lat="44.921198161514475" lon="11.453874749265523"><ele>6.0</ele><time>2026-04-23T10:08:52Z</time></trkpt><trkpt lat="44.921289692905404" lon="11.45369641612896"><ele>6.666666666666666</ele><time>2026-04-23T10:08:53Z</time></trkpt><trkpt lat="44.92140515856805" lon="11.453538254571379"><ele>7.333333333333333</ele><time>2026-04-23T10:08:54Z</time></trkpt><trkpt lat="44.92154652906316" lon="11.453398567829288"><ele>8.0</ele><time>2026-04-23T10:08:55Z</time></trkpt><trkpt lat="44.92171517031797" lon="11.453272580717309"><ele>8.666666666666666</ele><time>2026-04-23T10:08:56Z</time></trkpt><trkpt lat="44.9218990422802" lon="11.453157773270974"><ele>9.333333333333334</ele><time>2026-04-23T10:08:57Z</time></trkpt><trkpt lat="44.92208401721088" lon="11.4530515576482"><ele>10.0</ele><time>2026-04-23T10:08:58Z</time></trkpt><trkpt lat="44.922264556478495" lon="11.452948992857511"><ele>10.0</ele><time>2026-04-23T10:08:59Z</time></trkpt><trkpt lat="44.92244153830172" lon="11.452844608298971"><ele>10.0</ele><time>2026-04-23T10:09:00Z</time></trkpt><trkpt lat="44.92262464312712" lon="11.452742548662995"><ele>10.0</ele><time>2026-04-23T10:09:01Z</time></trkpt><trkpt lat="44.9228056176354" lon="11.452649281797923"><ele>9.666666666666668</ele><time>2026-04-23T10:09:02Z</time></trkpt><trkpt lat="44.92297536320135" lon="11.452561565425178"><ele>9.333333333333334</ele><time>2026-04-23T10:09:03Z</time></trkpt><trkpt lat="44.92314415114751" lon="11.452476790842905"><ele>9.0</ele><time>2026-04-23T10:09:04Z</time></trkpt><trkpt lat="44.92330543880711" lon="11.452396997318276"><ele>8.666666666666666</ele><time>2026-04-23T10:09:05Z</time></trkpt><trkpt lat="44.923454502397284" lon="11.452313825757397"><ele>8.333333333333332</ele><time>2026-04-23T10:09:06Z</time></trkpt><trkpt lat="44.923600151739656" lon="11.452235765541586"><ele>8.0</ele><time>2026-04-23T10:09:07Z</time></trkpt><trkpt lat="44.92374065847661" lon="11.45215959211389"><ele>8.25</ele><time>2026-04-23T10:09:08Z</time></trkpt><trkpt lat="44.9238721909236" lon="11.452091017790766"><ele>8.5</ele><time>2026-04-23T10:09:09Z</time></trkpt><trkpt lat="44.92400855062335" lon="11.452007418329805"><ele>8.75</ele><time>2026-04-23T10:09:10Z</time></trkpt><trkpt lat="44.92415150205696" lon="11.451921792889932"><ele>9.0</ele><time>2026-04-23T10:09:11Z</time></trkpt><trkpt lat="44.924283724123036" lon="11.451777865380768"><ele>9.0</ele><time>2026-04-23T10:09:12Z</time></trkpt><trkpt lat="44.92442633314984" lon="11.45164116028177"><ele>9.0</ele><time>2026-04-23T10:09:13Z</time></trkpt><trkpt lat="44.924572788522184" lon="11.451501869017568"><ele>9.0</ele><time>2026-04-23T10:09:14Z</time></trkpt><trkpt lat="44.92472042440807" lon="11.451362790914398"><ele>8.666666666666666</ele><time>2026-04-23T10:09:15Z</time></trkpt><trkpt lat="44.92486510127204" lon="11.451222649255428"><ele>8.333333333333332</ele><time>2026-04-23T10:09:16Z</time></trkpt><trkpt lat="44.925007342647106" lon="11.451077905070214"><ele>8.0</ele><time>2026-04-23T10:09:17Z</time></trkpt><trkpt lat="44.925143823308055" lon="11.450926392236353"><ele>8.0</ele><time>2026-04-23T10:09:18Z</time></trkpt><trkpt lat="44.92527289629986" lon="11.45076151794174"><ele>8.0</ele><time>2026-04-23T10:09:19Z</time></trkpt><trkpt lat="44.9253900562989" lon="11.450563668895004"><ele>8.0</ele><time>2026-04-23T10:09:20Z</time></trkpt><trkpt lat="44.92552172982753" lon="11.450367560100945"><ele>8.0</ele><time>2026-04-23T10:09:21Z</time></trkpt><trkpt lat="44.925646457303294" lon="11.450149776333324"><ele>8.0</ele><time>2026-04-23T10:09:22Z</time></trkpt><trkpt lat="44.925752636935506" lon="11.44992403629179"><ele>8.0</ele><time>2026-04-23T10:09:23Z</time></trkpt><trkpt lat="44.9258620786479" lon="11.449731618433878"><ele>8.0</ele><time>2026-04-23T10:09:24Z</time></trkpt><trkpt lat="44.92596314682436" lon="11.449541392427806"><ele>8.0</ele><time>2026-04-23T10:09:25Z</time></trkpt><trkpt lat="44.92605302329911" lon="11.449347774969963"><ele>8.0</ele><time>2026-04-23T10:09:26Z</time></trkpt><trkpt lat="44.9261421882956" lon="11.449146659483706"><ele>8.0</ele><time>2026-04-23T10:09:27Z</time></trkpt><trkpt lat="44.926235390982725" lon="11.448949962249483"><ele>8.0</ele><time>2026-04-23T10:09:28Z</time></trkpt><trkpt lat="44.92632327381587" lon="11.448771295994522"><ele>8.0</ele><time>2026-04-23T10:09:29Z</time></trkpt><trkpt lat="44.92640467431725" lon="11.44860378660879"><ele>8.25</ele><time>2026-04-23T10:09:30Z</time></trkpt><trkpt lat="44.92647861033098" lon="11.448442863446003"><ele>8.5</ele><time>2026-04-23T10:09:31Z</time></trkpt><trkpt lat="44.926553015931326" lon="11.448277952300709"><ele>8.75</ele><time>2026-04-23T10:09:32Z</time></trkpt><trkpt lat="44.926626138083954" lon="11.448108413910541"><ele>9.0</ele><time>2026-04-23T10:09:33Z</time></trkpt><trkpt lat="44.92669660517194" lon="11.447935075199664"><ele>8.75</ele><time>2026-04-23T10:09:34Z</time></trkpt><trkpt lat="44.926762188630434" lon="11.447770134915045"><ele>8.5</ele><time>2026-04-23T10:09:35Z</time></trkpt><trkpt lat="44.926828363754325" lon="11.44759805718478"><ele>8.25</ele><time>2026-04-23T10:09:36Z</time></trkpt><trkpt lat="44.92689154531655" lon="11.447420933619156"><ele>8.0</ele><time>2026-04-23T10:09:37Z</time></trkpt><trkpt lat="44.926956546101636" lon="11.447237371880798"><ele>7.666666666666666</ele><time>2026-04-23T10:09:38Z</time></trkpt><trkpt lat="44.92702848883626" lon="11.447048401090237"><ele>7.333333333333334</ele><time>2026-04-23T10:09:39Z</time></trkpt><trkpt lat="44.92710112738595" lon="11.446855878576372"><ele>7.0</ele><time>2026-04-23T10:09:40Z</time></trkpt><trkpt lat="44.92717816910742" lon="11.44666371756801"><ele>7.0</ele><time>2026-04-23T10:09:41Z</time></trkpt><trkpt lat="44.92725660530611" lon="11.446469783322982"><ele>7.0</ele><time>2026-04-23T10:09:42Z</time></trkpt><trkpt lat="44.92734659556797" lon="11.446282521069714"><ele>7.0</ele><time>2026-04-23T10:09:43Z</time></trkpt><trkpt lat="44.92744229252546" lon="11.446105482800288"><ele>7.25</ele><time>2026-04-23T10:09:44Z</time></trkpt><trkpt lat="44.92753453195014" lon="11.445934236270196"><ele>7.5</ele><time>2026-04-23T10:09:45Z</time></trkpt><trkpt lat="44.927614596348285" lon="11.44577352338264"><ele>7.75</ele><time>2026-04-23T10:09:45.999Z</time></trkpt><trkpt lat="44.92768083376587" lon="11.445622892972636"><ele>8.0</ele><time>2026-04-23T10:09:46.999Z</time></trkpt><trkpt lat="44.927731149000365" lon="11.44545788314808"><ele>8.0</ele><time>2026-04-23T10:09:47.999Z</time></trkpt><trkpt lat="44.92777042970466" lon="11.44525292286772"><ele>8.0</ele><time>2026-04-23T10:09:48.999Z</time></trkpt><trkpt lat="44.927767561604654" lon="11.445029741652776"><ele>8.0</ele><time>2026-04-23T10:09:49.999Z</time></trkpt><trkpt lat="44.92778324199049" lon="11.444787439906154"><ele>8.0</ele><time>2026-04-23T10:09:50.999Z</time></trkpt><trkpt lat="44.92778719400936" lon="11.444537251477314"><ele>8.0</ele><time>2026-04-23T10:09:51.999Z</time></trkpt><trkpt lat="44.92777766323118" lon="11.444291015139946"><ele>8.0</ele><time>2026-04-23T10:09:52.999Z</time></trkpt><trkpt lat="44.927783568576054" lon="11.444066682918368"><ele>8.0</ele><time>2026-04-23T10:09:53.999Z</time></trkpt><trkpt lat="44.927804960166725" lon="11.443863326966508"><ele>8.0</ele><time>2026-04-23T10:09:54.999Z</time></trkpt><trkpt lat="44.92779572167432" lon="11.443673294104572"><ele>8.0</ele><time>2026-04-23T10:09:55.999Z</time></trkpt><trkpt lat="44.927802708366855" lon="11.443498383309073"><ele>8.0</ele><time>2026-04-23T10:09:56.999Z</time></trkpt><trkpt lat="44.927801510298465" lon="11.44332758370107"><ele>8.4</ele><time>2026-04-23T10:09:57.999Z</time></trkpt><trkpt lat="44.92778834251945" lon="11.443168364084647"><ele>8.8</ele><time>2026-04-23T10:09:58.999Z</time></trkpt><trkpt lat="44.92775817096988" lon="11.443029646967673"><ele>9.2</ele><time>2026-04-23T10:09:59.999Z</time></trkpt><trkpt lat="44.92770947185677" lon="11.442915172009334"><ele>9.6</ele><time>2026-04-23T10:10:00.999Z</time></trkpt><trkpt lat="44.92762608812799" lon="11.44280111900429"><ele>10.0</ele><time>2026-04-23T10:10:01.999Z</time></trkpt><trkpt lat="44.92750984332087" lon="11.44268887723422"><ele>10.666666666666668</ele><time>2026-04-23T10:10:02.999Z</time></trkpt><trkpt lat="44.92737293274198" lon="11.442571167752035"><ele>11.333333333333334</ele><time>2026-04-23T10:10:03.999Z</time></trkpt><trkpt lat="44.92722089163018" lon="11.442445742536211"><ele>12.0</ele><time>2026-04-23T10:10:04.999Z</time></trkpt><trkpt lat="44.92707442615907" lon="11.442324545297991"><ele>12.0</ele><time>2026-04-23T10:10:05.999Z</time></trkpt><trkpt lat="44.926969589638034" lon="11.44221465424959"><ele>12.0</ele><time>2026-04-23T10:10:06.999Z</time></trkpt><trkpt lat="44.926881648155025" lon="11.442134650787958"><ele>12.0</ele><time>2026-04-23T10:10:07.999Z</time></trkpt><trkpt lat="44.92681061577897" lon="11.442065851004386"><ele>12.0</ele><time>2026-04-23T10:10:08.999Z</time></trkpt><trkpt lat="44.92675248673859" lon="11.441998296449752"><ele>12.0</ele><time>2026-04-23T10:10:09.999Z</time></trkpt><trkpt lat="44.9267051383077" lon="11.441935577156185"><ele>12.285714285714285</ele><time>2026-04-23T10:10:10.999Z</time></trkpt><trkpt lat="44.92665955899046" lon="11.441868717814634"><ele>12.571428571428571</ele><time>2026-04-23T10:10:11.999Z</time></trkpt><trkpt lat="44.926609707100695" lon="11.441809703044104"><ele>12.857142857142858</ele><time>2026-04-23T10:10:12.999Z</time></trkpt><trkpt lat="44.92657337903528" lon="11.441728642108739"><ele>13.142857142857142</ele><time>2026-04-23T10:10:13.999Z</time></trkpt><trkpt lat="44.92656609155722" lon="11.441631980759917"><ele>13.428571428571429</ele><time>2026-04-23T10:10:14.999Z</time></trkpt><trkpt lat="44.92654465963581" lon="11.441541181787601"><ele>13.714285714285714</ele><time>2026-04-23T10:10:15.999Z</time></trkpt><trkpt lat="44.92655324707683" lon="11.441439934213086"><ele>14.0</ele><time>2026-04-23T10:10:16.999Z</time></trkpt><trkpt lat="44.92655901026466" lon="11.441326874919426"><ele>13.6</ele><time>2026-04-23T10:10:17.999Z</time></trkpt><trkpt lat="44.926555620590534" lon="11.441189539584709"><ele>13.2</ele><time>2026-04-23T10:10:18.999Z</time></trkpt><trkpt lat="44.92657171364298" lon="11.441049125572192"><ele>12.799999999999999</ele><time>2026-04-23T10:10:19.999Z</time></trkpt><trkpt lat="44.92658706499776" lon="11.440907810666056"><ele>12.399999999999999</ele><time>2026-04-23T10:10:20.999Z</time></trkpt><trkpt lat="44.926601747243026" lon="11.440785416463411"><ele>12.0</ele><time>2026-04-23T10:10:21.999Z</time></trkpt><trkpt lat="44.926613595312105" lon="11.4406759558043"><ele>12.0</ele><time>2026-04-23T10:10:22.999Z</time></trkpt><trkpt lat="44.92662186259809" lon="11.440578407990921"><ele>12.0</ele><time>2026-04-23T10:10:23.999Z</time></trkpt><trkpt lat="44.926632173111756" lon="11.440413830188556"><ele>12.0</ele><time>2026-04-23T10:10:25.999Z</time></trkpt><trkpt lat="44.92664406655279" lon="11.440287376378937"><ele>12.0</ele><time>2026-04-23T10:10:27.999Z</time></trkpt><trkpt lat="44.926618572977226" lon="11.44019078668229"><ele>12.0</ele><time>2026-04-23T10:10:29.999Z</time></trkpt><trkpt lat="44.92657996024787" lon="11.440115075518705"><ele>12.0</ele><time>2026-04-23T10:10:32.999Z</time></trkpt><trkpt lat="44.92647542583998" lon="11.440100317785534"><ele>12.166666666666666</ele><time>2026-04-23T10:11:55.999Z</time></trkpt><trkpt lat="44.926414636254094" lon="11.440072846976395"><ele>12.333333333333332</ele><time>2026-04-23T10:11:56.999Z</time></trkpt><trkpt lat="44.926342345896245" lon="11.440024988135733"><ele>12.5</ele><time>2026-04-23T10:11:57.999Z</time></trkpt><trkpt lat="44.92627461373795" lon="11.439984331382252"><ele>12.666666666666666</ele><time>2026-04-23T10:11:58.999Z</time></trkpt><trkpt lat="44.92620035463686" lon="11.439940363335703"><ele>12.833333333333332</ele><time>2026-04-23T10:11:59.999Z</time></trkpt><trkpt lat="44.92611731256574" lon="11.439889710924577"><ele>13.0</ele><time>2026-04-23T10:12:00.999Z</time></trkpt><trkpt lat="44.92601959186004" lon="11.43983161467494"><ele>13.0</ele><time>2026-04-23T10:12:01.999Z</time></trkpt><trkpt lat="44.92591832222639" lon="11.439767769319417"><ele>13.0</ele><time>2026-04-23T10:12:02.999Z</time></trkpt><trkpt lat="44.9258139299418" lon="11.439707213206779"><ele>13.0</ele><time>2026-04-23T10:12:03.999Z</time></trkpt><trkpt lat="44.925717623764164" lon="11.43965677127481"><ele>13.0</ele><time>2026-04-23T10:12:04.999Z</time></trkpt><trkpt lat="44.92562788604428" lon="11.439606233903927"><ele>13.0</ele><time>2026-04-23T10:12:05.999Z</time></trkpt><trkpt lat="44.92553713649686" lon="11.439551119789677"><ele>12.4</ele><time>2026-04-23T10:12:06.999Z</time></trkpt><trkpt lat="44.92544641761746" lon="11.439496311982172"><ele>11.8</ele><time>2026-04-23T10:12:07.999Z</time></trkpt><trkpt lat="44.92536582067626" lon="11.43944446560679"><ele>11.2</ele><time>2026-04-23T10:12:08.999Z</time></trkpt><trkpt lat="44.92529659947089" lon="11.439387288392663"><ele>10.6</ele><time>2026-04-23T10:12:09.999Z</time></trkpt><trkpt lat="44.92522792252862" lon="11.439296728255234"><ele>10.0</ele><time>2026-04-23T10:12:10.999Z</time></trkpt><trkpt lat="44.92516588060365" lon="11.439180901589612"><ele>10.0</ele><time>2026-04-23T10:12:11.999Z</time></trkpt><trkpt lat="44.92512029831127" lon="11.439031031640884"><ele>10.0</ele><time>2026-04-23T10:12:12.999Z</time></trkpt><trkpt lat="44.925088758418546" lon="11.438849455864847"><ele>10.0</ele><time>2026-04-23T10:12:13.999Z</time></trkpt><trkpt lat="44.92507088889517" lon="11.438645679553481"><ele>10.0</ele><time>2026-04-23T10:12:14.999Z</time></trkpt><trkpt lat="44.92507223194574" lon="11.438439329676468"><ele>10.0</ele><time>2026-04-23T10:12:15.999Z</time></trkpt><trkpt lat="44.92508094185172" lon="11.438253294283383"><ele>10.0</ele><time>2026-04-23T10:12:16.999Z</time></trkpt><trkpt lat="44.925089211319545" lon="11.438081024774348"><ele>10.0</ele><time>2026-04-23T10:12:17.999Z</time></trkpt><trkpt lat="44.92511168165506" lon="11.437930535644668"><ele>10.0</ele><time>2026-04-23T10:12:18.999Z</time></trkpt><trkpt lat="44.925129150084175" lon="11.437792182574817"><ele>9.8</ele><time>2026-04-23T10:12:19.999Z</time></trkpt><trkpt lat="44.92514278761203" lon="11.437656763131566"><ele>9.6</ele><time>2026-04-23T10:12:20.999Z</time></trkpt><trkpt lat="44.925143909266744" lon="11.437518674467565"><ele>9.4</ele><time>2026-04-23T10:12:21.999Z</time></trkpt><trkpt lat="44.925125067347295" lon="11.437371492500947"><ele>9.2</ele><time>2026-04-23T10:12:22.999Z</time></trkpt><trkpt lat="44.92507501593305" lon="11.437233848507972"><ele>9.0</ele><time>2026-04-23T10:12:23.999Z</time></trkpt><trkpt lat="44.92499502949495" lon="11.437112553184836"><ele>8.75</ele><time>2026-04-23T10:12:24.999Z</time></trkpt><trkpt lat="44.92489074196613" lon="11.437005113070013"><ele>8.5</ele><time>2026-04-23T10:12:25.999Z</time></trkpt><trkpt lat="44.9247534274194" lon="11.436911003997546"><ele>8.25</ele><time>2026-04-23T10:12:26.999Z</time></trkpt><trkpt lat="44.924614955563975" lon="11.436809706153065"><ele>8.0</ele><time>2026-04-23T10:12:27.999Z</time></trkpt><trkpt lat="44.92447639278616" lon="11.436694402617878"><ele>8.0</ele><time>2026-04-23T10:12:28.999Z</time></trkpt><trkpt lat="44.924345841276" lon="11.436570755046555"><ele>8.0</ele><time>2026-04-23T10:12:29.999Z</time></trkpt><trkpt lat="44.92423287937602" lon="11.43640358310897"><ele>8.0</ele><time>2026-04-23T10:12:30.999Z</time></trkpt><trkpt lat="44.92410982918189" lon="11.436220483163885"><ele>7.333333333333333</ele><time>2026-04-23T10:12:31.999Z</time></trkpt><trkpt lat="44.923971328016975" lon="11.43604290570822"><ele>6.666666666666666</ele><time>2026-04-23T10:12:32.999Z</time></trkpt><trkpt lat="44.923843683692816" lon="11.435843357903916"><ele>6.0</ele><time>2026-04-23T10:12:33.999Z</time></trkpt><trkpt lat="44.92372143455605" lon="11.435657722881768"><ele>6.0</ele><time>2026-04-23T10:12:34.999Z</time></trkpt><trkpt lat="44.92359915290672" lon="11.43547040202616"><ele>6.0</ele><time>2026-04-23T10:12:35.999Z</time></trkpt><trkpt lat="44.923472423982695" lon="11.435283179746211"><ele>6.0</ele><time>2026-04-23T10:12:36.999Z</time></trkpt><trkpt lat="44.923365695040715" lon="11.435083504606336"><ele>6.0</ele><time>2026-04-23T10:12:37.999Z</time></trkpt><trkpt lat="44.92326209816272" lon="11.434893809364837"><ele>6.0</ele><time>2026-04-23T10:12:38.999Z</time></trkpt><trkpt lat="44.92318318429048" lon="11.434726769583975"><ele>6.0</ele><time>2026-04-23T10:12:39.999Z</time></trkpt><trkpt lat="44.923099764770306" lon="11.434587686517204"><ele>6.0</ele><time>2026-04-23T10:12:40.999Z</time></trkpt><trkpt lat="44.92303482891594" lon="11.434436288801646"><ele>6.0</ele><time>2026-04-23T10:12:41.999Z</time></trkpt><trkpt lat="44.922933101286596" lon="11.434295627392261"><ele>6.0</ele><time>2026-04-23T10:12:42.999Z</time></trkpt><trkpt lat="44.922808784222255" lon="11.43416959863409"><ele>6.0</ele><time>2026-04-23T10:12:43.999Z</time></trkpt><trkpt lat="44.92266814906648" lon="11.434047941325458"><ele>6.333333333333334</ele><time>2026-04-23T10:12:44.999Z</time></trkpt><trkpt lat="44.92251216315525" lon="11.433920331495852"><ele>6.666666666666667</ele><time>2026-04-23T10:12:45.999Z</time></trkpt><trkpt lat="44.922342600195826" lon="11.433781614197159"><ele>7.0</ele><time>2026-04-23T10:12:46.999Z</time></trkpt><trkpt lat="44.92217859627455" lon="11.433642078761725"><ele>7.0</ele><time>2026-04-23T10:12:47.999Z</time></trkpt><trkpt lat="44.9220146499503" lon="11.433502437254214"><ele>7.0</ele><time>2026-04-23T10:12:48.999Z</time></trkpt><trkpt lat="44.92184361475173" lon="11.433358055711057"><ele>7.0</ele><time>2026-04-23T10:12:49.999Z</time></trkpt><trkpt lat="44.92168471693604" lon="11.433226687486576"><ele>7.0</ele><time>2026-04-23T10:12:50.999Z</time></trkpt><trkpt lat="44.921545138665216" lon="11.43311197425695"><ele>7.0</ele><time>2026-04-23T10:12:51.999Z</time></trkpt><trkpt lat="44.92141647423183" lon="11.433008191370085"><ele>7.0</ele><time>2026-04-23T10:12:52.999Z</time></trkpt><trkpt lat="44.92129875051015" lon="11.432910424380964"><ele>7.0</ele><time>2026-04-23T10:12:53.999Z</time></trkpt><trkpt lat="44.92118900420326" lon="11.432814744982227"><ele>7.0</ele><time>2026-04-23T10:12:54.999Z</time></trkpt><trkpt lat="44.92107735182787" lon="11.432697725331497"><ele>7.0</ele><time>2026-04-23T10:12:55.999Z</time></trkpt><trkpt lat="44.92097811435491" lon="11.432541687858253"><ele>7.0</ele><time>2026-04-23T10:12:56.999Z</time></trkpt><trkpt lat="44.92086873695148" lon="11.432366839051788"><ele>7.0</ele><time>2026-04-23T10:12:57.999Z</time></trkpt><trkpt lat="44.920779427548176" lon="11.432166464437508"><ele>7.0</ele><time>2026-04-23T10:12:58.999Z</time></trkpt><trkpt lat="44.920692102347545" lon="11.431966366866797"><ele>7.0</ele><time>2026-04-23T10:12:59.999Z</time></trkpt><trkpt lat="44.920597269543606" lon="11.431777940728171"><ele>7.333333333333334</ele><time>2026-04-23T10:13:00.999Z</time></trkpt><trkpt lat="44.92049572857709" lon="11.431616727476628"><ele>7.666666666666666</ele><time>2026-04-23T10:13:01.999Z</time></trkpt><trkpt lat="44.920385857974225" lon="11.43147183894398"><ele>8.0</ele><time>2026-04-23T10:13:02.999Z</time></trkpt><trkpt lat="44.92025785680082" lon="11.431343935558305"><ele>7.666666666666666</ele><time>2026-04-23T10:13:03.999Z</time></trkpt><trkpt lat="44.920114902110846" lon="11.431233325120965"><ele>7.333333333333334</ele><time>2026-04-23T10:13:05Z</time></trkpt><trkpt lat="44.91995829187689" lon="11.431150898434838"><ele>7.0</ele><time>2026-04-23T10:13:06Z</time></trkpt><trkpt lat="44.919796987837536" lon="11.431079259722283"><ele>7.0</ele><time>2026-04-23T10:13:07Z</time></trkpt><trkpt lat="44.9196177488219" lon="11.431050624594363"><ele>7.0</ele><time>2026-04-23T10:13:08Z</time></trkpt><trkpt lat="44.91943315441965" lon="11.43103001198413"><ele>7.0</ele><time>2026-04-23T10:13:09Z</time></trkpt><trkpt lat="44.919244735610306" lon="11.431014747286365"><ele>7.666666666666667</ele><time>2026-04-23T10:13:10Z</time></trkpt><trkpt lat="44.91906722561108" lon="11.43100331198157"><ele>8.333333333333334</ele><time>2026-04-23T10:13:11Z</time></trkpt><trkpt lat="44.91888817117372" lon="11.431015694033624"><ele>9.0</ele><time>2026-04-23T10:13:12Z</time></trkpt><trkpt lat="44.91871572328005" lon="11.431005187987674"><ele>9.0</ele><time>2026-04-23T10:13:13Z</time></trkpt><trkpt lat="44.91854627289814" lon="11.430990835678706"><ele>9.0</ele><time>2026-04-23T10:13:14Z</time></trkpt><trkpt lat="44.91837373634313" lon="11.430975564034254"><ele>9.0</ele><time>2026-04-23T10:13:15Z</time></trkpt><trkpt lat="44.91819748348617" lon="11.430956380767816"><ele>9.333333333333334</ele><time>2026-04-23T10:13:16Z</time></trkpt><trkpt lat="44.918021353455686" lon="11.43093886019087"><ele>9.666666666666668</ele><time>2026-04-23T10:13:17Z</time></trkpt><trkpt lat="44.91784486322655" lon="11.430922664725149"><ele>10.0</ele><time>2026-04-23T10:13:18Z</time></trkpt><trkpt lat="44.91767208526483" lon="11.430908197177747"><ele>9.666666666666668</ele><time>2026-04-23T10:13:19Z</time></trkpt><trkpt lat="44.917503783021886" lon="11.430892648625322"><ele>9.333333333333334</ele><time>2026-04-23T10:13:20Z</time></trkpt><trkpt lat="44.91734353028019" lon="11.430857786700033"><ele>9.0</ele><time>2026-04-23T10:13:21Z</time></trkpt><trkpt lat="44.91719090653111" lon="11.430844673541333"><ele>9.0</ele><time>2026-04-23T10:13:22Z</time></trkpt><trkpt lat="44.91705151484869" lon="11.430832762926421"><ele>9.0</ele><time>2026-04-23T10:13:23Z</time></trkpt><trkpt lat="44.91691802556808" lon="11.430822770699534"><ele>9.0</ele><time>2026-04-23T10:13:24Z</time></trkpt><trkpt lat="44.91677988969407" lon="11.430812430669857"><ele>9.0</ele><time>2026-04-23T10:13:25Z</time></trkpt><trkpt lat="44.91663305694742" lon="11.430822152228519"><ele>9.0</ele><time>2026-04-23T10:13:26Z</time></trkpt><trkpt lat="44.9164845808416" lon="11.430785084346905"><ele>9.0</ele><time>2026-04-23T10:13:27Z</time></trkpt><trkpt lat="44.91633511805253" lon="11.430763948509759"><ele>9.0</ele><time>2026-04-23T10:13:28Z</time></trkpt><trkpt lat="44.916184170431414" lon="11.430734822690804"><ele>9.0</ele><time>2026-04-23T10:13:29Z</time></trkpt><trkpt lat="44.91603256665216" lon="11.430714786129501"><ele>9.0</ele><time>2026-04-23T10:13:30Z</time></trkpt><trkpt lat="44.91589102299808" lon="11.430668260234976"><ele>9.0</ele><time>2026-04-23T10:13:31Z</time></trkpt><trkpt lat="44.915751165705274" lon="11.43062279540006"><ele>9.0</ele><time>2026-04-23T10:13:32Z</time></trkpt><trkpt lat="44.91561220297109" lon="11.43055863298302"><ele>9.0</ele><time>2026-04-23T10:13:33Z</time></trkpt><trkpt lat="44.91546867271128" lon="11.430485502574447"><ele>9.0</ele><time>2026-04-23T10:13:34Z</time></trkpt><trkpt lat="44.91532313592801" lon="11.430400499062332"><ele>9.0</ele><time>2026-04-23T10:13:35Z</time></trkpt><trkpt lat="44.91517839292083" lon="11.430312513662775"><ele>9.0</ele><time>2026-04-23T10:13:36Z</time></trkpt><trkpt lat="44.91503818095237" lon="11.430218541374431"><ele>9.0</ele><time>2026-04-23T10:13:37Z</time></trkpt><trkpt lat="44.9149002921555" lon="11.430123047099828"><ele>9.0</ele><time>2026-04-23T10:13:37.999Z</time></trkpt><trkpt lat="44.91476139884975" lon="11.43002409048174"><ele>9.0</ele><time>2026-04-23T10:13:38.999Z</time></trkpt><trkpt lat="44.91462704424092" lon="11.429910477949948"><ele>9.0</ele><time>2026-04-23T10:13:39.999Z</time></trkpt><trkpt lat="44.91450195144002" lon="11.42979104714451"><ele>9.0</ele><time>2026-04-23T10:13:40.999Z</time></trkpt><trkpt lat="44.91437168130351" lon="11.429670976597837"><ele>9.0</ele><time>2026-04-23T10:13:41.999Z</time></trkpt><trkpt lat="44.91424459920545" lon="11.429546538411138"><ele>9.0</ele><time>2026-04-23T10:13:42.999Z</time></trkpt><trkpt lat="44.91412051001106" lon="11.429409665962636"><ele>9.0</ele><time>2026-04-23T10:13:43.999Z</time></trkpt><trkpt lat="44.913995314952615" lon="11.429274295293808"><ele>9.0</ele><time>2026-04-23T10:13:44.999Z</time></trkpt><trkpt lat="44.91387625191328" lon="11.429126402197976"><ele>9.0</ele><time>2026-04-23T10:13:45.999Z</time></trkpt><trkpt lat="44.913759813667895" lon="11.428974664008258"><ele>9.0</ele><time>2026-04-23T10:13:46.999Z</time></trkpt><trkpt lat="44.91364304030843" lon="11.428824891324805"><ele>8.333333333333334</ele><time>2026-04-23T10:13:47.999Z</time></trkpt><trkpt lat="44.913520763463595" lon="11.428677789159279"><ele>7.666666666666667</ele><time>2026-04-23T10:13:48.999Z</time></trkpt><trkpt lat="44.91340218322771" lon="11.428530469559078"><ele>7.0</ele><time>2026-04-23T10:13:49.999Z</time></trkpt><trkpt lat="44.913286435212726" lon="11.428390188377591"><ele>7.0</ele><time>2026-04-23T10:13:50.999Z</time></trkpt><trkpt lat="44.91318719264288" lon="11.428238719524007"><ele>7.0</ele><time>2026-04-23T10:13:51.999Z</time></trkpt><trkpt lat="44.913076328772654" lon="11.428107991539065"><ele>7.0</ele><time>2026-04-23T10:13:52.999Z</time></trkpt><trkpt lat="44.91296409966273" lon="11.427979311435587"><ele>7.0</ele><time>2026-04-23T10:13:53.999Z</time></trkpt><trkpt lat="44.91284926704025" lon="11.427851423634394"><ele>7.0</ele><time>2026-04-23T10:13:54.999Z</time></trkpt><trkpt lat="44.91273313153139" lon="11.427725125919102"><ele>7.0</ele><time>2026-04-23T10:13:55.999Z</time></trkpt><trkpt lat="44.91261348772692" lon="11.427601058493046"><ele>7.0</ele><time>2026-04-23T10:13:56.999Z</time></trkpt><trkpt lat="44.912494457920936" lon="11.42747806324397"><ele>7.0</ele><time>2026-04-23T10:13:57.999Z</time></trkpt><trkpt lat="44.912378131973725" lon="11.42735014482876"><ele>7.333333333333334</ele><time>2026-04-23T10:13:58.999Z</time></trkpt><trkpt lat="44.912264147529726" lon="11.427209917896176"><ele>7.666666666666666</ele><time>2026-04-23T10:13:59.999Z</time></trkpt><trkpt lat="44.9121427752113" lon="11.42707465970398"><ele>8.0</ele><time>2026-04-23T10:14:00.999Z</time></trkpt><trkpt lat="44.91203936237971" lon="11.42691809493735"><ele>8.0</ele><time>2026-04-23T10:14:01.999Z</time></trkpt><trkpt lat="44.91194231808649" lon="11.426762782355063"><ele>8.0</ele><time>2026-04-23T10:14:02.999Z</time></trkpt><trkpt lat="44.91184591528036" lon="11.42660918404099"><ele>8.0</ele><time>2026-04-23T10:14:03.999Z</time></trkpt><trkpt lat="44.91175394842662" lon="11.426450407968984"><ele>8.0</ele><time>2026-04-23T10:14:04.999Z</time></trkpt><trkpt lat="44.91168708133631" lon="11.426266793612974"><ele>8.25</ele><time>2026-04-23T10:14:05.999Z</time></trkpt><trkpt lat="44.91160695009717" lon="11.426097246027783"><ele>8.5</ele><time>2026-04-23T10:14:06.999Z</time></trkpt><trkpt lat="44.91152678677853" lon="11.42593112335986"><ele>8.75</ele><time>2026-04-23T10:14:07.999Z</time></trkpt><trkpt lat="44.911430407390334" lon="11.425785749442172"><ele>9.0</ele><time>2026-04-23T10:14:08.999Z</time></trkpt><trkpt lat="44.91134266527249" lon="11.425637858648134"><ele>9.0</ele><time>2026-04-23T10:14:09.999Z</time></trkpt><trkpt lat="44.91124693972803" lon="11.425503948883668"><ele>9.0</ele><time>2026-04-23T10:14:10.999Z</time></trkpt><trkpt lat="44.911136334124606" lon="11.425391214134102"><ele>9.0</ele><time>2026-04-23T10:14:11.999Z</time></trkpt><trkpt lat="44.91102134976138" lon="11.425279595402976"><ele>9.0</ele><time>2026-04-23T10:14:12.999Z</time></trkpt><trkpt lat="44.9108975830312" lon="11.425187323854596"><ele>8.5</ele><time>2026-04-23T10:14:13.999Z</time></trkpt><trkpt lat="44.91077330710875" lon="11.425102017700864"><ele>8.0</ele><time>2026-04-23T10:14:14.999Z</time></trkpt><trkpt lat="44.91064896957572" lon="11.425034407788491"><ele>7.5</ele><time>2026-04-23T10:14:15.999Z</time></trkpt><trkpt lat="44.9105172734535" lon="11.424990012552094"><ele>7.0</ele><time>2026-04-23T10:14:16.999Z</time></trkpt><trkpt lat="44.91038504834824" lon="11.424962036023356"><ele>7.0</ele><time>2026-04-23T10:14:17.999Z</time></trkpt><trkpt lat="44.910250227704466" lon="11.424949030454055"><ele>7.0</ele><time>2026-04-23T10:14:18.999Z</time></trkpt><trkpt lat="44.91011626444185" lon="11.424944919111065"><ele>7.0</ele><time>2026-04-23T10:14:19.999Z</time></trkpt><trkpt lat="44.90998078864257" lon="11.424959295883323"><ele>7.0</ele><time>2026-04-23T10:14:20.999Z</time></trkpt><trkpt lat="44.90984653388624" lon="11.424988559469217"><ele>7.25</ele><time>2026-04-23T10:14:21.999Z</time></trkpt><trkpt lat="44.90971432968046" lon="11.425034329759912"><ele>7.5</ele><time>2026-04-23T10:14:22.999Z</time></trkpt><trkpt lat="44.90958134198534" lon="11.425097170514793"><ele>7.75</ele><time>2026-04-23T10:14:23.999Z</time></trkpt><trkpt lat="44.90945141034153" lon="11.425171510182517"><ele>8.0</ele><time>2026-04-23T10:14:24.999Z</time></trkpt><trkpt lat="44.909322726827114" lon="11.425253550701242"><ele>8.0</ele><time>2026-04-23T10:14:25.999Z</time></trkpt><trkpt lat="44.90919461485575" lon="11.42533424988403"><ele>8.0</ele><time>2026-04-23T10:14:26.999Z</time></trkpt><trkpt lat="44.90906693637426" lon="11.425417343601763"><ele>8.0</ele><time>2026-04-23T10:14:27.999Z</time></trkpt><trkpt lat="44.90893798805579" lon="11.425501480532036"><ele>8.0</ele><time>2026-04-23T10:14:28.999Z</time></trkpt><trkpt lat="44.90880910818383" lon="11.425587883389737"><ele>8.0</ele><time>2026-04-23T10:14:29.999Z</time></trkpt><trkpt lat="44.90867626634541" lon="11.425674020617864"><ele>8.0</ele><time>2026-04-23T10:14:30.999Z</time></trkpt><trkpt lat="44.90854148874421" lon="11.425760281315336"><ele>8.0</ele><time>2026-04-23T10:14:31.999Z</time></trkpt><trkpt lat="44.908407725687105" lon="11.425847590220503"><ele>8.0</ele><time>2026-04-23T10:14:32.999Z</time></trkpt><trkpt lat="44.90828088570639" lon="11.425931566152379"><ele>7.75</ele><time>2026-04-23T10:14:33.999Z</time></trkpt><trkpt lat="44.90815000737411" lon="11.42601797642666"><ele>7.5</ele><time>2026-04-23T10:14:34.999Z</time></trkpt><trkpt lat="44.908015603652444" lon="11.426108354183919"><ele>7.25</ele><time>2026-04-23T10:14:35.999Z</time></trkpt><trkpt lat="44.9078776942369" lon="11.426199809818105"><ele>7.0</ele><time>2026-04-23T10:14:36.999Z</time></trkpt><trkpt lat="44.90773898301202" lon="11.42629063483861"><ele>7.0</ele><time>2026-04-23T10:14:37.999Z</time></trkpt><trkpt lat="44.90760020312298" lon="11.426381856365515"><ele>7.0</ele><time>2026-04-23T10:14:38.999Z</time></trkpt><trkpt lat="44.907460396510686" lon="11.426475119462344"><ele>7.0</ele><time>2026-04-23T10:14:39.999Z</time></trkpt><trkpt lat="44.90731322534202" lon="11.42657032057139"><ele>7.333333333333334</ele><time>2026-04-23T10:14:40.999Z</time></trkpt><trkpt lat="44.90714935827831" lon="11.426678194607106"><ele>7.666666666666666</ele><time>2026-04-23T10:14:41.999Z</time></trkpt><trkpt lat="44.906972553964415" lon="11.426802381417934"><ele>8.0</ele><time>2026-04-23T10:14:42.999Z</time></trkpt><trkpt lat="44.906778574064276" lon="11.426904045197332"><ele>8.0</ele><time>2026-04-23T10:14:43.999Z</time></trkpt><trkpt lat="44.90657316266675" lon="11.427039043740235"><ele>8.0</ele><time>2026-04-23T10:14:44.999Z</time></trkpt><trkpt lat="44.90633557808434" lon="11.42719167690729"><ele>8.0</ele><time>2026-04-23T10:14:45.999Z</time></trkpt><trkpt lat="44.906066730124394" lon="11.427387674460507"><ele>8.0</ele><time>2026-04-23T10:14:46.999Z</time></trkpt><trkpt lat="44.905759346172864" lon="11.427583409591294"><ele>8.0</ele><time>2026-04-23T10:14:47.999Z</time></trkpt><trkpt lat="44.90544206204051" lon="11.427784986295185"><ele>8.0</ele><time>2026-04-23T10:14:48.999Z</time></trkpt><trkpt lat="44.90510592574383" lon="11.4280024990416"><ele>7.0</ele><time>2026-04-23T10:14:49.999Z</time></trkpt><trkpt lat="44.90474807957884" lon="11.428234870196379"><ele>6.0</ele><time>2026-04-23T10:14:50.999Z</time></trkpt><trkpt lat="44.904371190276166" lon="11.428480923064281"><ele>7.0</ele><time>2026-04-23T10:14:51.999Z</time></trkpt><trkpt lat="44.90400083807027" lon="11.428725169515909"><ele>8.0</ele><time>2026-04-23T10:14:52.999Z</time></trkpt><trkpt lat="44.90368555580129" lon="11.42892519044987"><ele>8.0</ele><time>2026-04-23T10:14:53.999Z</time></trkpt><trkpt lat="44.90339824541608" lon="11.42911020647612"><ele>8.0</ele><time>2026-04-23T10:14:54.999Z</time></trkpt><trkpt lat="44.903115048711115" lon="11.429295082501348"><ele>8.0</ele><time>2026-04-23T10:14:55.999Z</time></trkpt><trkpt lat="44.902834713099544" lon="11.429477798684177"><ele>8.0</ele><time>2026-04-23T10:14:56.999Z</time></trkpt><trkpt lat="44.90255698584787" lon="11.429656496969923"><ele>8.0</ele><time>2026-04-23T10:14:58Z</time></trkpt><trkpt lat="44.90228514901162" lon="11.429833408778002"><ele>8.0</ele><time>2026-04-23T10:14:59Z</time></trkpt><trkpt lat="44.90201897658151" lon="11.43000142103709"><ele>8.0</ele><time>2026-04-23T10:15:00Z</time></trkpt><trkpt lat="44.901756042519764" lon="11.430165586981449"><ele>8.0</ele><time>2026-04-23T10:15:01Z</time></trkpt><trkpt lat="44.90150315362932" lon="11.430325891253148"><ele>7.5</ele><time>2026-04-23T10:15:02Z</time></trkpt><trkpt lat="44.90126853499554" lon="11.430479594113587"><ele>7.0</ele><time>2026-04-23T10:15:03Z</time></trkpt><trkpt lat="44.90104270132078" lon="11.430627234574482"><ele>7.0</ele><time>2026-04-23T10:15:04Z</time></trkpt><trkpt lat="44.90082293797602" lon="11.430774016864806"><ele>7.0</ele><time>2026-04-23T10:15:05Z</time></trkpt><trkpt lat="44.90060222063002" lon="11.43091720335887"><ele>7.0</ele><time>2026-04-23T10:15:06Z</time></trkpt><trkpt lat="44.9003873429209" lon="11.431070990261325"><ele>7.0</ele><time>2026-04-23T10:15:07Z</time></trkpt><trkpt lat="44.900182963121615" lon="11.431232080835064"><ele>7.5</ele><time>2026-04-23T10:15:08Z</time></trkpt><trkpt lat="44.89997893298696" lon="11.431410961729531"><ele>8.0</ele><time>2026-04-23T10:15:09Z</time></trkpt><trkpt lat="44.89978536916361" lon="11.431597548721772"><ele>8.0</ele><time>2026-04-23T10:15:10Z</time></trkpt><trkpt lat="44.89960095335402" lon="11.431768670239824"><ele>8.0</ele><time>2026-04-23T10:15:11Z</time></trkpt><trkpt lat="44.89942672984238" lon="11.431924023566788"><ele>8.0</ele><time>2026-04-23T10:15:12Z</time></trkpt><trkpt lat="44.89927249233771" lon="11.432061613442562"><ele>8.0</ele><time>2026-04-23T10:15:13Z</time></trkpt><trkpt lat="44.899125780375705" lon="11.432191567687982"><ele>8.0</ele><time>2026-04-23T10:15:14Z</time></trkpt><trkpt lat="44.898978770935116" lon="11.432304836431197"><ele>8.0</ele><time>2026-04-23T10:15:15Z</time></trkpt><trkpt lat="44.89882000960397" lon="11.432399557748472"><ele>8.0</ele><time>2026-04-23T10:15:16Z</time></trkpt><trkpt lat="44.89864498810517" lon="11.432453369684668"><ele>8.0</ele><time>2026-04-23T10:15:17Z</time></trkpt><trkpt lat="44.89845866122614" lon="11.432493670911542"><ele>8.0</ele><time>2026-04-23T10:15:18Z</time></trkpt><trkpt lat="44.898242044236135" lon="11.43253742503777"><ele>8.0</ele><time>2026-04-23T10:15:19Z</time></trkpt><trkpt lat="44.898019395157455" lon="11.432554630335547"><ele>8.0</ele><time>2026-04-23T10:15:20Z</time></trkpt><trkpt lat="44.897793712125676" lon="11.432568802990925"><ele>8.0</ele><time>2026-04-23T10:15:21Z</time></trkpt><trkpt lat="44.897570854387396" lon="11.432582989942038"><ele>8.666666666666666</ele><time>2026-04-23T10:15:22Z</time></trkpt><trkpt lat="44.89738102103154" lon="11.432586446707438"><ele>9.333333333333334</ele><time>2026-04-23T10:15:23Z</time></trkpt><trkpt lat="44.89720334623413" lon="11.432574761068002"><ele>10.0</ele><time>2026-04-23T10:15:24Z</time></trkpt><trkpt lat="44.89702893719583" lon="11.432543729987568"><ele>10.0</ele><time>2026-04-23T10:15:25Z</time></trkpt><trkpt lat="44.89685498821803" lon="11.432493268448294"><ele>10.0</ele><time>2026-04-23T10:15:26Z</time></trkpt><trkpt lat="44.896687645458485" lon="11.432417784226729"><ele>10.0</ele><time>2026-04-23T10:15:27Z</time></trkpt><trkpt lat="44.89653203537528" lon="11.432333538431037"><ele>10.333333333333334</ele><time>2026-04-23T10:15:28Z</time></trkpt><trkpt lat="44.89637756151433" lon="11.43224794047662"><ele>10.666666666666666</ele><time>2026-04-23T10:15:29Z</time></trkpt><trkpt lat="44.89620935573101" lon="11.432155241513538"><ele>11.0</ele><time>2026-04-23T10:15:30Z</time></trkpt><trkpt lat="44.89602957675085" lon="11.432054227512035"><ele>11.333333333333332</ele><time>2026-04-23T10:15:31Z</time></trkpt><trkpt lat="44.8958378422333" lon="11.431945057780691"><ele>11.666666666666666</ele><time>2026-04-23T10:15:32Z</time></trkpt><trkpt lat="44.89564123839277" lon="11.431834040793373"><ele>12.0</ele><time>2026-04-23T10:15:33Z</time></trkpt><trkpt lat="44.89544361036479" lon="11.431718227874647"><ele>12.0</ele><time>2026-04-23T10:15:34Z</time></trkpt><trkpt lat="44.895242728961584" lon="11.431599240749234"><ele>12.0</ele><time>2026-04-23T10:15:35Z</time></trkpt><trkpt lat="44.895040886426834" lon="11.431479719820608"><ele>12.0</ele><time>2026-04-23T10:15:36Z</time></trkpt><trkpt lat="44.89483550990921" lon="11.431362284301196"><ele>12.0</ele><time>2026-04-23T10:15:37Z</time></trkpt><trkpt lat="44.8946317544004" lon="11.431243306666547"><ele>12.0</ele><time>2026-04-23T10:15:38Z</time></trkpt><trkpt lat="44.89443062842382" lon="11.431126464016351"><ele>12.0</ele><time>2026-04-23T10:15:39Z</time></trkpt><trkpt lat="44.89423070473871" lon="11.431010550035062"><ele>12.0</ele><time>2026-04-23T10:15:40Z</time></trkpt><trkpt lat="44.89403297473969" lon="11.430894427493406"><ele>12.0</ele><time>2026-04-23T10:15:41Z</time></trkpt><trkpt lat="44.893841297662995" lon="11.430772155731985"><ele>12.0</ele><time>2026-04-23T10:15:42Z</time></trkpt><trkpt lat="44.893664065674656" lon="11.430652732819869"><ele>12.0</ele><time>2026-04-23T10:15:43Z</time></trkpt><trkpt lat="44.89348147722584" lon="11.430529790932027"><ele>12.0</ele><time>2026-04-23T10:15:44Z</time></trkpt><trkpt lat="44.89329249253827" lon="11.43042061646998"><ele>12.0</ele><time>2026-04-23T10:15:45Z</time></trkpt><trkpt lat="44.89309180855701" lon="11.430336853222958"><ele>12.0</ele><time>2026-04-23T10:15:46Z</time></trkpt><trkpt lat="44.892879453481356" lon="11.430274437641305"><ele>12.0</ele><time>2026-04-23T10:15:47Z</time></trkpt><trkpt lat="44.892662444652196" lon="11.430217781105648"><ele>12.0</ele><time>2026-04-23T10:15:48Z</time></trkpt><trkpt lat="44.8924621498868" lon="11.430161963271551"><ele>12.0</ele><time>2026-04-23T10:15:49Z</time></trkpt><trkpt lat="44.892276752478075" lon="11.430109995107305"><ele>12.0</ele><time>2026-04-23T10:15:50Z</time></trkpt><trkpt lat="44.892090588665184" lon="11.430060715796147"><ele>12.0</ele><time>2026-04-23T10:15:51Z</time></trkpt><trkpt lat="44.89191361609767" lon="11.43001592003526"><ele>12.0</ele><time>2026-04-23T10:15:52Z</time></trkpt><trkpt lat="44.891749708540495" lon="11.42998209987336"><ele>12.0</ele><time>2026-04-23T10:15:53Z</time></trkpt><trkpt lat="44.89158891534786" lon="11.429968542742076"><ele>12.0</ele><time>2026-04-23T10:15:54Z</time></trkpt><trkpt lat="44.89143201579046" lon="11.42997334034245"><ele>12.0</ele><time>2026-04-23T10:15:55Z</time></trkpt><trkpt lat="44.89127312401942" lon="11.429979487797443"><ele>12.0</ele><time>2026-04-23T10:15:56Z</time></trkpt><trkpt lat="44.89112090796021" lon="11.429976330987737"><ele>12.0</ele><time>2026-04-23T10:15:57Z</time></trkpt><trkpt lat="44.89096260263095" lon="11.42996388171753"><ele>12.333333333333332</ele><time>2026-04-23T10:15:58Z</time></trkpt><trkpt lat="44.89080327811974" lon="11.429941095762505"><ele>12.666666666666666</ele><time>2026-04-23T10:15:59Z</time></trkpt><trkpt lat="44.89063497165571" lon="11.429922564467287"><ele>13.0</ele><time>2026-04-23T10:16:00Z</time></trkpt><trkpt lat="44.89045904362298" lon="11.429921269474553"><ele>13.0</ele><time>2026-04-23T10:16:01Z</time></trkpt><trkpt lat="44.89027103541948" lon="11.429941681822912"><ele>13.0</ele><time>2026-04-23T10:16:02Z</time></trkpt><trkpt lat="44.89007235998639" lon="11.42997757386096"><ele>13.0</ele><time>2026-04-23T10:16:03Z</time></trkpt><trkpt lat="44.889864162797785" lon="11.430011863183337"><ele>12.666666666666666</ele><time>2026-04-23T10:16:04Z</time></trkpt><trkpt lat="44.88965362648424" lon="11.430043342024003"><ele>12.333333333333332</ele><time>2026-04-23T10:16:05Z</time></trkpt><trkpt lat="44.88944458791495" lon="11.430072562494592"><ele>12.0</ele><time>2026-04-23T10:16:06Z</time></trkpt><trkpt lat="44.88922982836074" lon="11.430109468124963"><ele>11.666666666666666</ele><time>2026-04-23T10:16:07Z</time></trkpt><trkpt lat="44.889014923908206" lon="11.430145382639555"><ele>11.333333333333332</ele><time>2026-04-23T10:16:08Z</time></trkpt><trkpt lat="44.888802367063924" lon="11.430177232396906"><ele>11.0</ele><time>2026-04-23T10:16:09Z</time></trkpt><trkpt lat="44.88859158686466" lon="11.430204969516941"><ele>11.333333333333332</ele><time>2026-04-23T10:16:10Z</time></trkpt><trkpt lat="44.88838819548013" lon="11.430227858217618"><ele>11.666666666666666</ele><time>2026-04-23T10:16:11Z</time></trkpt><trkpt lat="44.888181654361716" lon="11.430240587510696"><ele>12.0</ele><time>2026-04-23T10:16:12Z</time></trkpt><trkpt lat="44.88797191431109" lon="11.430239988177476"><ele>12.0</ele><time>2026-04-23T10:16:13Z</time></trkpt><trkpt lat="44.88776233139569" lon="11.430225998180735"><ele>12.0</ele><time>2026-04-23T10:16:14Z</time></trkpt><trkpt lat="44.887549275433784" lon="11.430204666734168"><ele>12.0</ele><time>2026-04-23T10:16:15Z</time></trkpt><trkpt lat="44.887333852693125" lon="11.43017658735608"><ele>12.0</ele><time>2026-04-23T10:16:15.999Z</time></trkpt><trkpt lat="44.88712193555753" lon="11.430140814441382"><ele>12.0</ele><time>2026-04-23T10:16:16.999Z</time></trkpt><trkpt lat="44.88691475525774" lon="11.430106423867663"><ele>12.0</ele><time>2026-04-23T10:16:17.999Z</time></trkpt><trkpt lat="44.8867000358566" lon="11.430083084322039"><ele>12.0</ele><time>2026-04-23T10:16:18.999Z</time></trkpt><trkpt lat="44.886486333837475" lon="11.43006975035473"><ele>12.0</ele><time>2026-04-23T10:16:19.999Z</time></trkpt><trkpt lat="44.88627477397499" lon="11.430057569063417"><ele>12.0</ele><time>2026-04-23T10:16:20.999Z</time></trkpt><trkpt lat="44.88607249451257" lon="11.430037561014558"><ele>11.333333333333334</ele><time>2026-04-23T10:16:21.999Z</time></trkpt><trkpt lat="44.88588790776691" lon="11.430015685254832"><ele>10.666666666666668</ele><time>2026-04-23T10:16:22.999Z</time></trkpt><trkpt lat="44.8857167437948" lon="11.429999266339058"><ele>10.0</ele><time>2026-04-23T10:16:23.999Z</time></trkpt><trkpt lat="44.885543802316604" lon="11.429985067778276"><ele>10.0</ele><time>2026-04-23T10:16:24.999Z</time></trkpt><trkpt lat="44.885373677916114" lon="11.429966926362013"><ele>10.0</ele><time>2026-04-23T10:16:25.999Z</time></trkpt><trkpt lat="44.885218009711004" lon="11.429942291864771"><ele>10.0</ele><time>2026-04-23T10:16:26.999Z</time></trkpt><trkpt lat="44.88507141808787" lon="11.429916519344292"><ele>12.0</ele><time>2026-04-23T10:16:27.999Z</time></trkpt><trkpt lat="44.8849273846569" lon="11.42988386779943"><ele>14.0</ele><time>2026-04-23T10:16:28.999Z</time></trkpt><trkpt lat="44.88479303928607" lon="11.429833696579687"><ele>16.0</ele><time>2026-04-23T10:16:29.999Z</time></trkpt><trkpt lat="44.88466271333773" lon="11.429766661809008"><ele>18.0</ele><time>2026-04-23T10:16:30.999Z</time></trkpt><trkpt lat="44.8845425125828" lon="11.429674285547442"><ele>17.0</ele><time>2026-04-23T10:16:31.999Z</time></trkpt><trkpt lat="44.884428454021105" lon="11.429559104454047"><ele>16.0</ele><time>2026-04-23T10:16:32.999Z</time></trkpt><trkpt lat="44.884327051073605" lon="11.429420672425499"><ele>15.0</ele><time>2026-04-23T10:16:33.999Z</time></trkpt><trkpt lat="44.88423829709205" lon="11.429260955872751"><ele>14.0</ele><time>2026-04-23T10:16:34.999Z</time></trkpt><trkpt lat="44.884166559154046" lon="11.429097883411293"><ele>13.6</ele><time>2026-04-23T10:16:35.999Z</time></trkpt><trkpt lat="44.884114686762935" lon="11.4289375323043"><ele>13.2</ele><time>2026-04-23T10:16:36.999Z</time></trkpt><trkpt lat="44.88408135486963" lon="11.42879079485988"><ele>12.799999999999999</ele><time>2026-04-23T10:16:37.999Z</time></trkpt><trkpt lat="44.88405780019507" lon="11.428658578691874"><ele>12.399999999999999</ele><time>2026-04-23T10:16:38.999Z</time></trkpt><trkpt lat="44.884038305706895" lon="11.428548908793589"><ele>12.0</ele><time>2026-04-23T10:16:39.999Z</time></trkpt><trkpt lat="44.88399172056971" lon="11.428411913087533"><ele>12.0</ele><time>2026-04-23T10:16:41.999Z</time></trkpt><trkpt lat="44.88392678378716" lon="11.428367993816133"><ele>12.0</ele><time>2026-04-23T10:16:44.999Z</time></trkpt><trkpt lat="44.88380874048108" lon="11.428489607448464"><ele>12.0</ele><time>2026-04-23T10:16:52.999Z</time></trkpt><trkpt lat="44.883779074054836" lon="11.428597669917144"><ele>12.0</ele><time>2026-04-23T10:16:53.999Z</time></trkpt><trkpt lat="44.88375042131219" lon="11.428688768217004"><ele>12.0</ele><time>2026-04-23T10:16:54.999Z</time></trkpt><trkpt lat="44.883724282153906" lon="11.428773365938442"><ele>12.0</ele><time>2026-04-23T10:16:55.999Z</time></trkpt><trkpt lat="44.883674371767384" lon="11.428934910927172"><ele>11.8</ele><time>2026-04-23T10:16:57.999Z</time></trkpt><trkpt lat="44.88364600260758" lon="11.429043408788054"><ele>11.6</ele><time>2026-04-23T10:16:58.999Z</time></trkpt><trkpt lat="44.88361783695818" lon="11.429175145852453"><ele>11.4</ele><time>2026-04-23T10:16:59.999Z</time></trkpt><trkpt lat="44.88358351416117" lon="11.429313701377797"><ele>11.200000000000001</ele><time>2026-04-23T10:17:00.999Z</time></trkpt><trkpt lat="44.8835465352042" lon="11.429449330832966"><ele>11.0</ele><time>2026-04-23T10:17:01.999Z</time></trkpt><trkpt lat="44.88351004691691" lon="11.429588853990873"><ele>11.0</ele><time>2026-04-23T10:17:02.999Z</time></trkpt><trkpt lat="44.8834679593567" lon="11.429726856582013"><ele>11.0</ele><time>2026-04-23T10:17:04Z</time></trkpt><trkpt lat="44.88341555067063" lon="11.429862233167208"><ele>11.0</ele><time>2026-04-23T10:17:05Z</time></trkpt><trkpt lat="44.883343799249786" lon="11.429980378830809"><ele>11.0</ele><time>2026-04-23T10:17:06Z</time></trkpt><trkpt lat="44.88324982019217" lon="11.43007628697028"><ele>11.0</ele><time>2026-04-23T10:17:07Z</time></trkpt><trkpt lat="44.88314442345689" lon="11.43015347531588"><ele>11.25</ele><time>2026-04-23T10:17:08Z</time></trkpt><trkpt lat="44.88302889361294" lon="11.43020637453862"><ele>11.5</ele><time>2026-04-23T10:17:09Z</time></trkpt><trkpt lat="44.88290556467468" lon="11.430236528378508"><ele>11.75</ele><time>2026-04-23T10:17:10Z</time></trkpt><trkpt lat="44.88277913575036" lon="11.430256678594887"><ele>12.0</ele><time>2026-04-23T10:17:11Z</time></trkpt><trkpt lat="44.88266494370663" lon="11.430271290685422"><ele>12.2</ele><time>2026-04-23T10:17:12Z</time></trkpt><trkpt lat="44.882565825211984" lon="11.43028216908052"><ele>12.399999999999999</ele><time>2026-04-23T10:17:13Z</time></trkpt><trkpt lat="44.88248513308292" lon="11.430291485766531"><ele>12.600000000000001</ele><time>2026-04-23T10:17:14Z</time></trkpt><trkpt lat="44.88242089592281" lon="11.430296551580701"><ele>12.8</ele><time>2026-04-23T10:17:15Z</time></trkpt><trkpt lat="44.88228376573491" lon="11.430310086708163"><ele>13.0</ele><time>2026-04-23T10:17:17Z</time></trkpt><trkpt lat="44.882193440825965" lon="11.430319699678975"><ele>13.0</ele><time>2026-04-23T10:17:18Z</time></trkpt><trkpt lat="44.882089518317414" lon="11.430329080334346"><ele>13.0</ele><time>2026-04-23T10:17:19Z</time></trkpt><trkpt lat="44.88197381670114" lon="11.43034136928589"><ele>13.0</ele><time>2026-04-23T10:17:20Z</time></trkpt><trkpt lat="44.88184637309466" lon="11.430361116366242"><ele>13.0</ele><time>2026-04-23T10:17:21Z</time></trkpt><trkpt lat="44.8817202533575" lon="11.43038598345358"><ele>12.75</ele><time>2026-04-23T10:17:22Z</time></trkpt><trkpt lat="44.88159474934759" lon="11.43041273475255"><ele>12.5</ele><time>2026-04-23T10:17:23Z</time></trkpt><trkpt lat="44.88145609256018" lon="11.430454965286332"><ele>12.25</ele><time>2026-04-23T10:17:24Z</time></trkpt><trkpt lat="44.88131675129608" lon="11.430501925377754"><ele>12.0</ele><time>2026-04-23T10:17:25Z</time></trkpt><trkpt lat="44.881172747517304" lon="11.430559214117798"><ele>12.0</ele><time>2026-04-23T10:17:26Z</time></trkpt><trkpt lat="44.8810258332841" lon="11.430624851719067"><ele>12.0</ele><time>2026-04-23T10:17:27Z</time></trkpt><trkpt lat="44.88086879172577" lon="11.430694660847653"><ele>12.0</ele><time>2026-04-23T10:17:28Z</time></trkpt><trkpt lat="44.88072100026134" lon="11.430761522151597"><ele>11.666666666666666</ele><time>2026-04-23T10:17:29Z</time></trkpt><trkpt lat="44.880568870260795" lon="11.430827267169482"><ele>11.333333333333332</ele><time>2026-04-23T10:17:30Z</time></trkpt><trkpt lat="44.88041573518638" lon="11.430896633517106"><ele>11.0</ele><time>2026-04-23T10:17:31Z</time></trkpt><trkpt lat="44.880255701073686" lon="11.430966817384697"><ele>11.0</ele><time>2026-04-23T10:17:32Z</time></trkpt><trkpt lat="44.88009566007878" lon="11.431038708152286"><ele>11.0</ele><time>2026-04-23T10:17:33Z</time></trkpt><trkpt lat="44.87994936955379" lon="11.431108564638805"><ele>11.0</ele><time>2026-04-23T10:17:34Z</time></trkpt><trkpt lat="44.879816172425976" lon="11.43116708658106"><ele>11.0</ele><time>2026-04-23T10:17:35Z</time></trkpt><trkpt lat="44.87969589101134" lon="11.431221899509815"><ele>11.0</ele><time>2026-04-23T10:17:36Z</time></trkpt><trkpt lat="44.879582174464375" lon="11.431270863226779"><ele>11.0</ele><time>2026-04-23T10:17:37Z</time></trkpt><trkpt lat="44.879466320495645" lon="11.431314787190828"><ele>11.0</ele><time>2026-04-23T10:17:38Z</time></trkpt><trkpt lat="44.87934547160035" lon="11.431352068875896"><ele>10.75</ele><time>2026-04-23T10:17:39Z</time></trkpt><trkpt lat="44.87921824457534" lon="11.431358409267801"><ele>10.5</ele><time>2026-04-23T10:17:40Z</time></trkpt><trkpt lat="44.87909119698218" lon="11.431317311505346"><ele>10.25</ele><time>2026-04-23T10:17:41Z</time></trkpt><trkpt lat="44.87897049773848" lon="11.431242729603369"><ele>10.0</ele><time>2026-04-23T10:17:42Z</time></trkpt><trkpt lat="44.87885532627157" lon="11.431146649970378"><ele>10.4</ele><time>2026-04-23T10:17:43Z</time></trkpt><trkpt lat="44.87874322445967" lon="11.431054487388353"><ele>10.8</ele><time>2026-04-23T10:17:44Z</time></trkpt><trkpt lat="44.87863969711726" lon="11.430975389507468"><ele>11.2</ele><time>2026-04-23T10:17:45Z</time></trkpt><trkpt lat="44.87855432456487" lon="11.43090963481035"><ele>11.6</ele><time>2026-04-23T10:17:46Z</time></trkpt><trkpt lat="44.87848285296597" lon="11.43085599364464"><ele>12.0</ele><time>2026-04-23T10:17:47Z</time></trkpt><trkpt lat="44.87842336707066" lon="11.430813008799062"><ele>12.0</ele><time>2026-04-23T10:17:48Z</time></trkpt><trkpt lat="44.87835136129912" lon="11.430770321560777"><ele>12.0</ele><time>2026-04-23T10:17:50Z</time></trkpt><trkpt lat="44.87826139527118" lon="11.430709304847607"><ele>12.0</ele><time>2026-04-23T10:17:53Z</time></trkpt><trkpt lat="44.87818674460847" lon="11.430830757910506"><ele>12.0</ele><time>2026-04-23T10:17:54Z</time></trkpt><trkpt lat="44.878119468321756" lon="11.430933522268145"><ele>12.0</ele><time>2026-04-23T10:17:55Z</time></trkpt><trkpt lat="44.878045723969606" lon="11.431050347040237"><ele>12.0</ele><time>2026-04-23T10:17:56Z</time></trkpt><trkpt lat="44.87796247034676" lon="11.431183988472057"><ele>12.0</ele><time>2026-04-23T10:17:57Z</time></trkpt><trkpt lat="44.87787109082888" lon="11.431324755238238"><ele>12.0</ele><time>2026-04-23T10:17:58Z</time></trkpt><trkpt lat="44.87776861416849" lon="11.431478990672035"><ele>12.0</ele><time>2026-04-23T10:17:59Z</time></trkpt><trkpt lat="44.87766830808202" lon="11.43163434274898"><ele>10.666666666666666</ele><time>2026-04-23T10:18:00Z</time></trkpt><trkpt lat="44.877560836655974" lon="11.431798704667356"><ele>9.333333333333332</ele><time>2026-04-23T10:18:01Z</time></trkpt><trkpt lat="44.87744910570976" lon="11.431972595140595"><ele>8.0</ele><time>2026-04-23T10:18:02Z</time></trkpt><trkpt lat="44.87733246957711" lon="11.432154078704095"><ele>7.333333333333333</ele><time>2026-04-23T10:18:03Z</time></trkpt><trkpt lat="44.87721407144808" lon="11.432337904101816"><ele>6.666666666666666</ele><time>2026-04-23T10:18:04Z</time></trkpt><trkpt lat="44.87710198929325" lon="11.432513853942446"><ele>6.0</ele><time>2026-04-23T10:18:05Z</time></trkpt><trkpt lat="44.87698946865991" lon="11.432686465286347"><ele>6.0</ele><time>2026-04-23T10:18:06Z</time></trkpt><trkpt lat="44.876872435820474" lon="11.432859388944003"><ele>6.0</ele><time>2026-04-23T10:18:07Z</time></trkpt><trkpt lat="44.876747354384754" lon="11.433041088756521"><ele>6.0</ele><time>2026-04-23T10:18:08Z</time></trkpt><trkpt lat="44.87662233790099" lon="11.43322256259622"><ele>7.0</ele><time>2026-04-23T10:18:09Z</time></trkpt><trkpt lat="44.87649577103905" lon="11.433395119683693"><ele>8.0</ele><time>2026-04-23T10:18:10Z</time></trkpt><trkpt lat="44.87637111803207" lon="11.433562683883032"><ele>9.0</ele><time>2026-04-23T10:18:11Z</time></trkpt><trkpt lat="44.87624859394443" lon="11.4337262187533"><ele>9.0</ele><time>2026-04-23T10:18:12Z</time></trkpt><trkpt lat="44.87612751714084" lon="11.433886709840296"><ele>9.0</ele><time>2026-04-23T10:18:13Z</time></trkpt><trkpt lat="44.87601058581838" lon="11.434044013006456"><ele>9.0</ele><time>2026-04-23T10:18:14Z</time></trkpt><trkpt lat="44.87589204572978" lon="11.434198471521592"><ele>9.0</ele><time>2026-04-23T10:18:15Z</time></trkpt><trkpt lat="44.87577194037689" lon="11.434359034992315"><ele>9.0</ele><time>2026-04-23T10:18:16Z</time></trkpt><trkpt lat="44.87565712611133" lon="11.434512034255073"><ele>9.0</ele><time>2026-04-23T10:18:17Z</time></trkpt><trkpt lat="44.8755437714261" lon="11.434658367891947"><ele>9.666666666666666</ele><time>2026-04-23T10:18:18Z</time></trkpt><trkpt lat="44.87542103446857" lon="11.434810830649807"><ele>10.333333333333332</ele><time>2026-04-23T10:18:19Z</time></trkpt><trkpt lat="44.875294151674936" lon="11.434966082167183"><ele>11.0</ele><time>2026-04-23T10:18:20Z</time></trkpt><trkpt lat="44.875166194152584" lon="11.435132926670967"><ele>11.0</ele><time>2026-04-23T10:18:21Z</time></trkpt><trkpt lat="44.87503558385005" lon="11.435302246166124"><ele>11.0</ele><time>2026-04-23T10:18:22Z</time></trkpt><trkpt lat="44.874902108129255" lon="11.43547789967988"><ele>11.0</ele><time>2026-04-23T10:18:23Z</time></trkpt><trkpt lat="44.8747665545199" lon="11.435658040213605"><ele>10.666666666666666</ele><time>2026-04-23T10:18:24Z</time></trkpt><trkpt lat="44.87463083518159" lon="11.435832872942324"><ele>10.333333333333334</ele><time>2026-04-23T10:18:25Z</time></trkpt><trkpt lat="44.87449848022735" lon="11.436015923576061"><ele>10.0</ele><time>2026-04-23T10:18:26Z</time></trkpt><trkpt lat="44.8743682724553" lon="11.436202534954504"><ele>10.666666666666668</ele><time>2026-04-23T10:18:27Z</time></trkpt><trkpt lat="44.87423897745567" lon="11.43639681665698"><ele>11.333333333333334</ele><time>2026-04-23T10:18:28Z</time></trkpt><trkpt lat="44.87411047852833" lon="11.436589740282072"><ele>12.0</ele><time>2026-04-23T10:18:29Z</time></trkpt><trkpt lat="44.87397924693356" lon="11.43678223432294"><ele>12.0</ele><time>2026-04-23T10:18:30Z</time></trkpt><trkpt lat="44.87385039437759" lon="11.436972068807792"><ele>12.0</ele><time>2026-04-23T10:18:31Z</time></trkpt><trkpt lat="44.87372367271821" lon="11.437163274493049"><ele>12.0</ele><time>2026-04-23T10:18:32Z</time></trkpt><trkpt lat="44.87359211908036" lon="11.43735825620414"><ele>11.666666666666666</ele><time>2026-04-23T10:18:33Z</time></trkpt><trkpt lat="44.87346185569208" lon="11.437554028918143"><ele>11.333333333333332</ele><time>2026-04-23T10:18:34Z</time></trkpt><trkpt lat="44.87332655060564" lon="11.437743942106112"><ele>11.0</ele><time>2026-04-23T10:18:35Z</time></trkpt><trkpt lat="44.87319253134929" lon="11.437929117304268"><ele>11.0</ele><time>2026-04-23T10:18:36Z</time></trkpt><trkpt lat="44.873054464608394" lon="11.43810862167024"><ele>11.0</ele><time>2026-04-23T10:18:37Z</time></trkpt><trkpt lat="44.87292138875595" lon="11.43828927981327"><ele>11.0</ele><time>2026-04-23T10:18:38Z</time></trkpt><trkpt lat="44.87278852908533" lon="11.438464595138031"><ele>11.0</ele><time>2026-04-23T10:18:38.999Z</time></trkpt><trkpt lat="44.87265597686593" lon="11.43863340809678"><ele>11.0</ele><time>2026-04-23T10:18:39.999Z</time></trkpt><trkpt lat="44.8725274389055" lon="11.438800158523804"><ele>11.0</ele><time>2026-04-23T10:18:40.999Z</time></trkpt><trkpt lat="44.87239888892619" lon="11.43897002823061"><ele>11.333333333333332</ele><time>2026-04-23T10:18:41.999Z</time></trkpt><trkpt lat="44.87227457903139" lon="11.439139386357748"><ele>11.666666666666666</ele><time>2026-04-23T10:18:42.999Z</time></trkpt><trkpt lat="44.87215725743498" lon="11.439306249484392"><ele>12.0</ele><time>2026-04-23T10:18:43.999Z</time></trkpt><trkpt lat="44.87204468536869" lon="11.439466664745728"><ele>12.0</ele><time>2026-04-23T10:18:44.999Z</time></trkpt><trkpt lat="44.87192448088662" lon="11.439630150238417"><ele>12.0</ele><time>2026-04-23T10:18:45.999Z</time></trkpt><trkpt lat="44.87179473925896" lon="11.439777371361982"><ele>12.0</ele><time>2026-04-23T10:18:46.999Z</time></trkpt><trkpt lat="44.87167076113711" lon="11.439916816538004"><ele>12.0</ele><time>2026-04-23T10:18:47.999Z</time></trkpt><trkpt lat="44.871542072819445" lon="11.440057282491154"><ele>12.0</ele><time>2026-04-23T10:18:48.999Z</time></trkpt><trkpt lat="44.87141753472909" lon="11.440204674692547"><ele>12.0</ele><time>2026-04-23T10:18:49.999Z</time></trkpt><trkpt lat="44.87128884216271" lon="11.44035483488632"><ele>12.0</ele><time>2026-04-23T10:18:50.999Z</time></trkpt><trkpt lat="44.87115927449503" lon="11.440501218283057"><ele>12.0</ele><time>2026-04-23T10:18:51.999Z</time></trkpt><trkpt lat="44.87103466892972" lon="11.44064901223923"><ele>12.0</ele><time>2026-04-23T10:18:52.999Z</time></trkpt><trkpt lat="44.8709164063718" lon="11.44080950928147"><ele>12.0</ele><time>2026-04-23T10:18:53.999Z</time></trkpt><trkpt lat="44.870802572639505" lon="11.44097733763549"><ele>12.0</ele><time>2026-04-23T10:18:54.999Z</time></trkpt><trkpt lat="44.870695353571996" lon="11.441143693570304"><ele>12.0</ele><time>2026-04-23T10:18:55.999Z</time></trkpt><trkpt lat="44.87059210795747" lon="11.441310728933786"><ele>12.0</ele><time>2026-04-23T10:18:56.999Z</time></trkpt><trkpt lat="44.87048413151051" lon="11.441484661962424"><ele>12.0</ele><time>2026-04-23T10:18:57.999Z</time></trkpt><trkpt lat="44.870373611498444" lon="11.441656436557347"><ele>12.0</ele><time>2026-04-23T10:18:58.999Z</time></trkpt><trkpt lat="44.87026872596708" lon="11.441822125802403"><ele>12.0</ele><time>2026-04-23T10:18:59.999Z</time></trkpt><trkpt lat="44.87016992693082" lon="11.442004703778252"><ele>12.0</ele><time>2026-04-23T10:19:00.999Z</time></trkpt><trkpt lat="44.870086063778025" lon="11.442196409580385"><ele>12.0</ele><time>2026-04-23T10:19:01.999Z</time></trkpt><trkpt lat="44.870017347923515" lon="11.442398095586581"><ele>12.0</ele><time>2026-04-23T10:19:02.999Z</time></trkpt><trkpt lat="44.869956414036054" lon="11.44261438253419"><ele>12.0</ele><time>2026-04-23T10:19:03.999Z</time></trkpt><trkpt lat="44.86989989693832" lon="11.442834468422236"><ele>12.0</ele><time>2026-04-23T10:19:04.999Z</time></trkpt><trkpt lat="44.869845133170905" lon="11.44305982894651"><ele>12.0</ele><time>2026-04-23T10:19:05.999Z</time></trkpt><trkpt lat="44.86979399355839" lon="11.443281965132435"><ele>12.0</ele><time>2026-04-23T10:19:06.999Z</time></trkpt><trkpt lat="44.8697517489301" lon="11.44351096084973"><ele>12.0</ele><time>2026-04-23T10:19:07.999Z</time></trkpt><trkpt lat="44.86969776742807" lon="11.443738935759264"><ele>12.0</ele><time>2026-04-23T10:19:08.999Z</time></trkpt><trkpt lat="44.86964164452898" lon="11.44396591882534"><ele>12.0</ele><time>2026-04-23T10:19:10Z</time></trkpt><trkpt lat="44.86958880685642" lon="11.44419961202406"><ele>12.0</ele><time>2026-04-23T10:19:11Z</time></trkpt><trkpt lat="44.86953741985681" lon="11.444427642381465"><ele>12.0</ele><time>2026-04-23T10:19:12Z</time></trkpt><trkpt lat="44.86948784727016" lon="11.444653215094691"><ele>12.0</ele><time>2026-04-23T10:19:13Z</time></trkpt><trkpt lat="44.86943750917902" lon="11.444884353902436"><ele>12.0</ele><time>2026-04-23T10:19:14Z</time></trkpt><trkpt lat="44.86938804694879" lon="11.4451132392753"><ele>12.0</ele><time>2026-04-23T10:19:15Z</time></trkpt><trkpt lat="44.86933903087253" lon="11.445341916539384"><ele>12.0</ele><time>2026-04-23T10:19:16Z</time></trkpt><trkpt lat="44.86929061701489" lon="11.445570697214366"><ele>12.0</ele><time>2026-04-23T10:19:17Z</time></trkpt><trkpt lat="44.869243904048695" lon="11.445798451695026"><ele>12.0</ele><time>2026-04-23T10:19:18Z</time></trkpt><trkpt lat="44.869200891013165" lon="11.44602177073204"><ele>12.0</ele><time>2026-04-23T10:19:19Z</time></trkpt><trkpt lat="44.869156007143985" lon="11.446242949654467"><ele>12.0</ele><time>2026-04-23T10:19:20Z</time></trkpt><trkpt lat="44.8691176790811" lon="11.446454765508305"><ele>12.0</ele><time>2026-04-23T10:19:21Z</time></trkpt><trkpt lat="44.86908278801687" lon="11.446656236950899"><ele>12.0</ele><time>2026-04-23T10:19:22Z</time></trkpt><trkpt lat="44.86905572370447" lon="11.446853217956615"><ele>12.0</ele><time>2026-04-23T10:19:23Z</time></trkpt><trkpt lat="44.869033792788755" lon="11.447062494228875"><ele>12.0</ele><time>2026-04-23T10:19:24Z</time></trkpt><trkpt lat="44.869026950789085" lon="11.447280303860039"><ele>11.666666666666666</ele><time>2026-04-23T10:19:25Z</time></trkpt><trkpt lat="44.86903384045714" lon="11.44750501411007"><ele>11.333333333333332</ele><time>2026-04-23T10:19:26Z</time></trkpt><trkpt lat="44.869041021129874" lon="11.447717547498968"><ele>11.0</ele><time>2026-04-23T10:19:27Z</time></trkpt><trkpt lat="44.869036058464246" lon="11.447932738989458"><ele>11.333333333333332</ele><time>2026-04-23T10:19:28Z</time></trkpt><trkpt lat="44.86901740710201" lon="11.448172509905406"><ele>11.666666666666666</ele><time>2026-04-23T10:19:29Z</time></trkpt><trkpt lat="44.8689842315082" lon="11.448415335954191"><ele>12.0</ele><time>2026-04-23T10:19:30Z</time></trkpt><trkpt lat="44.86894217050034" lon="11.448646363547343"><ele>11.333333333333334</ele><time>2026-04-23T10:19:31Z</time></trkpt><trkpt lat="44.86889666538657" lon="11.448877677560564"><ele>10.666666666666668</ele><time>2026-04-23T10:19:32Z</time></trkpt><trkpt lat="44.868852021102974" lon="11.449118732749085"><ele>10.0</ele><time>2026-04-23T10:19:33Z</time></trkpt><trkpt lat="44.86880724688798" lon="11.449366904082742"><ele>10.0</ele><time>2026-04-23T10:19:34Z</time></trkpt><trkpt lat="44.868766181578735" lon="11.449609986533666"><ele>10.0</ele><time>2026-04-23T10:19:35Z</time></trkpt><trkpt lat="44.868728107533734" lon="11.449832580209371"><ele>10.0</ele><time>2026-04-23T10:19:36Z</time></trkpt><trkpt lat="44.86869746551336" lon="11.450052900901612"><ele>9.333333333333334</ele><time>2026-04-23T10:19:37Z</time></trkpt><trkpt lat="44.868670222053495" lon="11.450264755406627"><ele>8.666666666666666</ele><time>2026-04-23T10:19:38Z</time></trkpt><trkpt lat="44.86864051825011" lon="11.450481934269273"><ele>8.0</ele><time>2026-04-23T10:19:39Z</time></trkpt><trkpt lat="44.868613324173666" lon="11.450699215843775"><ele>8.0</ele><time>2026-04-23T10:19:40Z</time></trkpt><trkpt lat="44.86858807516922" lon="11.450917049235349"><ele>8.0</ele><time>2026-04-23T10:19:41Z</time></trkpt><trkpt lat="44.86856236543136" lon="11.45113477882266"><ele>8.0</ele><time>2026-04-23T10:19:42Z</time></trkpt><trkpt lat="44.86853749943947" lon="11.451349213323873"><ele>8.0</ele><time>2026-04-23T10:19:43Z</time></trkpt><trkpt lat="44.86850993024073" lon="11.451563773165292"><ele>8.0</ele><time>2026-04-23T10:19:44Z</time></trkpt><trkpt lat="44.86848045269486" lon="11.451779633472844"><ele>8.0</ele><time>2026-04-23T10:19:45Z</time></trkpt><trkpt lat="44.86845153321921" lon="11.452001983997125"><ele>9.666666666666666</ele><time>2026-04-23T10:19:46Z</time></trkpt><trkpt lat="44.86842399253964" lon="11.452230198574913"><ele>11.333333333333332</ele><time>2026-04-23T10:19:47Z</time></trkpt><trkpt lat="44.868393907096376" lon="11.452460667836853"><ele>13.0</ele><time>2026-04-23T10:19:48Z</time></trkpt><trkpt lat="44.86836536931252" lon="11.452688157220097"><ele>13.0</ele><time>2026-04-23T10:19:49Z</time></trkpt><trkpt lat="44.868338737276034" lon="11.452917263419588"><ele>13.0</ele><time>2026-04-23T10:19:50Z</time></trkpt><trkpt lat="44.86831212239002" lon="11.453149202713774"><ele>13.0</ele><time>2026-04-23T10:19:51Z</time></trkpt><trkpt lat="44.868286470411704" lon="11.453383052138228"><ele>12.666666666666666</ele><time>2026-04-23T10:19:52Z</time></trkpt><trkpt lat="44.86825648316108" lon="11.45362138312488"><ele>12.333333333333332</ele><time>2026-04-23T10:19:53Z</time></trkpt><trkpt lat="44.8682240698962" lon="11.453865294841194"><ele>12.0</ele><time>2026-04-23T10:19:54Z</time></trkpt><trkpt lat="44.868189909933506" lon="11.4541109796655"><ele>11.333333333333334</ele><time>2026-04-23T10:19:55Z</time></trkpt><trkpt lat="44.8681547983134" lon="11.454357541688161"><ele>10.666666666666668</ele><time>2026-04-23T10:19:56Z</time></trkpt><trkpt lat="44.8681176437354" lon="11.454602519499625"><ele>10.0</ele><time>2026-04-23T10:19:57Z</time></trkpt><trkpt lat="44.8680856787998" lon="11.454850662671218"><ele>9.666666666666668</ele><time>2026-04-23T10:19:58Z</time></trkpt><trkpt lat="44.86805343375573" lon="11.455101650768889"><ele>9.333333333333334</ele><time>2026-04-23T10:19:59Z</time></trkpt><trkpt lat="44.86802218212804" lon="11.455359114908811"><ele>9.0</ele><time>2026-04-23T10:20:00Z</time></trkpt><trkpt lat="44.86798808665632" lon="11.455613840089091"><ele>8.666666666666666</ele><time>2026-04-23T10:20:01Z</time></trkpt><trkpt lat="44.86795777830312" lon="11.455871325842384"><ele>8.333333333333332</ele><time>2026-04-23T10:20:02Z</time></trkpt><trkpt lat="44.867925473399204" lon="11.456126735540774"><ele>8.0</ele><time>2026-04-23T10:20:03Z</time></trkpt><trkpt lat="44.86789381286788" lon="11.456383557875272"><ele>8.0</ele><time>2026-04-23T10:20:04Z</time></trkpt><trkpt lat="44.86786230973222" lon="11.456637481222725"><ele>8.0</ele><time>2026-04-23T10:20:05Z</time></trkpt><trkpt lat="44.86783350829598" lon="11.456889697143772"><ele>8.0</ele><time>2026-04-23T10:20:06Z</time></trkpt><trkpt lat="44.86780490440627" lon="11.457143209593925"><ele>8.666666666666666</ele><time>2026-04-23T10:20:07Z</time></trkpt><trkpt lat="44.86777167058115" lon="11.457398033521859"><ele>9.333333333333334</ele><time>2026-04-23T10:20:08Z</time></trkpt><trkpt lat="44.8677438936246" lon="11.457651889348357"><ele>10.0</ele><time>2026-04-23T10:20:09Z</time></trkpt><trkpt lat="44.86772409789475" lon="11.457904997823567"><ele>10.0</ele><time>2026-04-23T10:20:10Z</time></trkpt><trkpt lat="44.86771042873754" lon="11.458162796696932"><ele>10.0</ele><time>2026-04-23T10:20:11Z</time></trkpt><trkpt lat="44.86769694026688" lon="11.458421118549591"><ele>10.0</ele><time>2026-04-23T10:20:12Z</time></trkpt><trkpt lat="44.86768583725759" lon="11.458680058111447"><ele>9.333333333333334</ele><time>2026-04-23T10:20:13Z</time></trkpt><trkpt lat="44.867675318984986" lon="11.458943073884686"><ele>8.666666666666666</ele><time>2026-04-23T10:20:14Z</time></trkpt><trkpt lat="44.86766901914428" lon="11.4592053738963"><ele>8.0</ele><time>2026-04-23T10:20:15Z</time></trkpt><trkpt lat="44.86766438566359" lon="11.459471116093253"><ele>7.666666666666666</ele><time>2026-04-23T10:20:16Z</time></trkpt><trkpt lat="44.86766079691727" lon="11.459742003822141"><ele>7.333333333333334</ele><time>2026-04-23T10:20:17Z</time></trkpt><trkpt lat="44.867663365840095" lon="11.460011488929734"><ele>7.0</ele><time>2026-04-23T10:20:18Z</time></trkpt><trkpt lat="44.86767182242009" lon="11.460278904626515"><ele>7.0</ele><time>2026-04-23T10:20:19Z</time></trkpt><trkpt lat="44.86768511779521" lon="11.460545408919998"><ele>7.0</ele><time>2026-04-23T10:20:20Z</time></trkpt><trkpt lat="44.86769985877983" lon="11.460814418882983"><ele>7.0</ele><time>2026-04-23T10:20:21Z</time></trkpt><trkpt lat="44.86771630590876" lon="11.461079192569242"><ele>7.333333333333334</ele><time>2026-04-23T10:20:22Z</time></trkpt><trkpt lat="44.86773159909555" lon="11.461326126398356"><ele>7.666666666666666</ele><time>2026-04-23T10:20:23Z</time></trkpt><trkpt lat="44.86774174553564" lon="11.461558484552542"><ele>8.0</ele><time>2026-04-23T10:20:24Z</time></trkpt><trkpt lat="44.86775065594923" lon="11.461775681075704"><ele>8.0</ele><time>2026-04-23T10:20:25Z</time></trkpt><trkpt lat="44.867755941991824" lon="11.461968045884305"><ele>8.0</ele><time>2026-04-23T10:20:26Z</time></trkpt><trkpt lat="44.86775616314242" lon="11.462147431518744"><ele>8.0</ele><time>2026-04-23T10:20:27Z</time></trkpt><trkpt lat="44.867753072390485" lon="11.46232066608725"><ele>8.0</ele><time>2026-04-23T10:20:28Z</time></trkpt><trkpt lat="44.86774870742137" lon="11.462506695414913"><ele>8.25</ele><time>2026-04-23T10:20:29Z</time></trkpt><trkpt lat="44.86774382960172" lon="11.46269511255372"><ele>8.5</ele><time>2026-04-23T10:20:30Z</time></trkpt><trkpt lat="44.867741143410804" lon="11.462888867954089"><ele>8.75</ele><time>2026-04-23T10:20:31Z</time></trkpt><trkpt lat="44.867735026704814" lon="11.463095966900152"><ele>9.0</ele><time>2026-04-23T10:20:31.999Z</time></trkpt><trkpt lat="44.86773094243637" lon="11.46330682206013"><ele>9.0</ele><time>2026-04-23T10:20:32.999Z</time></trkpt><trkpt lat="44.8677228516645" lon="11.463524873252522"><ele>9.0</ele><time>2026-04-23T10:20:33.999Z</time></trkpt><trkpt lat="44.86771471937031" lon="11.46374812902934"><ele>9.0</ele><time>2026-04-23T10:20:34.999Z</time></trkpt><trkpt lat="44.867703033777936" lon="11.46397680785453"><ele>9.0</ele><time>2026-04-23T10:20:35.999Z</time></trkpt><trkpt lat="44.8676854608163" lon="11.464216182747784"><ele>9.0</ele><time>2026-04-23T10:20:36.999Z</time></trkpt><trkpt lat="44.867668016431786" lon="11.464458729874101"><ele>9.0</ele><time>2026-04-23T10:20:37.999Z</time></trkpt><trkpt lat="44.867646252918995" lon="11.464707869541297"><ele>9.333333333333334</ele><time>2026-04-23T10:20:38.999Z</time></trkpt><trkpt lat="44.867626747155235" lon="11.464938727378641"><ele>9.666666666666668</ele><time>2026-04-23T10:20:39.999Z</time></trkpt><trkpt lat="44.86760720023825" lon="11.465146968157622"><ele>10.0</ele><time>2026-04-23T10:20:40.999Z</time></trkpt><trkpt lat="44.86759057017426" lon="11.46535418679572"><ele>9.666666666666668</ele><time>2026-04-23T10:20:41.999Z</time></trkpt><trkpt lat="44.867570923080365" lon="11.465568655039185"><ele>9.333333333333334</ele><time>2026-04-23T10:20:42.999Z</time></trkpt><trkpt lat="44.86754571210623" lon="11.465778781040104"><ele>9.0</ele><time>2026-04-23T10:20:43.999Z</time></trkpt><trkpt lat="44.86751172606451" lon="11.465988694136545"><ele>9.0</ele><time>2026-04-23T10:20:44.999Z</time></trkpt><trkpt lat="44.86747586676446" lon="11.466194254437461"><ele>9.0</ele><time>2026-04-23T10:20:45.999Z</time></trkpt><trkpt lat="44.86744429584372" lon="11.466377167420488"><ele>9.0</ele><time>2026-04-23T10:20:46.999Z</time></trkpt><trkpt lat="44.86741509180852" lon="11.46655184331741"><ele>9.0</ele><time>2026-04-23T10:20:47.999Z</time></trkpt><trkpt lat="44.86738968749033" lon="11.466724785606143"><ele>9.0</ele><time>2026-04-23T10:20:48.999Z</time></trkpt><trkpt lat="44.86737408269593" lon="11.46689411156266"><ele>9.0</ele><time>2026-04-23T10:20:49.999Z</time></trkpt><trkpt lat="44.86737136706093" lon="11.467059736964192"><ele>9.0</ele><time>2026-04-23T10:20:50.999Z</time></trkpt><trkpt lat="44.86738348638505" lon="11.467221241669815"><ele>9.0</ele><time>2026-04-23T10:20:51.999Z</time></trkpt><trkpt lat="44.867398319929364" lon="11.467370395491082"><ele>9.0</ele><time>2026-04-23T10:20:52.999Z</time></trkpt><trkpt lat="44.86740010759757" lon="11.467515580188126"><ele>9.0</ele><time>2026-04-23T10:20:53.999Z</time></trkpt><trkpt lat="44.867375550087196" lon="11.46765616364895"><ele>9.0</ele><time>2026-04-23T10:20:54.999Z</time></trkpt><trkpt lat="44.86733615610245" lon="11.467818558478687"><ele>9.0</ele><time>2026-04-23T10:20:55.999Z</time></trkpt><trkpt lat="44.867296880590416" lon="11.46798626395533"><ele>8.5</ele><time>2026-04-23T10:20:56.999Z</time></trkpt><trkpt lat="44.8672509491232" lon="11.468167609465747"><ele>8.0</ele><time>2026-04-23T10:20:57.999Z</time></trkpt><trkpt lat="44.86721295206203" lon="11.468358222604403"><ele>7.5</ele><time>2026-04-23T10:20:58.999Z</time></trkpt><trkpt lat="44.867174027127085" lon="11.468565121345264"><ele>7.0</ele><time>2026-04-23T10:20:59.999Z</time></trkpt><trkpt lat="44.867141538898494" lon="11.468759613457099"><ele>7.5</ele><time>2026-04-23T10:21:00.999Z</time></trkpt><trkpt lat="44.86713948912473" lon="11.46893939315004"><ele>8.0</ele><time>2026-04-23T10:21:01.999Z</time></trkpt><trkpt lat="44.867157213546484" lon="11.46913473716375"><ele>8.5</ele><time>2026-04-23T10:21:02.999Z</time></trkpt><trkpt lat="44.86720710205596" lon="11.469348898603192"><ele>9.0</ele><time>2026-04-23T10:21:03.999Z</time></trkpt><trkpt lat="44.86727833614053" lon="11.469572763301922"><ele>9.333333333333334</ele><time>2026-04-23T10:21:04.999Z</time></trkpt><trkpt lat="44.867352550479396" lon="11.469786168699343"><ele>9.666666666666668</ele><time>2026-04-23T10:21:05.999Z</time></trkpt><trkpt lat="44.867416899163224" lon="11.469997737636143"><ele>10.0</ele><time>2026-04-23T10:21:06.999Z</time></trkpt><trkpt lat="44.86745771919972" lon="11.470221044605527"><ele>9.666666666666668</ele><time>2026-04-23T10:21:07.999Z</time></trkpt><trkpt lat="44.86747445357234" lon="11.470457106193741"><ele>9.333333333333334</ele><time>2026-04-23T10:21:08.999Z</time></trkpt><trkpt lat="44.8674586413339" lon="11.47070504220973"><ele>9.0</ele><time>2026-04-23T10:21:09.999Z</time></trkpt><trkpt lat="44.86741426282835" lon="11.47096107150449"><ele>9.0</ele><time>2026-04-23T10:21:10.999Z</time></trkpt><trkpt lat="44.8673507348968" lon="11.47122715205951"><ele>9.0</ele><time>2026-04-23T10:21:11.999Z</time></trkpt><trkpt lat="44.86727023613251" lon="11.471498279525827"><ele>9.0</ele><time>2026-04-23T10:21:12.999Z</time></trkpt><trkpt lat="44.86718551670383" lon="11.47178174609106"><ele>9.0</ele><time>2026-04-23T10:21:13.999Z</time></trkpt><trkpt lat="44.86710220130794" lon="11.472075880049456"><ele>9.0</ele><time>2026-04-23T10:21:14.999Z</time></trkpt><trkpt lat="44.86701694019615" lon="11.472385021687023"><ele>8.5</ele><time>2026-04-23T10:21:16Z</time></trkpt><trkpt lat="44.86692290091161" lon="11.47270197823927"><ele>8.0</ele><time>2026-04-23T10:21:17Z</time></trkpt><trkpt lat="44.86682121080345" lon="11.473031481355179"><ele>10.5</ele><time>2026-04-23T10:21:18Z</time></trkpt><trkpt lat="44.866725475754684" lon="11.473341660093217"><ele>13.0</ele><time>2026-04-23T10:21:19Z</time></trkpt><trkpt lat="44.86663679121248" lon="11.473628794508642"><ele>12.666666666666666</ele><time>2026-04-23T10:21:20Z</time></trkpt><trkpt lat="44.86655419156042" lon="11.473892492242399"><ele>12.333333333333332</ele><time>2026-04-23T10:21:21Z</time></trkpt><trkpt lat="44.866476024075745" lon="11.474136168422618"><ele>12.0</ele><time>2026-04-23T10:21:22Z</time></trkpt><trkpt lat="44.86640195554198" lon="11.474373525529248"><ele>11.0</ele><time>2026-04-23T10:21:23Z</time></trkpt><trkpt lat="44.866331125963455" lon="11.474608298765773"><ele>10.0</ele><time>2026-04-23T10:21:24Z</time></trkpt><trkpt lat="44.8662598844126" lon="11.474830971274748"><ele>9.0</ele><time>2026-04-23T10:21:25Z</time></trkpt><trkpt lat="44.86619076469327" lon="11.475045713884294"><ele>9.0</ele><time>2026-04-23T10:21:26Z</time></trkpt><trkpt lat="44.86613142296729" lon="11.475254022635056"><ele>9.0</ele><time>2026-04-23T10:21:27Z</time></trkpt><trkpt lat="44.86609014938347" lon="11.47545341528024"><ele>9.0</ele><time>2026-04-23T10:21:28Z</time></trkpt><trkpt lat="44.86606849965525" lon="11.475656745816929"><ele>8.5</ele><time>2026-04-23T10:21:29Z</time></trkpt><trkpt lat="44.86606565886478" lon="11.475863602632876"><ele>8.0</ele><time>2026-04-23T10:21:30Z</time></trkpt><trkpt lat="44.86609012374895" lon="11.476071251163873"><ele>7.5</ele><time>2026-04-23T10:21:31Z</time></trkpt><trkpt lat="44.866144448586674" lon="11.476271160346583"><ele>7.0</ele><time>2026-04-23T10:21:32Z</time></trkpt><trkpt lat="44.866227079967366" lon="11.4764661398984"><ele>6.666666666666667</ele><time>2026-04-23T10:21:33Z</time></trkpt><trkpt lat="44.86634371899934" lon="11.476658955903202"><ele>6.333333333333334</ele><time>2026-04-23T10:21:34Z</time></trkpt><trkpt lat="44.86648906007492" lon="11.476844578682137"><ele>6.0</ele><time>2026-04-23T10:21:35Z</time></trkpt><trkpt lat="44.86665677440124" lon="11.477020535474354"><ele>6.666666666666666</ele><time>2026-04-23T10:21:36Z</time></trkpt><trkpt lat="44.8668118786447" lon="11.477183238918206"><ele>7.333333333333333</ele><time>2026-04-23T10:21:37Z</time></trkpt><trkpt lat="44.866957312423004" lon="11.477346330645556"><ele>8.0</ele><time>2026-04-23T10:21:38Z</time></trkpt><trkpt lat="44.867092835308426" lon="11.477519064955798"><ele>8.0</ele><time>2026-04-23T10:21:39Z</time></trkpt><trkpt lat="44.86720950312135" lon="11.477717544398907"><ele>8.0</ele><time>2026-04-23T10:21:40Z</time></trkpt><trkpt lat="44.86730993720418" lon="11.477954681980847"><ele>8.0</ele><time>2026-04-23T10:21:41Z</time></trkpt><trkpt lat="44.86738696594858" lon="11.478223944402234"><ele>8.333333333333332</ele><time>2026-04-23T10:21:42Z</time></trkpt><trkpt lat="44.86743638602981" lon="11.478521721051854"><ele>8.666666666666666</ele><time>2026-04-23T10:21:43Z</time></trkpt><trkpt lat="44.86747437928549" lon="11.478834434947633"><ele>9.0</ele><time>2026-04-23T10:21:44Z</time></trkpt><trkpt lat="44.86751654381095" lon="11.479156995199963"><ele>8.333333333333334</ele><time>2026-04-23T10:21:45Z</time></trkpt><trkpt lat="44.867559607988916" lon="11.479469510995994"><ele>7.666666666666667</ele><time>2026-04-23T10:21:46Z</time></trkpt><trkpt lat="44.867605838906215" lon="11.479766132772479"><ele>7.0</ele><time>2026-04-23T10:21:47Z</time></trkpt><trkpt lat="44.867666153385116" lon="11.48005698116205"><ele>6.666666666666667</ele><time>2026-04-23T10:21:48Z</time></trkpt><trkpt lat="44.86774280001906" lon="11.480345998115263"><ele>6.333333333333334</ele><time>2026-04-23T10:21:49Z</time></trkpt><trkpt lat="44.86782770527356" lon="11.480611622207672"><ele>6.0</ele><time>2026-04-23T10:21:50Z</time></trkpt><trkpt lat="44.86790584986163" lon="11.480859018311966"><ele>6.0</ele><time>2026-04-23T10:21:51Z</time></trkpt><trkpt lat="44.86796085453047" lon="11.481121157835082"><ele>6.0</ele><time>2026-04-23T10:21:52Z</time></trkpt><trkpt lat="44.86799068961292" lon="11.481412712687094"><ele>6.0</ele><time>2026-04-23T10:21:53Z</time></trkpt><trkpt lat="44.86800430993583" lon="11.481712627296382"><ele>6.0</ele><time>2026-04-23T10:21:54Z</time></trkpt><trkpt lat="44.86801928678919" lon="11.482013641092792"><ele>6.0</ele><time>2026-04-23T10:21:55Z</time></trkpt><trkpt lat="44.868041140591046" lon="11.482322517368871"><ele>6.0</ele><time>2026-04-23T10:21:56Z</time></trkpt><trkpt lat="44.868075682825626" lon="11.48264218147786"><ele>6.5</ele><time>2026-04-23T10:21:57Z</time></trkpt><trkpt lat="44.86812047719201" lon="11.482976009664448"><ele>7.0</ele><time>2026-04-23T10:21:58Z</time></trkpt><trkpt lat="44.86816881448776" lon="11.48332317538616"><ele>7.0</ele><time>2026-04-23T10:21:59Z</time></trkpt><trkpt lat="44.86821863279627" lon="11.483655057153443"><ele>7.0</ele><time>2026-04-23T10:22:00Z</time></trkpt><trkpt lat="44.8682655055911" lon="11.483954792004829"><ele>6.666666666666667</ele><time>2026-04-23T10:22:01Z</time></trkpt><trkpt lat="44.86830322819554" lon="11.484238310227434"><ele>6.333333333333334</ele><time>2026-04-23T10:22:02Z</time></trkpt><trkpt lat="44.868342600165704" lon="11.484518474688613"><ele>6.0</ele><time>2026-04-23T10:22:03Z</time></trkpt><trkpt lat="44.868380178240116" lon="11.484785110225443"><ele>5.666666666666667</ele><time>2026-04-23T10:22:04Z</time></trkpt><trkpt lat="44.86841423973122" lon="11.4850324473075"><ele>5.333333333333334</ele><time>2026-04-23T10:22:05Z</time></trkpt><trkpt lat="44.86845832096507" lon="11.485269959868099"><ele>5.0</ele><time>2026-04-23T10:22:06Z</time></trkpt><trkpt lat="44.868520749724176" lon="11.485500061647803"><ele>5.666666666666667</ele><time>2026-04-23T10:22:07Z</time></trkpt><trkpt lat="44.868616774297166" lon="11.485720630161719"><ele>6.333333333333334</ele><time>2026-04-23T10:22:08Z</time></trkpt><trkpt lat="44.86874199242871" lon="11.485944223183608"><ele>7.0</ele><time>2026-04-23T10:22:09Z</time></trkpt><trkpt lat="44.86887504976814" lon="11.486164123817538"><ele>7.0</ele><time>2026-04-23T10:22:10Z</time></trkpt><trkpt lat="44.86900408958154" lon="11.486377434236713"><ele>7.0</ele><time>2026-04-23T10:22:11Z</time></trkpt><trkpt lat="44.86911433309795" lon="11.486577439776564"><ele>7.0</ele><time>2026-04-23T10:22:12Z</time></trkpt><trkpt lat="44.86919934381091" lon="11.486775471921225"><ele>7.0</ele><time>2026-04-23T10:22:13Z</time></trkpt><trkpt lat="44.869257780101194" lon="11.486985673444632"><ele>7.0</ele><time>2026-04-23T10:22:14Z</time></trkpt><trkpt lat="44.86930679715663" lon="11.487217047805906"><ele>7.0</ele><time>2026-04-23T10:22:15Z</time></trkpt><trkpt lat="44.86934760338999" lon="11.487449942258785"><ele>6.666666666666667</ele><time>2026-04-23T10:22:16Z</time></trkpt><trkpt lat="44.869388061885935" lon="11.48767337907614"><ele>6.333333333333334</ele><time>2026-04-23T10:22:17Z</time></trkpt><trkpt lat="44.86942375842529" lon="11.487887157970702"><ele>6.0</ele><time>2026-04-23T10:22:18Z</time></trkpt><trkpt lat="44.86945867030023" lon="11.488093005517984"><ele>6.0</ele><time>2026-04-23T10:22:19Z</time></trkpt><trkpt lat="44.86949204484876" lon="11.488299440113385"><ele>6.0</ele><time>2026-04-23T10:22:20Z</time></trkpt><trkpt lat="44.86953489378656" lon="11.488508494636209"><ele>6.0</ele><time>2026-04-23T10:22:21Z</time></trkpt><trkpt lat="44.86958632992028" lon="11.488720878516416"><ele>6.0</ele><time>2026-04-23T10:22:22Z</time></trkpt><trkpt lat="44.869644538977504" lon="11.488929208702102"><ele>6.0</ele><time>2026-04-23T10:22:23Z</time></trkpt><trkpt lat="44.869707246490734" lon="11.489127527981683"><ele>6.0</ele><time>2026-04-23T10:22:24Z</time></trkpt><trkpt lat="44.86976698066211" lon="11.489315364804149"><ele>6.0</ele><time>2026-04-23T10:22:25Z</time></trkpt><trkpt lat="44.86982525648529" lon="11.489501960618634"><ele>6.0</ele><time>2026-04-23T10:22:26Z</time></trkpt><trkpt lat="44.86988551618764" lon="11.489686788968996"><ele>6.0</ele><time>2026-04-23T10:22:27Z</time></trkpt><trkpt lat="44.86994609130679" lon="11.489870392959979"><ele>6.0</ele><time>2026-04-23T10:22:28Z</time></trkpt><trkpt lat="44.870004425370574" lon="11.490055121715345"><ele>6.5</ele><time>2026-04-23T10:22:29Z</time></trkpt><trkpt lat="44.87006245324617" lon="11.4902447757147"><ele>7.0</ele><time>2026-04-23T10:22:30Z</time></trkpt><trkpt lat="44.87012344709751" lon="11.490433090516063"><ele>7.5</ele><time>2026-04-23T10:22:31Z</time></trkpt><trkpt lat="44.87018356368875" lon="11.490622727668601"><ele>8.0</ele><time>2026-04-23T10:22:32Z</time></trkpt><trkpt lat="44.87024298059477" lon="11.490809942275915"><ele>8.0</ele><time>2026-04-23T10:22:33Z</time></trkpt><trkpt lat="44.8703039360631" lon="11.491010469777422"><ele>8.0</ele><time>2026-04-23T10:22:34Z</time></trkpt><trkpt lat="44.87036869825113" lon="11.491212106798384"><ele>8.0</ele><time>2026-04-23T10:22:35Z</time></trkpt><trkpt lat="44.87043493395861" lon="11.491420851658557"><ele>8.0</ele><time>2026-04-23T10:22:35.999Z</time></trkpt><trkpt lat="44.870503753136376" lon="11.491646005436793"><ele>8.0</ele><time>2026-04-23T10:22:36.999Z</time></trkpt><trkpt lat="44.87057674340131" lon="11.491871709837461"><ele>8.0</ele><time>2026-04-23T10:22:37.999Z</time></trkpt><trkpt lat="44.870647182586474" lon="11.492098429425178"><ele>8.333333333333332</ele><time>2026-04-23T10:22:38.999Z</time></trkpt><trkpt lat="44.87072000292544" lon="11.492314766096465"><ele>8.666666666666666</ele><time>2026-04-23T10:22:39.999Z</time></trkpt><trkpt lat="44.8707890180524" lon="11.492527469317926"><ele>9.0</ele><time>2026-04-23T10:22:40.999Z</time></trkpt><trkpt lat="44.87085434382306" lon="11.49272449399559"><ele>9.0</ele><time>2026-04-23T10:22:41.999Z</time></trkpt><trkpt lat="44.87091233192202" lon="11.492910974353848"><ele>9.0</ele><time>2026-04-23T10:22:42.999Z</time></trkpt><trkpt lat="44.87096875445617" lon="11.49308650560127"><ele>9.0</ele><time>2026-04-23T10:22:43.999Z</time></trkpt><trkpt lat="44.87103207297025" lon="11.493274042803085"><ele>9.0</ele><time>2026-04-23T10:22:44.999Z</time></trkpt><trkpt lat="44.87110144023439" lon="11.493464832284449"><ele>9.0</ele><time>2026-04-23T10:22:45.999Z</time></trkpt><trkpt lat="44.87117639265359" lon="11.493646868771371"><ele>9.0</ele><time>2026-04-23T10:22:46.999Z</time></trkpt><trkpt lat="44.87125552351237" lon="11.493824168794287"><ele>9.0</ele><time>2026-04-23T10:22:47.999Z</time></trkpt><trkpt lat="44.871340178643905" lon="11.494001314041315"><ele>9.0</ele><time>2026-04-23T10:22:48.999Z</time></trkpt><trkpt lat="44.871424333397776" lon="11.494179277025948"><ele>9.0</ele><time>2026-04-23T10:22:49.999Z</time></trkpt><trkpt lat="44.87150807288539" lon="11.49435983947111"><ele>9.0</ele><time>2026-04-23T10:22:50.999Z</time></trkpt><trkpt lat="44.87159121682687" lon="11.494539468323252"><ele>9.0</ele><time>2026-04-23T10:22:51.999Z</time></trkpt><trkpt lat="44.871675212180286" lon="11.49471704866802"><ele>9.0</ele><time>2026-04-23T10:22:52.999Z</time></trkpt><trkpt lat="44.871757952888046" lon="11.494892281980466"><ele>9.0</ele><time>2026-04-23T10:22:53.999Z</time></trkpt><trkpt lat="44.87183899321959" lon="11.495071357270469"><ele>9.0</ele><time>2026-04-23T10:22:54.999Z</time></trkpt><trkpt lat="44.87191700245273" lon="11.495252852458115"><ele>8.666666666666666</ele><time>2026-04-23T10:22:55.999Z</time></trkpt><trkpt lat="44.871993472732214" lon="11.495436215577545"><ele>8.333333333333332</ele><time>2026-04-23T10:22:56.999Z</time></trkpt><trkpt lat="44.872068026639475" lon="11.495617947725945"><ele>8.0</ele><time>2026-04-23T10:22:57.999Z</time></trkpt><trkpt lat="44.872142138837525" lon="11.495804596041268"><ele>8.0</ele><time>2026-04-23T10:22:58.999Z</time></trkpt><trkpt lat="44.872211964896564" lon="11.49599701563939"><ele>8.0</ele><time>2026-04-23T10:22:59.999Z</time></trkpt><trkpt lat="44.8722796522545" lon="11.496193517949411"><ele>8.0</ele><time>2026-04-23T10:23:00.999Z</time></trkpt><trkpt lat="44.87233465263038" lon="11.496393858734304"><ele>8.333333333333332</ele><time>2026-04-23T10:23:01.999Z</time></trkpt><trkpt lat="44.87237953753309" lon="11.49660028937837"><ele>8.666666666666666</ele><time>2026-04-23T10:23:02.999Z</time></trkpt><trkpt lat="44.872412825280065" lon="11.49681206860997"><ele>9.0</ele><time>2026-04-23T10:23:03.999Z</time></trkpt><trkpt lat="44.87243234854331" lon="11.497030983762365"><ele>9.0</ele><time>2026-04-23T10:23:04.999Z</time></trkpt><trkpt lat="44.87244057303762" lon="11.497252823587768"><ele>9.0</ele><time>2026-04-23T10:23:05.999Z</time></trkpt><trkpt lat="44.87243967213234" lon="11.497468505891211"><ele>9.0</ele><time>2026-04-23T10:23:06.999Z</time></trkpt><trkpt lat="44.87243884210114" lon="11.497681979851903"><ele>9.0</ele><time>2026-04-23T10:23:07.999Z</time></trkpt><trkpt lat="44.87243377818246" lon="11.497894730782454"><ele>9.0</ele><time>2026-04-23T10:23:08.999Z</time></trkpt><trkpt lat="44.872429766608505" lon="11.498114683278928"><ele>9.0</ele><time>2026-04-23T10:23:09.999Z</time></trkpt><trkpt lat="44.87243133909301" lon="11.49832217837527"><ele>9.0</ele><time>2026-04-23T10:23:10.999Z</time></trkpt><trkpt lat="44.872438606636756" lon="11.498530330453606"><ele>9.0</ele><time>2026-04-23T10:23:11.999Z</time></trkpt><trkpt lat="44.87245939867778" lon="11.49873841571534"><ele>9.0</ele><time>2026-04-23T10:23:12.999Z</time></trkpt><trkpt lat="44.87248322852202" lon="11.498944452114253"><ele>9.0</ele><time>2026-04-23T10:23:13.999Z</time></trkpt><trkpt lat="44.87251093282693" lon="11.499148912425493"><ele>9.25</ele><time>2026-04-23T10:23:14.999Z</time></trkpt><trkpt lat="44.87252146383031" lon="11.499354426755021"><ele>9.5</ele><time>2026-04-23T10:23:15.999Z</time></trkpt><trkpt lat="44.87256227201844" lon="11.499552861448434"><ele>9.75</ele><time>2026-04-23T10:23:16.999Z</time></trkpt><trkpt lat="44.87258586844932" lon="11.499751587583049"><ele>10.0</ele><time>2026-04-23T10:23:17.999Z</time></trkpt><trkpt lat="44.87260129833808" lon="11.499951208688081"><ele>9.75</ele><time>2026-04-23T10:23:18.999Z</time></trkpt><trkpt lat="44.872610106218595" lon="11.500150908504489"><ele>9.5</ele><time>2026-04-23T10:23:19.999Z</time></trkpt><trkpt lat="44.87261592493844" lon="11.50034700898553"><ele>9.25</ele><time>2026-04-23T10:23:20.999Z</time></trkpt><trkpt lat="44.8726132311874" lon="11.500538191910769"><ele>9.0</ele><time>2026-04-23T10:23:22Z</time></trkpt><trkpt lat="44.87260253193435" lon="11.50072357874004"><ele>9.0</ele><time>2026-04-23T10:23:23Z</time></trkpt><trkpt lat="44.872585604313244" lon="11.500905616457075"><ele>9.0</ele><time>2026-04-23T10:23:24Z</time></trkpt><trkpt lat="44.872558819130035" lon="11.501086752682676"><ele>9.0</ele><time>2026-04-23T10:23:25Z</time></trkpt><trkpt lat="44.87252790678115" lon="11.501264131788911"><ele>9.0</ele><time>2026-04-23T10:23:26Z</time></trkpt><trkpt lat="44.87249711157521" lon="11.50143335020156"><ele>8.8</ele><time>2026-04-23T10:23:27Z</time></trkpt><trkpt lat="44.87246715332097" lon="11.501598830967659"><ele>8.600000000000001</ele><time>2026-04-23T10:23:28Z</time></trkpt><trkpt lat="44.87243545620147" lon="11.501754803924607"><ele>8.4</ele><time>2026-04-23T10:23:29Z</time></trkpt><trkpt lat="44.87240380615996" lon="11.50189806451405"><ele>8.200000000000001</ele><time>2026-04-23T10:23:30Z</time></trkpt><trkpt lat="44.87236619578187" lon="11.502029987778947"><ele>8.0</ele><time>2026-04-23T10:23:31Z</time></trkpt><trkpt lat="44.87232408832919" lon="11.502155785686695"><ele>8.0</ele><time>2026-04-23T10:23:32Z</time></trkpt><trkpt lat="44.87227751260064" lon="11.502275149916771"><ele>8.0</ele><time>2026-04-23T10:23:33Z</time></trkpt><trkpt lat="44.87222008001427" lon="11.502391249651438"><ele>8.0</ele><time>2026-04-23T10:23:34Z</time></trkpt><trkpt lat="44.87216445834548" lon="11.502495886684063"><ele>8.0</ele><time>2026-04-23T10:23:35Z</time></trkpt><trkpt lat="44.87211058280675" lon="11.502593895925965"><ele>8.0</ele><time>2026-04-23T10:23:36Z</time></trkpt><trkpt lat="44.87207577463203" lon="11.502713490824222"><ele>8.0</ele><time>2026-04-23T10:23:37Z</time></trkpt><trkpt lat="44.87206254633411" lon="11.502836720555528"><ele>8.0</ele><time>2026-04-23T10:23:38Z</time></trkpt><trkpt lat="44.87206494785789" lon="11.502969255498193"><ele>8.0</ele><time>2026-04-23T10:23:39Z</time></trkpt><trkpt lat="44.872069382820264" lon="11.503120903691835"><ele>8.0</ele><time>2026-04-23T10:23:40Z</time></trkpt><trkpt lat="44.87205256243354" lon="11.5032623800858"><ele>8.0</ele><time>2026-04-23T10:23:41Z</time></trkpt><trkpt lat="44.87202337602019" lon="11.503404930282816"><ele>7.5</ele><time>2026-04-23T10:23:42Z</time></trkpt><trkpt lat="44.87198180926751" lon="11.503542150154429"><ele>7.0</ele><time>2026-04-23T10:23:43Z</time></trkpt><trkpt lat="44.87192628005876" lon="11.50368340613304"><ele>6.5</ele><time>2026-04-23T10:23:44Z</time></trkpt><trkpt lat="44.871866881704236" lon="11.503839431422875"><ele>6.0</ele><time>2026-04-23T10:23:45Z</time></trkpt><trkpt lat="44.8718078460455" lon="11.504001265878703"><ele>6.75</ele><time>2026-04-23T10:23:46Z</time></trkpt><trkpt lat="44.87174710240231" lon="11.504167479523424"><ele>7.5</ele><time>2026-04-23T10:23:47Z</time></trkpt><trkpt lat="44.87168141417431" lon="11.50432683422181"><ele>8.25</ele><time>2026-04-23T10:23:48Z</time></trkpt><trkpt lat="44.87161003565747" lon="11.50449154581848"><ele>9.0</ele><time>2026-04-23T10:23:49Z</time></trkpt><trkpt lat="44.8715358456799" lon="11.504657277169994"><ele>9.0</ele><time>2026-04-23T10:23:50Z</time></trkpt><trkpt lat="44.871452928928775" lon="11.504823594431922"><ele>9.0</ele><time>2026-04-23T10:23:51Z</time></trkpt><trkpt lat="44.87136351789861" lon="11.504978522777613"><ele>9.0</ele><time>2026-04-23T10:23:52Z</time></trkpt><trkpt lat="44.87127668815234" lon="11.505130731763295"><ele>9.0</ele><time>2026-04-23T10:23:53Z</time></trkpt><trkpt lat="44.8711928686924" lon="11.505282997722091"><ele>8.75</ele><time>2026-04-23T10:23:54Z</time></trkpt><trkpt lat="44.87110838567728" lon="11.505428517748706"><ele>8.5</ele><time>2026-04-23T10:23:55Z</time></trkpt><trkpt lat="44.871013568184814" lon="11.505579364223266"><ele>8.25</ele><time>2026-04-23T10:23:56Z</time></trkpt><trkpt lat="44.8709204024091" lon="11.505732493486828"><ele>8.0</ele><time>2026-04-23T10:23:57Z</time></trkpt><trkpt lat="44.87081709669525" lon="11.505885594243997"><ele>8.25</ele><time>2026-04-23T10:23:58Z</time></trkpt><trkpt lat="44.87071591788192" lon="11.506039713261137"><ele>8.5</ele><time>2026-04-23T10:23:59Z</time></trkpt><trkpt lat="44.87060918948549" lon="11.506188004351282"><ele>8.75</ele><time>2026-04-23T10:24:00Z</time></trkpt><trkpt lat="44.87050035726388" lon="11.506317910425853"><ele>9.0</ele><time>2026-04-23T10:24:01Z</time></trkpt><trkpt lat="44.87039618061212" lon="11.506435219966509"><ele>9.0</ele><time>2026-04-23T10:24:02Z</time></trkpt><trkpt lat="44.87029019149171" lon="11.506537434514428"><ele>9.0</ele><time>2026-04-23T10:24:03Z</time></trkpt><trkpt lat="44.87016826983069" lon="11.506638068571073"><ele>9.0</ele><time>2026-04-23T10:24:04Z</time></trkpt><trkpt lat="44.87003911599434" lon="11.506727972322741"><ele>9.0</ele><time>2026-04-23T10:24:05Z</time></trkpt><trkpt lat="44.86991030179208" lon="11.506813968236505"><ele>9.25</ele><time>2026-04-23T10:24:06Z</time></trkpt><trkpt lat="44.86977466445668" lon="11.506891508460201"><ele>9.5</ele><time>2026-04-23T10:24:07Z</time></trkpt><trkpt lat="44.86965476588955" lon="11.506963556474501"><ele>9.75</ele><time>2026-04-23T10:24:08Z</time></trkpt><trkpt lat="44.86954281497396" lon="11.507017941726469"><ele>10.0</ele><time>2026-04-23T10:24:09Z</time></trkpt><trkpt lat="44.869428067580365" lon="11.507077329574985"><ele>10.25</ele><time>2026-04-23T10:24:10Z</time></trkpt><trkpt lat="44.86930102465265" lon="11.507145985374367"><ele>10.5</ele><time>2026-04-23T10:24:11Z</time></trkpt><trkpt lat="44.869180341542105" lon="11.507222467590417"><ele>10.75</ele><time>2026-04-23T10:24:12Z</time></trkpt><trkpt lat="44.869055689254" lon="11.507303554425366"><ele>11.0</ele><time>2026-04-23T10:24:13Z</time></trkpt><trkpt lat="44.86893106638342" lon="11.507381586686476"><ele>11.0</ele><time>2026-04-23T10:24:14Z</time></trkpt><trkpt lat="44.86880006068516" lon="11.507467699777216"><ele>11.0</ele><time>2026-04-23T10:24:15Z</time></trkpt><trkpt lat="44.86866699385041" lon="11.507553129128677"><ele>11.0</ele><time>2026-04-23T10:24:16Z</time></trkpt><trkpt lat="44.86853368010307" lon="11.507637841875766"><ele>11.0</ele><time>2026-04-23T10:24:17Z</time></trkpt><trkpt lat="44.868397959334004" lon="11.507722541086213"><ele>11.0</ele><time>2026-04-23T10:24:18Z</time></trkpt><trkpt lat="44.86826285388811" lon="11.507813400981517"><ele>11.0</ele><time>2026-04-23T10:24:19Z</time></trkpt><trkpt lat="44.868127877113594" lon="11.507901959563721"><ele>11.0</ele><time>2026-04-23T10:24:20Z</time></trkpt><trkpt lat="44.867991477359574" lon="11.507992139315416"><ele>11.0</ele><time>2026-04-23T10:24:21Z</time></trkpt><trkpt lat="44.86785797347291" lon="11.5080775444517"><ele>11.0</ele><time>2026-04-23T10:24:22Z</time></trkpt><trkpt lat="44.86773050273685" lon="11.508165401086426"><ele>11.0</ele><time>2026-04-23T10:24:23Z</time></trkpt><trkpt lat="44.86759967122631" lon="11.508251929577863"><ele>11.0</ele><time>2026-04-23T10:24:24Z</time></trkpt><trkpt lat="44.8674669181612" lon="11.508338321642771"><ele>11.0</ele><time>2026-04-23T10:24:25Z</time></trkpt><trkpt lat="44.86733368482543" lon="11.508423245072898"><ele>11.0</ele><time>2026-04-23T10:24:26Z</time></trkpt><trkpt lat="44.86720260125196" lon="11.508512601177278"><ele>11.0</ele><time>2026-04-23T10:24:27Z</time></trkpt><trkpt lat="44.86707222738782" lon="11.508597323200409"><ele>11.0</ele><time>2026-04-23T10:24:28Z</time></trkpt><trkpt lat="44.86694347976106" lon="11.508682396590316"><ele>11.0</ele><time>2026-04-23T10:24:29Z</time></trkpt><trkpt lat="44.86681776967238" lon="11.508768150614937"><ele>11.0</ele><time>2026-04-23T10:24:30Z</time></trkpt><trkpt lat="44.86668998276007" lon="11.5088507230465"><ele>11.0</ele><time>2026-04-23T10:24:31Z</time></trkpt><trkpt lat="44.86656508384477" lon="11.508930766238704"><ele>11.0</ele><time>2026-04-23T10:24:32Z</time></trkpt><trkpt lat="44.866442170856914" lon="11.50901247247601"><ele>11.0</ele><time>2026-04-23T10:24:33Z</time></trkpt><trkpt lat="44.86632063135557" lon="11.50909524351041"><ele>11.0</ele><time>2026-04-23T10:24:34Z</time></trkpt><trkpt lat="44.86620327553041" lon="11.50917426527606"><ele>11.0</ele><time>2026-04-23T10:24:35Z</time></trkpt><trkpt lat="44.86608597717239" lon="11.509253367621467"><ele>11.0</ele><time>2026-04-23T10:24:36Z</time></trkpt><trkpt lat="44.865969635502836" lon="11.509333617514026"><ele>11.0</ele><time>2026-04-23T10:24:37Z</time></trkpt><trkpt lat="44.86585034827481" lon="11.509406361906933"><ele>11.0</ele><time>2026-04-23T10:24:37.999Z</time></trkpt><trkpt lat="44.86573530859737" lon="11.509480787061197"><ele>11.0</ele><time>2026-04-23T10:24:38.999Z</time></trkpt><trkpt lat="44.865627434577675" lon="11.509552461900862"><ele>11.0</ele><time>2026-04-23T10:24:39.999Z</time></trkpt><trkpt lat="44.865528418105356" lon="11.509618894633347"><ele>11.0</ele><time>2026-04-23T10:24:40.999Z</time></trkpt><trkpt lat="44.86544825112361" lon="11.509666605682247"><ele>11.0</ele><time>2026-04-23T10:24:41.999Z</time></trkpt><trkpt lat="44.86537072147121" lon="11.50971698699405"><ele>11.0</ele><time>2026-04-23T10:24:42.999Z</time></trkpt><trkpt lat="44.86529354511116" lon="11.509765986763101"><ele>11.0</ele><time>2026-04-23T10:24:43.999Z</time></trkpt><trkpt lat="44.865213718668564" lon="11.50981907607531"><ele>11.0</ele><time>2026-04-23T10:24:44.999Z</time></trkpt><trkpt lat="44.865131956950854" lon="11.509874273942021"><ele>11.0</ele><time>2026-04-23T10:24:45.999Z</time></trkpt><trkpt lat="44.865045874524654" lon="11.509931155167006"><ele>11.0</ele><time>2026-04-23T10:24:46.999Z</time></trkpt><trkpt lat="44.864955219243484" lon="11.509990992480736"><ele>11.333333333333332</ele><time>2026-04-23T10:24:47.999Z</time></trkpt><trkpt lat="44.86487174027033" lon="11.510042812458131"><ele>11.666666666666666</ele><time>2026-04-23T10:24:48.999Z</time></trkpt><trkpt lat="44.86479519919504" lon="11.510091733589023"><ele>12.0</ele><time>2026-04-23T10:24:49.999Z</time></trkpt><trkpt lat="44.864725545088376" lon="11.510140634559082"><ele>12.333333333333332</ele><time>2026-04-23T10:24:50.999Z</time></trkpt><trkpt lat="44.8646618439282" lon="11.510181033184642"><ele>12.666666666666666</ele><time>2026-04-23T10:24:51.999Z</time></trkpt><trkpt lat="44.8646026191578" lon="11.51021746353773"><ele>13.0</ele><time>2026-04-23T10:24:52.999Z</time></trkpt><trkpt lat="44.8645020580262" lon="11.510283484780063"><ele>13.0</ele><time>2026-04-23T10:24:54.999Z</time></trkpt><trkpt lat="44.864424630101794" lon="11.510346021162828"><ele>13.0</ele><time>2026-04-23T10:24:56.999Z</time></trkpt><trkpt lat="44.864362908239315" lon="11.510367755060283"><ele>13.0</ele><time>2026-04-23T10:24:58.999Z</time></trkpt></trkseg></trk></gpx>